[[{"header":{"parameterUnit":"m.s-1","parameterCategory":1,"la1":30.6,"la2":29.2853,"lo1":-89.7004,"lo2":-87.6739,"dy":0.0162,"dx":0.0183,"nx":112,"ny":82,"refTime":"2024-02-15T06:00:00:Z","depth":0,"parameterNumber":2,"parameterNumberName":"U-component_of_WINDS"},"data":[0.0,0.0,0.0,0.0,0.0,0.0,0.0,0.0,0.0,0.0,0.0,0.0,0.0,0.0,0.0,0.0,0.0,0.0,0.0,0.0,0.0,0.0,0.0,0.0,0.0,0.0,0.0,0.0,0.0,0.0,0.0,0.0,0.0,0.0,0.0,0.0,0.0,0.0,0.0,0.0,0.0,0.0,0.0,0.0,0.0,0.0,0.0,0.0,0.0,0.0,0.0,0.0,0.0,0.0,0.0,0.0,0.0,0.0,0.0,0.0,0.0,0.0,0.0,0.0,0.0,0.0,0.0,0.0,0.0,0.0,0.0,0.0,0.0,0.0,0.0,0.0,0.0,0.0,0.0,0.0,0.0,0.0,0.0,0.0,0.0,0.0,0.0,0.0,0.0,0.0,0.0,1.2368,1.3711,1.4726,1.5029,1.3743,1.2191,1.0543,0.0,0.0,0.0,0.0,0.0,0.0,0.0,0.0,0.0,0.0,0.0,0.0,0.0,0.0,0.0,0.0,0.0,0.0,0.0,0.0,0.0,0.0,0.0,0.0,0.0,0.0,0.0,0.0,0.0,0.0,0.0,0.0,0.0,0.0,0.0,0.0,0.0,0.0,0.0,0.0,0.0,0.0,0.0,0.0,0.0,0.0,0.0,0.0,0.0,0.0,0.0,0.0,0.0,0.0,0.0,0.0,0.0,0.0,0.0,0.0,0.0,0.0,0.0,0.0,0.0,0.0,0.0,0.0,0.0,0.0,0.0,0.0,0.0,0.0,0.0,0.0,0.0,0.0,0.0,0.0,0.0,0.0,0.0,0.0,0.0,0.0,0.0,0.0,0.0,0.0,0.0,0.0,0.0,0.0,0.0,0.0,0.0,0.0,0.0,0.0,0.0,0.0,0.0,0.0,1.2798,1.4367,1.4566,1.4313,1.3581,1.3202,1.2046,0.98,0.0,0.0,0.0,0.0,0.0,0.0,0.0,0.0,0.0,0.0,0.0,0.0,0.0,0.0,0.0,0.0,0.0,0.0,0.0,0.0,0.0,0.0,0.0,0.0,0.0,0.0,0.0,0.0,0.0,0.0,0.0,0.0,0.0,0.0,0.0,0.0,0.0,0.0,0.0,0.0,0.0,0.0,0.0,0.0,0.0,0.0,0.0,0.0,0.0,0.0,0.0,0.0,0.0,0.0,0.0,0.0,0.0,0.0,0.0,0.0,0.0,0.0,0.0,0.0,0.0,0.0,0.0,0.0,0.0,0.0,0.0,0.0,0.0,0.0,0.0,0.0,0.0,0.0,0.0,0.0,0.0,0.0,0.0,0.0,0.0,0.0,0.0,0.0,0.0,0.0,0.0,0.0,0.0,0.0,0.0,0.0,0.0,0.0,0.0,0.0,0.0,0.0,0.0,1.1535,1.2512,1.4075,1.4032,1.3683,1.318,1.2227,1.1022,0.954,0.9161,0.0,0.0,0.0,0.0,0.0,0.0,0.0,0.0,0.0,0.0,0.0,0.0,0.0,0.0,0.0,0.0,0.0,0.0,0.0,0.0,0.0,0.0,0.0,0.0,0.0,0.0,0.0,0.0,0.0,0.0,0.0,0.0,0.0,0.0,0.0,0.0,0.0,0.0,0.0,0.0,0.0,0.0,0.0,0.0,0.0,0.0,0.0,0.0,0.0,0.0,0.0,0.0,0.0,0.0,0.0,0.0,0.0,0.0,0.0,0.0,0.0,0.0,0.0,0.0,0.0,0.0,0.0,0.0,0.0,0.0,0.0,0.0,0.0,0.0,0.0,0.0,0.0,0.0,0.0,0.0,0.0,0.0,0.0,0.0,0.0,0.0,0.0,0.0,0.0,0.0,0.0,0.0,0.0,0.0,0.0,0.0,0.0,0.0,0.0,0.0,0.0,0.0,1.1357,1.207,1.2983,1.2892,1.2644,1.2336,1.1035,0.9929,0.9183,0.8665,0.0,0.0,0.0,0.0,0.0,0.0,0.0,0.0,0.0,0.0,0.0,0.0,0.0,0.0,0.0,0.0,0.0,0.0,0.0,0.0,0.0,0.0,0.0,0.0,0.0,0.0,0.0,0.0,0.0,0.0,0.0,0.0,0.0,0.0,0.0,0.0,0.0,0.0,0.0,0.0,0.0,0.0,0.0,0.0,0.0,0.0,0.0,0.0,0.0,0.0,0.0,0.0,0.0,0.0,0.0,0.0,0.0,0.0,0.0,0.0,0.0,0.0,0.0,0.0,0.0,0.0,0.0,0.0,0.0,0.0,0.0,0.0,0.0,0.0,0.0,0.0,0.0,0.0,0.0,0.0,0.0,0.0,0.0,0.0,0.0,0.0,0.0,0.0,0.0,0.0,0.0,0.0,0.0,0.0,0.0,0.0,0.0,0.0,0.0,0.0,0.0,0.0,1.1428,1.1735,1.1563,1.1373,1.0893,1.0009,0.9663,0.9168,0.8426,0.8333,0.0,0.0,0.0,0.0,0.0,0.0,0.0,0.0,0.0,0.0,0.0,0.0,0.0,0.0,0.0,0.0,0.0,0.0,0.0,0.0,0.0,0.0,0.0,0.0,0.0,0.0,0.0,0.0,0.0,0.0,0.0,0.0,0.0,0.0,0.0,0.0,0.0,0.0,0.0,0.0,0.0,0.0,0.0,0.0,0.0,0.0,0.0,0.0,0.0,0.0,0.0,0.0,0.0,0.0,0.0,0.0,0.0,0.0,0.0,0.0,0.0,0.0,0.0,0.0,0.0,0.0,0.0,0.0,0.0,0.0,0.0,0.0,0.0,0.0,0.0,0.0,0.0,0.0,0.0,0.0,0.0,0.0,0.0,0.0,0.0,0.0,0.0,0.0,0.0,0.0,0.0,0.0,0.0,0.0,0.0,0.0,0.0,0.0,0.0,0.0,0.0,0.0,1.0994,1.0944,0.0,1.0879,1.0673,0.9772,0.9481,0.9043,0.834,0.0,0.0,0.0,0.0,0.0,0.0,0.0,0.0,0.0,0.0,0.0,0.0,0.0,0.0,0.0,0.0,0.0,0.0,0.0,0.0,0.0,0.0,0.0,0.0,0.0,0.0,0.0,0.0,0.0,0.0,0.0,0.0,0.0,0.0,0.0,0.0,0.0,0.0,0.0,0.0,0.0,0.0,0.0,0.0,0.0,0.0,0.0,0.0,0.0,0.0,0.0,0.0,0.0,0.0,0.0,0.0,0.0,0.0,0.0,0.0,0.0,0.0,0.0,0.0,0.0,0.0,0.0,0.0,0.0,0.0,0.0,0.0,0.0,0.0,0.0,0.0,0.0,0.0,0.0,0.0,0.0,0.0,0.0,0.0,0.0,0.0,0.0,0.0,0.0,0.0,0.0,0.0,0.0,0.0,0.0,0.0,0.0,0.0,0.0,0.0,0.0,0.0,1.0966,1.0512,1.0155,0.0,1.0116,1.0035,0.9373,0.9088,0.875,0.8297,0.0,0.0,0.0,0.0,0.0,0.0,0.0,0.0,0.0,0.0,0.0,0.0,0.0,0.0,0.0,0.0,0.0,0.0,0.0,0.0,0.0,0.0,0.0,0.0,0.0,0.0,0.0,0.0,0.0,0.0,0.0,0.0,0.0,0.0,0.0,0.0,0.0,0.0,0.0,0.0,0.0,0.0,0.0,0.0,0.0,0.0,0.0,0.0,0.0,0.0,0.0,0.0,0.0,0.0,0.0,0.0,0.0,0.0,0.0,0.0,0.0,0.0,0.0,0.0,0.0,0.0,0.0,0.0,0.0,0.0,0.0,0.0,0.0,0.0,0.0,0.0,0.0,0.0,0.0,0.0,0.0,0.0,0.0,0.0,0.0,0.0,0.0,0.0,0.0,0.0,0.0,0.0,0.0,0.0,0.0,0.0,0.0,0.0,0.0,0.0,0.0,0.0,1.1042,1.0099,0.9405,0.9124,0.8927,0.8712,0.8519,0.8312,0.8195,0.0,0.0,0.0,0.0,0.0,0.0,0.0,0.0,0.0,0.0,0.0,0.0,0.0,0.0,0.0,0.0,0.0,0.0,0.0,0.0,0.0,0.0,0.0,0.0,0.0,0.0,0.0,0.0,0.0,0.0,0.0,0.0,0.0,0.0,0.0,0.0,0.0,0.0,0.0,0.0,0.0,0.0,0.0,0.0,0.0,0.0,0.0,0.0,0.0,0.0,0.0,0.0,0.0,0.0,0.0,0.0,0.0,0.0,0.0,0.0,0.0,0.0,0.0,0.0,0.0,0.0,0.0,0.0,0.0,0.0,0.0,0.0,0.0,0.0,0.0,0.0,0.0,0.0,0.0,0.0,0.0,0.0,0.0,0.0,0.0,0.0,0.0,0.0,0.0,0.0,0.0,0.0,0.0,0.0,0.0,0.0,0.0,0.0,0.0,0.0,0.0,0.0,0.0,1.1882,1.0453,0.9405,0.9124,0.8927,0.8712,0.8519,0.7884,0.769,0.8163,0.0,0.0,0.0,0.0,0.0,0.0,0.0,0.0,0.0,0.0,0.0,0.0,0.0,0.0,0.0,0.0,0.0,0.0,0.0,0.0,0.0,0.0,0.0,0.0,0.0,0.0,0.0,0.0,0.0,0.0,0.0,0.0,0.0,0.0,0.0,0.0,0.0,0.0,0.0,0.0,0.0,0.0,0.0,0.0,0.0,0.0,0.0,0.0,0.0,0.0,0.0,0.0,0.0,0.0,0.0,0.0,0.0,0.0,0.0,0.0,0.0,0.0,0.0,0.0,0.0,0.0,0.0,0.0,0.0,0.0,0.0,0.0,0.0,0.0,0.0,0.0,0.0,0.0,0.0,0.0,0.0,0.0,0.0,0.0,0.0,0.0,0.0,0.0,0.0,0.0,0.0,0.0,0.0,0.0,0.0,0.0,0.0,0.0,0.0,0.0,0.0,0.0,1.2238,1.0649,0.9434,0.9129,0.8938,0.8738,0.8475,0.7682,0.7356,0.7732,0.0,0.0,0.0,0.0,0.0,0.0,0.0,0.0,0.0,0.0,0.0,0.0,0.0,0.0,0.0,0.0,0.0,0.0,0.0,0.0,0.0,0.0,0.0,0.0,0.0,0.0,0.0,0.0,0.0,0.0,0.0,0.0,0.0,0.0,0.0,0.0,0.0,0.0,0.0,0.0,0.0,0.0,0.0,0.0,0.0,0.0,0.0,0.0,0.0,0.0,0.0,0.0,0.0,0.0,0.0,0.0,0.0,0.0,0.0,0.0,0.0,0.0,0.0,0.0,0.0,0.0,0.0,0.0,0.0,0.0,0.0,0.0,0.0,0.0,0.0,0.0,0.0,0.0,0.0,0.0,0.0,0.0,0.0,0.0,0.0,0.0,0.0,0.0,0.0,0.0,0.0,0.0,0.0,0.0,0.0,0.0,0.0,0.0,0.0,0.0,0.0,0.0,1.2221,1.0684,0.9472,0.9131,0.8985,0.8769,0.8431,0.7619,0.7114,0.7095,0.0,0.0,0.0,0.0,0.0,0.0,0.0,0.0,0.0,0.0,0.0,0.0,0.0,0.0,0.0,0.0,0.0,0.0,0.0,0.0,0.0,0.0,0.0,0.0,0.0,0.0,0.0,0.0,0.0,0.0,0.0,0.0,0.0,0.0,0.0,0.0,0.0,0.0,0.0,0.0,0.0,0.0,0.0,0.0,0.0,0.0,0.0,0.0,0.0,0.0,0.0,0.0,0.0,0.0,0.0,0.0,0.0,0.0,0.0,0.0,0.9308,0.0,0.0,0.0,0.0,0.0,0.0,0.0,0.0,0.0,0.0,0.0,0.0,0.0,0.0,0.0,0.0,0.0,0.0,0.0,0.0,0.0,0.0,0.0,0.0,0.0,0.0,0.0,0.0,0.0,0.0,0.0,0.0,0.0,0.0,0.0,0.0,0.0,0.0,0.0,0.0,0.0,1.2221,1.0684,0.9478,0.9139,0.8979,0.8792,0.8497,0.7264,0.6671,0.707,0.6213,0.0,0.0,0.0,0.0,0.0,0.0,0.0,0.0,0.0,0.0,0.0,0.0,0.0,0.0,0.0,0.0,0.0,0.0,0.0,0.0,0.0,0.0,0.0,0.0,0.0,0.0,0.0,0.0,0.0,0.0,0.0,0.0,0.0,0.0,0.0,0.0,0.0,0.0,0.0,0.0,0.0,0.0,0.0,0.0,0.0,0.0,0.0,0.0,0.0,0.0,0.0,0.0,0.0,0.0,0.0,0.0,0.0,0.0,0.0,0.0,0.9272,0.0,0.0,0.0,0.0,0.0,0.0,0.0,0.0,0.0,0.0,0.0,0.0,0.0,0.0,0.0,0.0,0.0,0.0,0.0,0.0,0.0,0.0,0.0,0.0,0.0,0.0,0.0,0.0,0.0,0.0,0.0,0.0,0.0,0.0,0.0,0.0,0.0,0.0,0.0,0.0,1.2225,1.0647,0.9443,0.9126,0.8984,0.8801,0.857,0.7466,0.6868,0.7089,0.6078,0.0,0.0,0.0,0.0,0.0,0.0,0.0,0.0,0.0,0.0,0.0,0.0,0.0,0.0,0.0,0.0,0.0,0.0,0.0,0.0,0.0,0.0,0.0,0.0,0.0,0.0,0.0,0.0,0.0,0.0,0.0,0.0,0.0,0.0,0.0,0.0,0.0,0.0,0.0,0.0,0.0,0.0,0.0,0.0,0.0,0.0,0.0,0.0,0.0,0.0,0.0,0.0,0.0,1.1795,1.1808,1.1876,1.1863,1.1776,1.155,1.0815,1.0301,0.9913,0.9182,0.0,0.0,0.0,0.0,0.0,0.0,0.0,0.0,0.0,0.0,0.0,0.0,0.0,0.0,0.0,0.0,0.0,0.0,0.0,0.0,0.0,0.0,0.0,0.0,1.3937,1.386,0.0,0.0,0.0,0.0,0.0,0.0,0.0,0.0,0.0,0.0,0.0,0.0,1.1984,1.0517,0.9376,0.9124,0.899,0.8835,0.8636,0.7834,0.7266,0.7104,0.6407,0.6233,0.0,0.0,0.0,0.0,0.0,0.0,0.0,0.0,0.0,0.0,0.0,0.0,0.0,0.0,0.0,0.0,0.0,0.0,0.0,0.0,0.0,0.0,0.0,0.0,0.0,0.0,0.0,0.0,0.0,0.0,0.0,0.0,1.1512,1.1528,0.0,0.0,0.0,0.0,0.0,0.0,0.0,0.0,0.0,0.0,0.0,0.0,0.0,1.1544,1.2122,1.2221,1.2876,1.4082,1.4073,1.4375,1.492,1.491,1.4578,1.3904,1.3173,0.0,1.0655,1.0482,0.0,0.0,0.0,0.0,0.0,0.0,0.0,0.0,0.0,0.0,0.0,0.0,0.0,0.0,0.0,0.0,0.0,0.0,0.0,0.0,0.0,0.0,1.5218,1.4304,1.3901,1.3713,0.0,1.375,1.4263,1.5623,1.608,0.0,0.0,0.0,0.0,0.0,0.0,0.0,1.1103,1.0059,0.9329,0.9119,0.9036,0.8908,0.8702,0.7949,0.7373,0.7113,0.6406,0.6196,0.6602,0.678,0.0,0.0,0.0,0.0,0.0,0.0,0.0,0.0,0.0,0.0,0.0,0.0,0.0,0.0,0.0,0.0,0.0,0.0,0.0,0.0,0.0,0.0,0.0,0.0,0.0,0.0,0.0,0.0,0.0,1.0183,1.0294,1.0667,1.0332,1.0416,0.0,0.0,0.0,0.0,0.0,0.0,0.0,0.0,0.0,1.1996,1.2777,1.3321,1.3586,1.4037,1.4551,1.5117,1.5117,1.5271,1.5568,1.5566,1.538,1.505,1.4698,1.4124,1.3297,1.1543,1.1205,1.1861,0.0,0.0,0.0,0.0,1.5072,1.5488,1.5458,1.5653,0.0,1.5893,0.0,0.0,0.0,0.0,0.0,0.0,0.0,0.0,0.0,0.0,1.5978,1.5006,1.4565,1.4225,1.3715,1.3552,1.3874,0.0,1.5714,1.6247,1.6784,0.0,0.0,0.0,0.0,1.1774,1.0806,0.9899,0.9281,0.9123,0.901,0.8883,0.8708,0.8312,0.7942,0.7685,0.6973,0.6738,0.7142,0.6825,0.7084,0.0,0.0,0.0,0.0,0.0,0.0,0.0,0.0,0.0,0.0,0.0,0.0,0.0,0.0,0.0,0.0,0.0,0.0,0.0,0.0,0.0,0.0,0.0,0.0,0.0,0.0,0.0,0.0,0.9759,0.9847,1.0315,1.0255,1.0498,0.0,0.0,0.0,0.0,0.0,0.0,1.193,1.2642,1.3102,1.3243,1.4319,1.4944,1.5065,1.5661,1.6024,1.6153,1.6153,1.6153,1.6153,1.6153,1.6052,1.5888,1.5836,1.5683,1.5323,1.2994,1.2336,1.2828,1.3468,1.4233,1.5062,1.5761,1.6299,1.6689,1.6659,1.677,1.6924,1.6926,0.0,1.7203,1.7348,0.0,0.0,0.0,0.0,1.7964,1.7675,1.7319,1.6795,1.5864,1.5394,1.4954,1.409,1.3794,1.3862,0.0,1.5192,1.5744,1.6111,0.0,0.0,0.0,0.0,1.1522,1.0395,0.9669,0.9222,0.9091,0.8974,0.8849,0.8706,0.8577,0.8383,0.8111,0.7562,0.7341,0.7587,0.7107,0.7064,0.7571,0.0,0.0,0.0,0.0,0.0,0.0,0.0,0.0,0.0,0.0,0.0,0.0,0.0,0.0,0.0,0.0,0.0,0.0,0.0,0.0,0.0,0.0,0.0,0.0,0.0,0.0,0.0,0.0,0.0,1.1148,1.0963,0.0,0.0,0.0,0.0,1.2295,1.2353,1.2662,1.3364,1.4093,1.4805,1.5503,1.5605,1.5954,1.658,1.6631,1.6993,1.7687,1.7687,1.7687,1.7687,1.7687,1.7304,1.6643,1.6643,1.6206,1.5487,1.5257,1.5164,1.5158,1.5308,1.5868,1.6607,1.6772,1.7817,1.9109,1.8984,1.9394,1.998,1.9983,2.0152,2.0423,2.0745,2.105,0.0,0.0,2.107,2.0329,1.9505,1.8614,1.7696,1.6766,1.6224,1.5714,1.4904,1.4584,1.4453,0.0,1.4593,1.4922,1.5695,0.0,1.4426,1.3003,1.2168,1.1123,0.9487,0.9229,0.9147,0.9016,0.8942,0.8849,0.8706,0.8577,0.8383,0.8111,0.7941,0.7778,0.7601,0.7499,0.7467,0.751,0.7549,0.0,0.0,0.0,0.0,0.0,0.0,0.0,0.0,0.0,0.0,0.0,0.0,0.0,0.0,0.0,0.0,0.0,0.0,0.0,0.0,0.0,0.0,0.0,0.0,0.0,0.0,0.0,0.0,1.2504,1.2794,0.0,1.4178,1.402,1.4025,1.4422,1.447,1.4572,1.4848,1.5557,1.6073,1.6347,1.6806,1.7168,1.7405,1.7405,1.754,1.78,1.78,1.78,1.78,1.78,1.7653,1.7405,1.7405,1.7242,1.7023,1.7507,1.7113,1.6269,1.6872,1.763,1.8452,1.9061,1.9635,2.0119,2.0079,2.0211,2.0406,2.0494,2.0616,2.0773,2.1077,2.1326,2.1539,2.1696,2.1176,2.0502,2.0245,1.9447,1.8483,1.7591,1.7055,1.6419,1.5085,1.464,1.4356,1.3879,1.3846,1.4008,1.4328,1.4205,1.3711,1.272,1.2366,1.1647,1.0057,0.9798,0.9561,0.8995,0.888,0.8788,0.8645,0.8544,0.8399,0.8181,0.7993,0.7808,0.7601,0.7916,0.7879,0.7443,0.8275,0.8627,0.0,0.0,0.0,0.0,0.0,0.0,0.0,0.0,0.0,0.0,0.0,0.0,0.0,0.0,0.0,0.0,0.0,0.0,0.0,0.0,0.0,0.0,0.0,0.0,0.0,0.0,1.3311,1.3964,1.4324,1.4736,1.5341,1.5402,1.5463,1.5585,1.5837,1.5977,1.5977,1.6671,1.7077,1.7077,1.7552,1.78,1.78,1.78,1.7811,1.7822,1.7822,1.785,1.7861,1.7845,1.785,1.7861,1.7845,1.7861,1.7974,1.8791,1.871,1.8105,1.8667,1.9405,2.0246,2.0871,2.1266,2.147,2.1423,2.1393,2.1393,2.1505,2.1632,2.1781,2.1977,2.2194,2.2409,2.2502,2.1789,2.0972,2.1023,2.0069,1.895,1.8357,1.7883,1.7137,1.5518,1.5015,1.4594,1.3616,1.3454,1.3496,1.3558,1.3564,1.3326,1.2585,1.2461,1.1994,1.0668,1.0449,1.0102,0.9286,0.913,0.8932,0.8592,0.846,0.8327,0.8147,0.8164,0.8086,0.7873,0.8377,0.8453,0.8018,0.9217,0.984,0.9855,0.0,0.0,0.0,0.0,0.0,0.0,0.0,0.0,0.0,0.0,0.0,0.0,0.0,0.0,0.0,0.0,0.0,0.0,0.0,0.0,0.0,0.0,0.0,1.4805,1.4718,1.4876,1.5467,1.5441,1.5395,1.5455,1.5466,1.5516,1.5658,1.6333,1.6727,1.6727,1.7405,1.78,1.78,1.78,1.78,1.78,1.78,1.7822,1.7894,1.7894,1.7939,1.7994,1.7933,1.7939,1.7994,1.7933,1.7999,1.8204,1.9081,1.996,2.0742,2.0667,2.1173,2.1967,2.2105,2.2611,2.3199,2.3052,2.3052,2.3138,2.3181,2.3389,2.3621,2.3694,2.3896,2.4127,2.418,2.3092,2.1896,2.1892,2.0507,1.9078,1.9009,1.8628,1.7835,1.6235,1.5716,1.5145,1.3773,1.3433,1.3416,1.3483,1.3508,1.3265,1.2544,1.2421,0.0,1.1233,1.1078,1.072,0.9915,0.9707,0.9337,0.8608,0.838,0.8202,0.8072,0.8474,0.8637,0.8445,0.8945,0.9242,0.9294,1.0282,1.1175,1.1956,0.0,0.0,0.0,0.0,0.0,0.0,0.0,0.0,0.0,0.0,0.0,0.0,0.0,0.0,0.0,0.0,0.0,0.0,0.0,0.0,0.0,0.0,1.4667,1.4719,1.5485,1.6106,1.6285,1.6653,1.6919,1.6987,1.6998,1.7048,1.7186,1.7383,1.7501,1.7501,1.7687,1.78,1.78,1.78,1.78,1.78,1.78,1.7822,1.7894,1.7894,1.7939,1.7994,1.7933,1.7939,1.7994,1.7983,1.8345,1.905,1.9955,2.0886,2.1718,2.1756,2.2324,2.3148,2.3232,2.3371,2.3476,2.3459,2.3447,2.3475,2.3535,2.3646,2.3776,2.3881,2.4049,2.418,2.4186,2.3095,2.1879,2.1835,2.0469,1.9052,1.8896,1.8126,1.7144,1.6057,1.5205,1.4418,1.3591,1.3413,1.3438,1.3555,1.3536,1.3436,1.3231,1.3107,0.0,1.1923,1.1721,1.1333,1.0472,1.0258,1.0081,0.9825,0.967,0.9512,0.938,0.9407,0.9313,0.9058,0.9525,1.028,1.1352,1.2262,1.2929,0.0,0.0,0.0,0.0,0.0,0.0,0.0,0.0,0.0,0.0,0.0,0.0,0.0,0.0,0.0,0.0,0.0,0.0,0.0,0.0,0.0,0.0,1.5746,1.6104,1.6455,1.6562,1.6694,1.6992,1.7308,1.7534,1.7589,1.7601,1.7652,1.7789,1.78,1.78,1.78,1.78,1.78,1.78,1.78,1.78,1.78,1.78,1.785,1.7939,1.7939,1.7994,1.8082,1.8004,1.8042,0.0,1.8133,1.8664,1.9626,2.0532,2.1483,0.0,0.0,0.0,0.0,0.0,2.3721,2.3685,2.3678,2.3682,2.3691,2.3758,2.386,2.3927,2.3986,2.4094,2.4194,2.4181,2.3024,2.1803,2.1767,2.0396,1.8975,1.8797,1.7896,1.6816,1.5947,1.4991,1.4124,1.3527,1.3379,0.0,1.351,1.3482,1.3458,1.3463,1.3333,1.3075,1.2535,1.2362,1.1925,1.1024,1.0795,1.0543,1.0155,0.9983,0.0,0.0,0.0,0.9877,0.989,1.0464,0.0,0.0,0.0,1.421,1.4693,0.0,0.0,0.0,1.496,1.5221,0.0,0.0,0.0,0.0,0.0,0.0,0.0,0.0,0.0,0.0,0.0,0.0,0.0,0.0,0.0,0.0,1.7472,1.8263,1.901,1.789,1.7205,1.7808,1.7814,1.7751,1.7734,1.7746,1.7792,1.7912,1.7918,1.7952,1.8036,0.0,0.0,0.0,0.0,1.7918,1.7918,1.7834,1.7861,1.7994,1.7994,1.8076,1.8211,1.8139,1.8196,1.832,1.8325,1.8981,2.0115,2.0893,2.1863,2.2912,2.345,2.3692,2.374,2.3811,2.3837,2.3813,2.3836,0.0,0.0,2.3912,2.4006,2.4089,2.4016,2.4079,2.4156,2.4084,2.2978,2.1765,2.1661,2.0318,1.8919,1.8674,1.77,1.6613,1.5829,1.4862,1.4,1.3476,1.3312,1.332,1.3451,1.3489,1.3502,1.3494,1.3449,1.3359,1.3225,1.3015,1.2538,1.1685,0.0,0.0,1.0142,0.991,0.9763,0.9686,0.9986,1.0333,1.0703,1.1535,1.2367,1.3107,1.4154,1.5053,1.5799,1.5919,1.6011,1.6066,1.5804,1.5788,0.0,0.0,0.0,0.0,0.0,0.0,0.0,0.0,0.0,0.0,0.0,0.0,0.0,0.0,0.0,1.7254,1.8095,1.8901,1.9693,1.9544,1.9395,1.9517,1.9475,1.9215,1.8627,1.8572,1.8602,1.8685,1.8696,1.8955,1.9535,1.9562,1.9562,1.9562,1.9006,1.8696,1.8696,1.8093,1.7861,1.7994,0.0,0.0,1.8284,1.8211,1.8282,1.8465,1.8457,1.9403,2.0964,2.1257,2.2345,2.3835,2.3956,2.4011,2.4021,2.4049,2.4001,2.3961,2.4024,2.4044,2.4041,2.4113,2.4113,2.4089,2.4016,2.3986,0.0,2.3881,2.3122,2.217,2.1417,2.0349,1.9243,1.835,1.6922,1.5699,1.5444,1.4262,1.3233,1.3175,1.3146,1.3303,1.3868,1.4045,1.413,1.4125,1.443,1.4624,1.4545,1.3791,1.3173,1.2887,1.2087,1.1487,1.1215,1.1116,1.098,1.0796,1.0662,1.0636,1.0777,1.1961,1.2835,1.3248,1.4571,1.5425,1.5799,1.5827,1.587,1.5942,1.6095,1.6299,0.0,0.0,0.0,0.0,0.0,0.0,0.0,0.0,0.0,0.0,0.0,1.4157,1.5001,0.0,1.7197,1.8877,1.9564,2.0191,2.1032,2.115,2.086,2.0098,1.9943,1.9767,1.9427,1.9399,1.9401,1.9456,1.9426,1.9553,1.9927,1.9912,1.991,1.991,1.9584,1.9401,1.9401,1.8701,1.8427,1.8546,1.8203,1.8155,1.8342,1.8355,1.8462,1.8642,1.8684,1.9739,2.1467,2.2403,2.3309,2.4099,2.4099,2.4079,2.4059,2.4059,2.3994,2.3894,2.3945,2.3945,2.3953,2.3986,2.3981,2.3945,2.3868,2.3805,2.3718,2.3587,2.292,2.2024,2.1084,2.0104,1.9088,1.8053,1.656,1.5307,1.5176,1.3984,1.2965,1.3031,1.3322,1.3646,1.394,1.4496,1.4821,1.4596,1.4697,1.4742,1.4627,1.4033,1.3465,1.2942,1.2326,1.1768,1.1342,1.1155,1.1125,1.1288,1.0886,1.0854,1.1285,1.2363,1.3224,1.3839,1.4942,1.5602,1.5799,1.5799,1.6015,1.6397,1.6579,1.6835,0.0,0.0,0.0,0.0,0.0,0.0,0.0,0.0,1.4189,1.413,1.4441,1.5141,1.6481,1.7296,1.8392,2.0364,2.0972,2.1457,2.2205,2.2296,2.1833,2.0584,2.0407,2.0326,2.024,2.0229,2.0225,2.0228,2.0157,2.0179,2.033,2.0281,2.0224,2.0224,2.0156,2.0111,2.0111,1.9442,1.9179,1.9321,1.8795,1.8665,1.8916,1.8991,1.914,1.934,1.9561,2.0508,2.1963,2.3537,2.4123,2.4064,2.4054,2.3991,2.393,2.3955,2.3884,2.3786,2.3776,2.3761,2.3752,2.3753,2.3753,2.3739,2.3649,2.3543,2.3424,2.3217,2.2651,2.1837,2.0738,1.9837,1.8937,1.7773,1.6414,1.5304,1.5033,1.4102,1.3301,1.3193,1.3709,1.4161,1.4196,1.4872,1.5289,1.4973,1.4896,1.4797,1.4609,1.4212,1.3668,1.2933,1.2483,1.1991,1.1371,1.1107,1.1178,1.1663,1.1265,1.1326,1.202,1.288,1.368,1.4423,1.5197,1.5713,1.5964,1.5964,1.636,1.706,1.7159,1.7393,1.0546,1.1613,1.2644,1.2866,1.3482,1.3977,0.0,0.0,1.4557,1.4604,1.5674,1.6725,1.714,1.8571,1.988,2.0505,2.1335,2.1979,2.2265,2.2296,2.2245,2.2053,2.2036,2.1782,2.1133,2.1072,2.1072,2.1072,2.0952,2.119,2.1897,2.1816,2.1747,2.1747,2.119,2.0888,2.0888,2.0212,1.9979,2.0168,2.0153,2.0343,2.0703,2.0835,2.1006,2.1233,2.2081,2.2525,2.2738,2.37,2.4049,2.3917,2.3865,2.3755,2.366,2.3787,2.3779,2.3692,2.3649,2.3628,2.3622,2.361,2.3585,2.3503,2.3383,2.3163,2.2933,2.273,2.253,2.1963,2.0324,1.9807,1.9296,1.7564,1.6568,1.5805,1.507,1.4886,1.464,1.3931,1.4298,1.4816,1.5168,1.5138,1.5119,1.5305,1.562,1.5775,1.5578,1.4742,1.4054,1.3778,1.2934,1.2304,1.2096,1.1984,1.2074,1.2367,1.2444,1.2602,1.2942,1.3732,1.4303,1.4569,1.5247,1.5921,1.6599,1.6599,1.6943,1.761,1.78,1.8037,1.1702,1.2458,0.0,0.0,1.4082,1.4821,1.4695,1.5426,1.6152,1.6298,1.6883,1.7597,1.8385,1.9332,2.0255,0.0,2.1604,2.2001,2.2218,2.2233,2.2264,2.2296,2.2296,2.2185,2.187,2.1837,2.1837,2.1837,2.1675,2.173,2.2065,2.1957,2.1875,2.1875,2.1683,2.1572,2.1572,2.1022,2.0835,2.0992,2.0673,2.0712,2.1063,2.1164,2.1326,2.1616,2.2506,2.2858,2.2861,2.361,2.384,2.3725,2.3653,2.3491,2.333,2.3548,2.352,2.3354,2.333,2.3254,2.3188,2.3152,2.3121,2.3047,2.2849,2.2632,2.246,2.2247,2.2115,2.1683,2.0043,1.9598,1.9141,1.7447,1.6502,1.5889,1.5557,1.5188,1.481,1.4433,1.4756,1.5086,1.5053,1.5024,1.4993,1.4935,1.5286,1.5455,1.5263,1.4702,1.4059,1.339,1.2586,1.2241,1.2577,1.233,1.2445,1.3102,1.2962,1.317,1.3836,1.4243,1.4882,1.575,1.6084,1.6576,1.7279,1.7279,1.7631,1.829,1.8455,1.89,1.2596,0.0,0.0,1.3939,1.4914,1.5823,1.5799,1.6638,1.7493,1.7737,1.7898,1.8343,1.9442,1.9838,2.0314,2.1351,2.17,2.1901,2.2065,2.2097,2.2101,2.2159,2.2166,2.2173,2.2194,2.2268,2.2296,2.2296,2.2156,2.2051,2.2051,2.1928,2.1855,2.1855,2.1986,2.2051,2.2051,2.1749,2.1681,2.1844,2.1467,2.1474,2.1827,2.1916,2.2049,2.224,2.2874,2.3105,2.3072,2.3552,2.3642,2.3475,2.34,2.3199,2.2971,2.3169,2.3139,2.3003,2.3001,2.2902,2.2816,2.2734,2.2668,2.2564,2.2279,2.2098,2.1922,2.1711,2.1669,2.1302,1.9755,1.9367,1.8973,1.74,1.6615,1.6165,1.5957,1.5606,1.5265,1.4935,1.5158,1.5284,1.4896,1.4795,1.4651,1.4374,1.4521,1.4656,1.4635,1.4358,1.3883,1.3126,1.26,1.2587,1.3266,1.2901,1.3061,1.4035,1.3724,1.3934,1.4942,1.5072,1.5684,1.6872,1.6949,1.7317,1.7983,1.7983,1.8311,1.8972,1.9133,1.9623,0.0,0.0,1.4978,1.5112,1.6054,1.6978,1.7032,1.7539,1.8075,1.8399,1.8627,1.9086,2.009,2.0065,2.0199,2.1156,2.1526,2.1723,2.1805,2.1803,2.1803,2.1803,2.182,2.1833,0.0,2.2142,2.2296,2.2296,2.2225,2.2183,2.2183,2.2075,2.1982,2.1982,2.2113,2.2183,2.2183,2.2304,2.2508,2.2762,2.2938,2.323,2.3628,2.3769,2.3793,2.3733,2.3751,2.373,2.3669,2.3627,2.3447,2.3205,2.3076,2.2855,2.2605,2.2555,2.2646,2.2803,2.2738,2.2665,2.2599,2.2535,2.233,2.2065,2.1796,2.1583,2.1378,2.1103,2.1166,2.0962,1.9414,1.9159,1.8937,1.7448,1.7079,1.6844,1.6068,1.6344,1.6441,1.5467,1.5508,1.5521,1.4993,1.4464,1.4016,1.3682,1.3463,1.3505,1.3871,1.3744,1.3551,1.3399,1.337,1.3633,1.4297,1.3977,1.4206,1.5282,1.497,1.5254,1.6391,1.6444,1.6832,1.7652,1.7675,1.7997,1.8664,1.8664,1.9016,1.9678,1.9871,2.0089,0.0,0.0,1.6045,1.6267,1.691,1.7532,1.7759,1.8296,1.8702,1.8587,1.8698,1.8844,1.8945,1.9006,1.9338,2.0223,2.0473,2.078,2.1384,2.1472,2.1494,2.1584,2.1685,0.0,0.0,0.0,0.0,2.2104,2.2039,2.2017,2.2051,2.1986,2.1955,2.2006,2.212,2.2228,2.2278,2.2439,2.2665,2.2944,2.3271,2.3493,2.3641,2.3732,2.373,2.3658,2.362,2.3566,2.3482,2.3277,2.3096,2.2925,2.279,2.2592,2.2384,2.2287,2.2193,2.2144,2.2215,2.2165,2.2053,2.1937,2.1781,2.1584,2.1268,2.1095,2.0966,2.0844,2.0974,2.0965,2.003,1.9878,1.9589,1.8116,1.7664,1.7339,1.6546,1.6377,1.6235,1.567,1.5359,1.4992,1.447,1.3916,1.3565,1.3548,1.3742,1.3916,1.3965,1.4301,1.4485,1.4405,1.4396,1.4564,1.497,1.4912,1.5193,1.5946,1.5992,1.6269,1.6878,1.7032,1.7479,1.8287,1.8346,1.8687,1.9354,1.9354,1.9474,1.9708,1.9911,2.0111,0.0,1.6442,1.7014,1.7518,1.7907,1.8235,1.8528,1.8722,1.8791,1.8631,1.8341,1.8134,1.8175,1.8168,1.8489,1.9546,1.9782,2.0098,2.0895,2.1014,2.1055,2.1206,2.13,0.0,0.0,0.0,0.0,2.1998,2.1962,2.1986,2.2075,2.2025,2.2039,2.2111,2.2187,2.2268,2.2338,2.2515,2.2786,2.3181,2.3487,2.3641,2.3635,2.3578,2.3516,2.3418,2.333,2.3247,2.3174,2.2965,2.2816,2.2679,2.2555,2.2363,2.2135,2.1955,2.1725,2.1546,2.1794,2.1773,2.1602,2.1488,2.1301,2.1063,2.0836,2.072,2.0645,2.0635,2.0859,2.0966,2.0336,2.0228,1.9983,1.869,1.8206,1.7827,1.6966,1.6509,1.6096,1.5529,1.4977,1.4446,1.3912,1.3535,1.3351,1.3482,1.4093,1.4465,1.4237,1.4648,1.4942,1.4906,1.4906,1.5069,1.5473,1.5379,1.5605,1.6362,1.639,1.6689,1.7317,1.7547,1.8058,1.8936,1.9018,1.928,1.9708,1.9708,1.9708,1.9708,1.9866,2.0017,1.6945,1.7562,1.7969,1.884,1.906,1.9113,1.928,1.8852,1.8437,1.8524,1.7663,1.7106,0.0,0.0,1.7736,1.9114,1.9419,1.9724,2.0385,2.0533,2.0607,0.0,0.0,0.0,0.0,0.0,0.0,2.202,0.0,2.2061,2.2176,2.22,2.2218,2.2296,2.2296,2.2338,2.2398,2.2562,2.2921,2.3498,2.3634,2.3689,2.3672,2.3412,2.3211,2.3082,2.2933,2.2855,2.2784,2.2712,2.2605,2.2474,2.2345,2.212,2.1862,2.1592,2.1276,2.1055,2.1486,2.1464,2.1254,2.1175,2.0901,2.0572,2.0495,2.045,2.0399,2.0485,2.0802,2.0959,2.0339,2.0255,2.0107,1.916,1.8725,1.8252,1.731,1.6735,1.6132,1.5151,1.4496,1.3942,1.3429,1.3356,1.3414,1.354,1.4518,1.5093,1.4698,1.4833,1.4981,1.4981,1.4981,1.5247,1.5894,1.5474,1.5595,1.6576,1.6284,1.6597,1.7778,1.8023,1.8598,1.9574,1.9654,1.9708,1.9708,1.9708,1.9708,1.9708,1.9771,1.9875,1.8075,1.9065,1.9905,1.9895,1.989,1.9836,1.9577,1.9025,1.8429,1.8022,1.7388,1.6796,0.0,0.0,0.0,1.8219,1.8819,0.0,2.0239,2.0911,0.0,0.0,0.0,2.2649,2.282,2.3104,0.0,0.0,2.2193,2.1913,2.2037,2.2051,2.2125,2.2289,2.2296,2.2359,2.2474,2.2861,2.3163,2.343,2.3504,2.3493,2.3395,2.3187,2.2996,2.2874,2.2738,2.2665,2.2639,2.2511,2.2419,2.2321,2.2147,2.1935,2.1715,2.1457,2.1135,2.0852,2.0811,2.0754,2.0687,2.0637,2.051,2.0349,2.0246,2.0282,2.041,2.053,2.0901,2.1214,2.1044,2.0988,2.0694,1.961,1.9066,1.8503,1.741,1.6876,1.6437,1.584,1.4994,1.4284,1.3946,1.4055,1.4244,1.4367,1.5103,1.5569,1.5364,1.5782,1.6084,1.6084,1.6084,1.62,1.6471,1.6376,1.6504,1.7018,1.7086,1.7428,1.8136,1.8513,1.8936,1.9441,1.9608,1.9708,1.9708,1.9708,1.9708,1.9708,1.9771,1.9815,1.9754,2.045,2.0905,2.0798,2.0548,2.013,1.9388,1.8691,1.8021,1.7391,1.6803,0.0,0.0,0.0,0.0,0.0,0.0,0.0,2.0465,2.1089,2.1615,0.0,2.2723,0.0,2.3336,2.3693,2.3769,0.0,2.2792,2.2317,2.2092,2.2099,2.2149,2.2296,2.2296,2.2387,2.2549,2.2882,2.3168,2.3354,2.336,2.3342,2.3289,2.3008,2.2816,2.2705,0.0,2.2467,2.246,2.2359,2.2258,2.2156,2.1943,2.1738,2.148,2.1119,2.0811,2.0544,2.0289,2.0161,2.0152,2.0239,2.0185,2.0072,2.0107,2.0213,2.0393,2.0629,2.0934,2.1206,2.1206,2.1127,2.0797,1.992,1.9415,1.8805,1.7632,1.7037,1.6473,1.5597,1.4804,1.4205,1.3997,1.4259,1.4567,1.4758,1.5424,1.5891,1.595,1.627,1.65,1.65,1.65,1.6532,1.6609,1.6609,1.6737,1.7055,1.7313,1.77,1.8234,1.8669,1.9064,1.9385,1.959,1.9708,1.9708,1.9708,1.9708,1.9708,1.9744,1.9762,2.1517,2.1766,2.1617,2.1539,2.1094,2.032,1.899,1.8177,1.7503,1.6838,0.0,0.0,1.5828,0.0,1.7011,1.7528,0.0,1.9388,2.0716,2.1261,2.1816,2.2704,2.3179,2.351,2.3635,2.4014,2.4224,2.4199,2.3776,2.3171,2.2392,2.2257,2.2235,2.2296,2.2395,2.25,2.2596,2.2777,2.2984,2.3235,2.318,2.318,2.3211,2.2842,2.2632,2.2552,2.2387,0.0,2.2275,2.2211,2.2116,2.194,2.1745,2.1496,2.1183,2.073,2.0436,2.0218,1.9904,1.9762,1.9744,1.9969,1.994,1.9824,2.0028,2.0185,2.0373,2.0687,2.0925,2.1079,2.1031,2.0876,2.0571,2.0034,1.9584,1.8992,1.7852,1.7149,1.6363,1.5092,1.4484,1.4127,1.4003,1.4303,1.4671,1.494,1.5568,1.6087,1.6338,1.6446,1.65,1.65,1.65,1.65,1.65,1.65,1.6607,1.6876,1.7199,1.7611,1.8149,1.8615,1.9026,1.9349,1.9587,1.969,1.969,1.9699,1.9699,1.969,1.969,1.9672,2.2248,2.309,2.3559,2.2038,2.1575,2.1002,1.9136,1.8177,0.0,0.0,0.0,1.6413,1.5961,1.6834,0.0,1.7166,0.0,0.0,0.0,0.0,2.2849,0.0,0.0,0.0,0.0,0.0,0.0,0.0,0.0,2.4582,2.3181,2.2526,2.2235,2.2296,2.2943,2.3038,2.2521,2.2659,2.279,2.2893,2.2863,2.2849,2.2803,2.2629,2.2501,2.2426,2.2345,0.0,2.2221,2.2207,2.2015,2.173,2.1525,2.1214,2.0852,2.0545,2.0272,2.0032,1.9866,1.9762,1.9717,1.9747,1.9753,1.9753,1.9955,2.0148,2.0356,2.0643,2.0819,2.0877,2.0663,2.0447,2.0139,1.9491,1.9035,1.854,1.7835,1.7005,1.6223,1.5709,1.5319,1.5033,1.4899,1.4947,1.5094,1.5361,1.5742,1.6055,1.621,1.6382,1.65,1.65,1.65,1.65,1.65,1.65,1.6607,1.6876,1.7105,1.7475,1.8012,1.8422,1.8812,1.9148,1.9459,1.962,1.962,1.9672,1.9663,1.962,1.962,1.9523,2.3843,2.4246,2.4175,2.2607,2.1959,2.1081,1.8724,0.0,0.0,0.0,0.0,1.6645,1.6442,0.0,0.0,0.0,0.0,0.0,0.0,0.0,0.0,0.0,0.0,0.0,0.0,0.0,0.0,0.0,0.0,2.5119,2.3981,2.3585,2.3414,2.3444,2.3827,2.3888,2.359,2.3283,2.3175,2.3261,2.2848,2.2646,2.2639,2.2515,2.2426,2.2408,2.2331,0.0,2.22,2.2094,2.1842,2.1526,2.1324,2.0974,2.0554,2.0325,2.0098,1.9884,1.978,1.9735,1.9708,1.9708,1.9708,1.9726,1.9866,2.0008,2.0183,2.0424,2.0485,2.0453,2.0282,2.0006,1.9618,1.8983,1.8238,1.753,1.7029,1.6357,1.5755,1.549,1.5187,1.4994,1.4983,1.5108,1.5277,1.5524,1.5869,1.6155,1.6286,1.6414,1.65,1.65,1.65,1.65,1.65,1.65,1.6607,1.6876,1.7084,1.7427,1.7925,1.827,1.8601,1.8936,1.9195,1.9367,1.9446,1.9514,1.9514,1.9446,1.9446,1.9321,2.4964,2.4994,2.4421,2.302,2.2059,2.0798,1.8246,1.7553,0.0,0.0,0.0,1.6967,1.7121,0.0,0.0,0.0,0.0,0.0,0.0,0.0,0.0,0.0,0.0,0.0,0.0,0.0,0.0,0.0,0.0,0.0,2.4541,2.466,2.466,2.4498,2.466,2.4692,2.4586,2.3854,2.3522,2.3626,2.2822,2.2487,2.2535,2.2419,2.2387,2.2387,2.2324,0.0,0.0,2.1952,2.1652,2.1324,2.1111,2.0745,2.0316,2.0135,1.9957,1.9771,1.9726,1.9708,1.9708,1.9708,1.9708,1.9717,1.978,1.9875,1.999,2.0183,2.0133,2.001,1.986,1.9548,1.91,1.835,1.7363,1.6486,1.611,1.5579,1.5141,1.4983,1.4777,1.4674,1.4835,1.5131,1.5413,1.5614,1.5991,1.6275,1.6382,1.6457,1.65,1.65,1.65,1.65,1.65,1.65,1.6597,1.6833,1.7034,1.7313,1.7727,1.8012,1.8315,1.8621,1.887,1.9064,1.9185,1.9293,1.9293,1.9185,1.9157,1.9007,2.4412,2.4948,2.4873,2.2982,2.1605,2.0137,1.8005,0.0,0.0,0.0,1.7135,1.7664,1.7855,1.8441,0.0,0.0,0.0,0.0,0.0,0.0,0.0,0.0,0.0,0.0,0.0,0.0,0.0,0.0,0.0,0.0,2.4583,2.5143,2.5186,2.4515,2.516,2.5169,2.4515,2.378,2.3415,2.343,2.2663,2.2324,2.2331,2.2317,2.231,2.231,2.2303,0.0,0.0,2.184,2.1549,2.1103,2.0901,2.0537,2.0124,2.0034,1.9884,1.9717,1.9708,1.9708,1.9708,1.9708,1.9708,1.9717,1.978,1.9806,1.9857,1.9981,1.9928,1.9744,1.9369,1.9072,1.8554,1.7404,1.6493,1.5821,1.5534,1.496,1.4489,1.4466,1.4443,1.4489,1.4674,1.5142,1.5547,1.5748,1.611,1.6382,1.6392,1.6457,1.65,1.65,1.65,1.65,1.65,1.65,1.6554,1.6707,1.6857,1.7034,1.7261,1.7578,1.7858,1.8068,1.8442,1.8717,1.885,1.9045,1.9035,1.8841,1.8726,1.8528,2.4502,2.4854,2.4461,2.3274,2.1686,1.9885,1.7796,0.0,0.0,1.7045,1.7414,1.7817,1.8378,1.8705,1.8846,0.0,0.0,0.0,0.0,0.0,0.0,0.0,0.0,0.0,0.0,0.0,0.0,0.0,0.0,0.0,2.5862,2.6099,2.6133,2.582,2.6107,2.6124,2.5828,2.5084,2.4492,2.4043,2.3308,2.2733,2.2296,2.2296,2.2275,2.2233,2.2233,0.0,0.0,2.1715,2.1402,2.095,2.0704,2.0383,2.0025,1.9919,1.9797,1.9708,1.9708,1.9708,1.9708,1.9708,1.9708,1.9708,1.9735,1.9744,1.9735,1.9765,1.9623,1.9398,1.895,1.8218,1.7374,1.6482,1.5766,1.5141,1.4755,1.4281,1.394,1.4022,1.4175,1.4385,1.4754,1.53,1.5759,1.5991,1.6273,1.6457,1.6457,1.6479,1.65,1.65,1.65,1.65,1.65,1.65,1.6554,1.6686,1.675,1.6865,1.7076,1.7209,1.7403,1.77,1.7938,1.8137,1.8315,1.8479,1.8479,1.8315,1.8256,1.8125,2.3426,2.3803,2.3384,2.254,2.0933,1.9071,0.0,0.0,1.6172,1.6936,1.7338,1.7825,1.8616,1.8944,1.9131,0.0,0.0,0.0,0.0,0.0,0.0,0.0,0.0,0.0,0.0,0.0,0.0,0.0,0.0,0.0,2.7325,2.7325,2.7139,2.6716,2.67,2.67,2.67,2.5981,2.5338,2.4829,2.4077,2.3429,2.2902,2.269,2.2538,2.242,2.2209,0.0,0.0,2.1573,2.1254,2.0844,2.0578,2.0278,1.9988,1.9857,1.9762,1.9708,1.9708,1.9708,1.9699,1.9687,1.9663,1.9654,1.9599,1.9617,1.965,1.9574,1.9265,1.8865,1.8354,1.7428,1.6454,1.581,1.5153,1.4571,1.4176,1.3751,1.35,1.3644,1.3905,1.4234,1.472,1.5277,1.5737,1.6014,1.6199,1.6295,1.6295,1.6295,1.6317,1.636,1.636,1.6392,1.6489,1.65,1.6532,1.6631,1.6643,1.6695,1.6842,1.6886,1.7044,1.7323,1.7465,1.7639,1.7818,1.7935,1.7935,1.7818,1.7777,1.7672,2.0607,2.1408,2.1624,2.0343,1.8912,1.7469,0.0,0.0,1.513,1.5955,1.6851,1.7744,1.8557,1.9294,1.9833,1.9973,0.0,0.0,0.0,0.0,0.0,0.0,0.0,0.0,0.0,0.0,0.0,0.0,0.0,0.0,2.8766,2.8785,2.814,2.6742,2.67,2.67,2.67,2.5981,2.5601,2.5584,2.4838,2.4454,2.436,2.3618,2.3175,0.0,0.0,0.0,0.0,2.1388,2.1103,2.0769,2.0501,2.0242,1.9988,1.9857,1.9762,1.9708,1.9708,1.9708,1.969,1.9629,1.9593,1.9556,1.9367,1.9446,1.9565,1.9446,1.8831,1.8069,1.7469,1.6763,1.6046,1.5445,1.4743,1.4129,1.3858,1.3438,1.316,1.336,1.3621,1.3974,1.45,1.4994,1.5402,1.566,1.5759,1.5814,1.5814,1.5814,1.587,1.5988,1.6012,1.613,1.6466,1.65,1.65,1.65,1.65,1.65,1.6511,1.6631,1.6771,1.6897,1.7094,1.7272,1.7403,1.7465,1.7465,1.7393,1.7272,1.7136,1.8863,1.9447,1.9534,1.9096,1.7881,1.6528,1.5577,0.0,1.4812,1.5712,1.6603,1.7459,1.8284,1.9028,1.9541,1.9578,1.9638,0.0,0.0,0.0,0.0,0.0,0.0,0.0,0.0,0.0,0.0,0.0,0.0,0.0,2.8453,2.8596,2.8292,2.7486,2.7452,2.7207,2.67,2.648,2.6074,2.5528,2.5292,2.4841,2.4178,2.3865,2.3588,0.0,0.0,0.0,0.0,2.1376,2.0982,2.0702,2.0433,2.0207,1.9988,1.9797,1.9696,1.9638,1.9638,1.9541,1.9417,1.9404,1.9274,1.911,1.9054,1.9195,1.9293,1.8793,1.8123,1.7438,1.678,1.6095,1.5411,1.4709,1.4164,1.3704,1.339,1.3136,1.3017,1.3228,1.3479,1.3834,1.4372,1.4777,1.5119,1.5391,1.5525,1.5591,1.5591,1.5591,1.5636,1.5724,1.5813,1.6012,1.6392,1.6425,1.6446,1.65,1.65,1.65,1.65,1.6532,1.6631,1.6761,1.6835,1.6918,1.7065,1.7073,1.7073,1.7065,1.7013,1.6971,0.0,1.6777,1.6933,1.6642,1.5995,0.0,0.0,0.0,0.0,1.5159,1.6246,1.7231,1.778,1.8728,1.9395,1.9395,1.951,0.0,0.0,0.0,0.0,0.0,0.0,0.0,0.0,0.0,0.0,0.0,0.0,0.0,2.8998,2.9208,2.9082,2.8614,2.8076,2.7444,2.6716,2.67,2.6438,2.5916,2.5858,2.5464,2.4762,2.4346,2.3992,0.0,0.0,0.0,0.0,2.1894,2.1401,2.095,2.0692,2.0309,1.9875,1.9723,1.9587,1.9483,1.9422,1.9302,1.9129,1.9035,1.8774,1.8471,1.8471,1.8659,1.875,1.8094,1.7479,1.6845,1.6137,1.5478,1.4835,1.4199,1.3741,1.3382,1.3148,1.299,1.2954,1.313,1.3312,1.3586,1.4012,1.4304,1.4559,1.4789,1.488,1.4926,1.4926,1.4926,1.4983,1.513,1.5232,1.5501,1.6022,1.6273,1.6425,1.65,1.65,1.65,1.65,1.65,1.6532,1.662,1.662,1.6663,1.6759,1.6759,1.6759,1.6759,1.6759,1.678,0.0,1.3769,1.4207,1.3568,1.3701,1.382,0.0,0.0,0.0,0.0,1.583,1.703,1.7166,1.8393,1.9376,1.9376,0.0,0.0,0.0,0.0,0.0,0.0,0.0,0.0,0.0,0.0,0.0,0.0,0.0,0.0,3.0092,3.0332,3.0281,2.9864,2.8604,2.7561,2.6776,2.6691,2.6624,2.6571,2.6418,2.6164,2.5819,2.4982,2.4402,0.0,0.0,0.0,0.0,2.2713,2.2203,2.1434,2.124,2.0582,1.9755,1.9661,1.9467,1.9237,1.9101,1.8945,1.8784,1.849,1.8108,1.776,1.773,1.7892,1.8009,1.7407,1.6845,1.6272,1.5534,1.4903,1.4327,1.3869,1.3467,1.3168,1.3099,1.3,1.2942,1.3063,1.3152,1.3278,1.3539,1.3692,1.3822,1.3954,1.3978,1.3978,1.3978,1.3978,1.4071,1.4338,1.4443,1.4743,1.5401,1.6001,1.6392,1.6489,1.6489,1.65,1.65,1.65,1.65,1.65,1.65,1.65,1.65,1.65,1.65,1.65,1.6511,1.6599,1.2108,0.0,1.3942,1.3636,1.3619,1.3681,0.0,0.0,0.0,0.0,0.0,1.691,1.7089,1.8245,1.9167,0.0,0.0,0.0,0.0,0.0,0.0,0.0,0.0,0.0,0.0,0.0,0.0,0.0,0.0,2.9001,2.9353,2.9837,2.9892,2.9383,2.9285,2.8688,2.7483,2.6754,2.6313,2.6143,2.5948,2.5663,2.5282,2.4916,2.4619,0.0,0.0,0.0,2.3217,2.2692,2.2316,2.2058,2.1755,2.1093,2.0297,2.0059,1.9469,1.8755,1.8678,1.8383,1.7998,1.7629,1.7424,1.7269,1.6913,1.7092,1.7334,1.6839,1.6269,1.5644,1.4892,1.4339,1.3858,1.3433,1.3226,1.3099,1.2966,1.2917,1.2942,1.3063,1.3111,1.3188,1.3408,1.3479,1.3539,1.367,1.3693,1.3693,1.3693,1.3693,1.3798,1.4068,1.4198,1.4479,1.5006,1.5501,1.5966,1.6392,1.6414,1.6446,1.65,1.65,1.65,1.65,1.65,1.65,1.65,1.65,1.65,1.65,1.6609,1.6716,1.219,1.2641,1.2938,1.2772,1.294,1.3177,0.0,0.0,0.0,0.0,0.0,0.0,1.7574,0.0,0.0,0.0,0.0,0.0,0.0,0.0,0.0,0.0,0.0,0.0,0.0,0.0,0.0,0.0,0.0,2.8602,2.89,2.9461,2.9708,2.9572,2.9481,2.8994,2.8085,2.7502,2.6926,2.6356,2.6132,2.5619,2.4871,2.4721,2.4544,0.0,0.0,0.0,2.3788,2.3389,2.2951,2.2503,2.2224,2.152,2.0615,2.0333,1.9757,1.9048,1.8638,1.8028,1.7383,1.7136,1.6947,1.671,1.638,1.6304,1.6281,1.602,1.5545,1.4949,1.4339,1.3847,1.3455,1.3214,1.3077,1.3,1.2917,1.2905,1.2917,1.299,1.3012,1.3039,1.3152,1.3166,1.32,1.3272,1.3284,1.3284,1.3284,1.3284,1.3356,1.3558,1.368,1.3942,1.4433,1.4778,1.5288,1.6077,1.6175,1.6295,1.6446,1.6446,1.6468,1.65,1.65,1.65,1.65,1.65,1.65,1.65,1.6643,1.6793,1.2784,1.2626,1.2267,1.2114,1.2494,1.2978,0.0,0.0,0.0,0.0,0.0,0.0,0.0,0.0,0.0,0.0,0.0,0.0,0.0,0.0,0.0,0.0,0.0,0.0,0.0,0.0,0.0,0.0,0.0,2.828,2.8583,2.9101,2.9522,2.9815,2.9408,2.9007,2.8629,2.8336,2.7725,2.6821,2.6445,2.5696,2.4653,2.4477,2.4312,2.4166,0.0,0.0,2.4281,2.4187,2.3659,2.2901,2.2619,2.1845,2.0841,2.0531,2.0072,1.9491,1.8636,1.7733,1.6928,1.6801,1.652,1.6173,1.5888,1.5501,1.5153,1.5062,1.4743,1.4316,1.3858,1.3455,1.3168,1.3087,1.2978,1.2905,1.2905,1.2905,1.2905,1.2905,1.2905,1.2905,1.2905,1.2905,1.2905,1.2905,1.2905,1.2905,1.2905,1.2905,1.2954,1.3085,1.3152,1.3416,1.3977,1.4142,1.4668,1.5692,1.5842,1.6032,1.6362,1.6382,1.6425,1.65,1.65,1.65,1.65,1.65,1.6549,1.6636,1.6791,1.694,1.3241,1.3774,1.4054,1.3854,1.4014,1.4406,0.0,0.0,0.0,0.0,0.0,0.0,0.0,0.0,0.0,0.0,0.0,0.0,0.0,0.0,0.0,0.0,0.0,0.0,0.0,0.0,0.0,0.0,0.0,2.7927,2.81,2.8562,2.89,2.9067,2.9365,2.9413,2.9172,2.8136,2.7394,2.6957,2.6057,2.539,2.4922,2.4225,2.3946,2.4024,0.0,2.413,2.4271,2.3978,2.37,2.3413,2.2889,2.2079,2.115,2.0667,1.9943,1.9039,1.8011,1.7261,1.6686,1.6273,1.6022,1.5758,1.5096,1.4732,1.4432,1.3988,1.3966,1.3978,1.3575,1.3296,1.3087,1.2954,1.2917,1.2905,1.2905,1.2905,1.2905,1.2905,1.2905,1.2905,1.2905,1.2905,1.2905,1.2905,1.2905,1.2905,1.2905,1.2905,1.2954,1.3085,1.3111,1.3385,1.4035,1.4213,1.4642,1.5491,1.5462,1.5657,1.621,1.634,1.6425,1.65,1.65,1.65,1.65,1.65,1.6762,1.7272,1.746,1.7613,1.328,1.3994,1.4513,1.4778,1.4999,0.0,0.0,0.0,0.0,0.0,0.0,0.0,0.0,0.0,0.0,0.0,0.0,0.0,0.0,0.0,0.0,0.0,0.0,0.0,0.0,0.0,0.0,0.0,0.0,0.0,2.7893,2.8229,2.8494,2.8633,2.8869,2.8958,2.8869,2.8285,2.7749,2.7264,2.676,2.5945,2.4884,2.4512,2.4176,2.3882,0.0,2.3946,2.4009,2.3743,2.3469,2.3168,2.264,2.1988,2.1262,2.0596,1.9609,1.8526,1.797,1.7136,1.6262,1.5901,1.5613,1.5311,1.472,1.4316,1.3987,1.3598,1.3529,1.3517,1.3308,1.3123,1.2978,1.2917,1.2905,1.2905,1.2905,1.2905,1.2905,1.2905,1.2905,1.2905,1.2905,1.2905,1.2905,1.2905,1.2905,1.2905,1.2905,1.2905,1.2917,1.3,1.3185,1.3476,1.3854,1.4136,1.4707,1.5665,1.5995,1.6338,1.6725,1.6733,1.6741,1.6774,1.6841,1.6873,1.6885,1.7241,1.7552,1.7839,1.7999,1.8124,1.3035,1.3942,1.476,1.5289,0.0,0.0,0.0,0.0,0.0,0.0,0.0,0.0,0.0,0.0,0.0,0.0,0.0,0.0,0.0,0.0,0.0,0.0,0.0,0.0,0.0,0.0,0.0,0.0,0.0,0.0,2.7753,2.7989,2.8149,2.825,2.8223,2.8172,2.8148,2.7969,2.7799,2.7612,2.7371,2.6462,2.498,2.4815,2.439,2.375,2.375,2.3649,2.3481,2.325,2.2842,2.2324,2.1949,2.1503,2.0969,2.0205,1.913,1.8023,1.7768,1.6906,1.5845,1.5546,1.5243,1.4903,1.4373,1.3975,1.3644,1.3358,1.3204,1.313,1.3111,1.299,1.2905,1.2905,1.2905,1.2905,1.2905,1.2905,1.2905,1.2905,1.2905,1.2905,1.2905,1.2905,1.2905,1.2905,1.2905,1.2905,1.2905,1.2981,1.304,1.304,1.3408,1.3727,1.3939,1.4373,1.5013,1.588,1.6373,1.6737,1.7019,1.7003,1.7021,1.7138,1.7264,1.7368,1.7391,1.7932,1.8255,1.838,1.8523,1.8606,1.2478,1.392,1.535,1.5466,0.0,0.0,0.0,0.0,0.0,0.0,0.0,0.0,0.0,0.0,0.0,0.0,0.0,0.0,0.0,0.0,0.0,0.0,0.0,0.0,0.0,0.0,0.0,0.0,0.0,0.0,2.7612,2.7738,2.7828,2.784,2.7491,2.7227,2.7105,2.6615,2.6898,2.7953,2.7194,2.6398,2.5525,2.49,2.4242,2.3606,2.3606,2.3229,2.2567,2.2229,2.1589,2.0756,2.0653,2.0408,2.0029,1.9333,1.8461,1.7544,1.6916,1.6224,1.5557,1.5096,1.4858,1.4594,1.3882,1.3551,1.336,1.3029,1.292,1.2954,1.3063,1.299,1.2905,1.2905,1.2905,1.2905,1.2905,1.2905,1.2905,1.2905,1.2905,1.2905,1.2905,1.2905,1.2905,1.2905,1.2905,1.2905,1.2905,1.3235,1.3467,1.3467,1.3825,1.4244,1.4672,1.5268,1.5746,1.6079,1.5898,1.6009,1.6538,1.6777,1.7109,1.7557,1.7689,1.782,1.7939,1.812,1.8456,1.8957,1.908,1.9154,1.3183,1.4374,1.5385,1.5821,0.0,0.0,0.0,0.0,0.0,0.0,0.0,0.0,0.0,0.0,0.0,0.0,0.0,0.0,0.0,0.0,0.0,0.0,0.0,0.0,0.0,0.0,0.0,0.0,0.0,0.0,2.76,2.7248,2.7047,2.7047,2.6513,2.6175,2.6128,2.5933,2.6057,2.6507,2.6283,2.5758,2.4963,2.4724,2.4212,2.3508,2.3052,2.2523,2.1953,2.128,2.0559,1.9877,1.9377,1.9002,1.8708,1.824,1.7472,1.6622,1.6279,1.5579,1.4812,1.4547,1.4258,1.3931,1.3481,1.3286,1.315,1.2859,1.2783,1.2808,1.2942,1.2881,1.2783,1.2783,1.2652,1.2529,1.2529,1.2468,1.2431,1.2517,1.2529,1.2578,1.2747,1.2783,1.2808,1.2893,1.2905,1.2991,1.3242,1.3408,1.36,1.3851,1.4264,1.4707,1.5137,1.539,1.5619,1.5836,1.62,1.6561,1.6917,1.6996,1.7148,1.7414,1.7754,1.8029,1.8253,1.8796,1.9221,1.9497,1.9548,1.9573,1.3477,1.446,1.5338,0.0,0.0,0.0,0.0,0.0,0.0,0.0,0.0,0.0,0.0,0.0,0.0,0.0,0.0,0.0,0.0,0.0,0.0,0.0,0.0,0.0,0.0,0.0,0.0,0.0,0.0,0.0,0.0,2.6854,2.6509,2.6288,2.5633,2.5277,2.5277,2.5064,2.4948,2.494,2.5028,2.4908,2.4593,2.4586,2.4123,2.3334,2.2533,2.178,2.1081,2.0205,1.9453,1.8812,1.8205,1.7875,1.7725,1.7231,1.6538,1.5808,1.5482,1.4858,1.4175,1.4,1.3764,1.3491,1.325,1.3104,1.2978,1.2713,1.2578,1.2517,1.2566,1.2578,1.2554,1.2468,1.2308,1.2163,1.2113,1.2039,1.2002,1.2088,1.2227,1.2373,1.2487,1.2671,1.2796,1.2827,1.2869,1.3049,1.3457,1.361,1.3903,1.4445,1.4805,1.5098,1.5376,1.5396,1.5493,1.5687,1.6177,1.6623,1.6994,1.7011,1.7145,1.7427,1.7821,1.8187,1.8536,1.9211,1.9617,1.9746,1.9746,1.9746,1.3086,1.4081,0.0,0.0,0.0,0.0,0.0,0.0,0.0,0.0,0.0,0.0,0.0,0.0,0.0,0.0,0.0,0.0,0.0,0.0,0.0,0.0,0.0,0.0,0.0,0.0,0.0,0.0,0.0,0.0,0.0,2.6584,2.6273,2.5603,2.4933,2.459,2.459,2.3928,2.3556,2.3498,2.3487,2.3874,2.4578,2.4518,2.3977,2.3028,2.2094,2.1045,1.9912,1.8975,1.8153,1.746,1.7124,1.7096,1.7182,1.6385,1.5748,1.5188,1.4444,1.4022,1.375,1.3479,1.3408,1.336,1.316,1.299,1.2844,1.2566,1.2298,1.2064,1.1927,1.2076,1.2212,1.1964,1.189,1.1852,1.1728,1.169,1.169,1.169,1.2073,1.2332,1.2137,1.2609,1.2935,1.2741,1.2817,1.3059,1.3454,1.386,1.4445,1.5308,1.5396,1.5396,1.5396,1.5396,1.5493,1.5672,1.5701,1.5976,1.657,1.6722,1.7074,1.7684,1.7966,1.8333,1.8798,1.9197,1.9473,1.9604,1.9591,1.9591,1.4133,0.0,0.0,0.0,0.0,0.0,0.0,0.0,0.0,0.0,0.0,0.0,0.0,0.0,0.0,0.0,0.0,0.0,0.0,0.0,0.0,0.0,0.0,0.0,0.0,0.0,0.0,0.0,0.0,0.0,0.0,2.5719,2.5098,2.4903,2.4257,2.3865,2.3829,2.3631,2.3418,2.3216,2.3116,2.3241,2.3544,2.351,2.3006,2.2068,2.1176,2.0106,1.8905,1.7536,1.6768,1.6397,1.5974,1.574,1.5544,1.4966,1.4534,1.419,1.3782,1.349,1.3292,1.321,1.3126,1.3041,1.2978,1.2869,1.2676,1.2311,1.2026,1.1703,1.1188,1.1002,1.1053,1.1402,1.1154,1.0837,1.0799,1.0643,1.0626,1.1049,1.1356,1.1765,1.24,1.2788,1.3119,1.3492,1.3577,1.3797,1.4332,1.4775,1.5113,1.5366,1.5396,1.5396,1.5396,1.5396,1.5425,1.5493,1.5493,1.5725,1.6228,1.642,1.669,1.7057,1.7468,1.7925,1.8452,1.8894,1.925,1.9447,1.9129,1.8868,1.4667,0.0,0.0,0.0,0.0,0.0,0.0,0.0,0.0,0.0,0.0,0.0,0.0,0.0,0.0,0.0,0.0,0.0,0.0,0.0,0.0,0.0,0.0,0.0,0.0,0.0,0.0,0.0,0.0,0.0,0.0,2.5004,2.4444,2.416,2.3725,2.3436,2.3341,2.3341,2.3175,2.2814,2.2512,2.2256,2.211,2.2304,2.2047,2.1382,2.0006,1.8752,1.76,1.6481,1.5899,1.5668,1.5175,1.4835,1.457,1.4117,1.3788,1.3527,1.3346,1.3174,1.3014,1.3014,1.2976,1.2905,1.2905,1.2725,1.2468,1.2113,1.1669,1.1188,1.0641,1.0249,1.0126,1.0587,1.0434,1.0151,1.0087,0.9997,1.0044,1.0456,1.1035,1.1644,1.2276,1.2857,1.3378,1.3761,1.4075,1.4387,1.4746,1.5146,1.5396,1.5396,1.5396,1.5396,1.5396,1.5396,1.5396,1.5396,1.5396,1.5565,1.5937,1.6105,1.6374,1.6708,1.7046,1.7468,1.7979,1.8427,1.8682,1.8765,1.8465,1.8123,0.0,0.0,0.0,0.0,0.0,0.0,0.0,0.0,0.0,0.0,0.0,0.0,0.0,0.0,0.0,0.0,0.0,0.0,0.0,0.0,0.0,0.0,0.0,0.0,0.0,0.0,0.0,0.0,0.0,0.0,0.0,2.429,2.3919,2.3281,2.3142,2.3007,2.2874,2.2863,2.2629,2.2177,2.1586,2.1016,2.0494,2.0948,2.1033,2.0695,1.8647,1.7177,1.6215,1.5745,1.5423,1.5175,1.464,1.4304,1.4082,1.3704,1.3396,1.318,1.3101,1.299,1.2905,1.2905,1.2905,1.2905,1.2905,1.2627,1.2261,1.1964,1.1326,1.0629,1.0257,0.9784,0.9465,0.9684,0.9736,0.9697,0.9575,0.9642,0.9781,0.9959,1.092,1.177,1.1925,1.2856,1.3648,1.3804,1.4401,1.4858,1.4858,1.5176,1.5396,1.5396,1.5396,1.5396,1.5396,1.5396,1.5396,1.5396,1.5396,1.5493,1.5687,1.5827,1.6091,1.6538,1.669,1.699,1.744,1.7859,1.7959,1.772,1.7673,1.7318,0.0,0.0,0.0,0.0,0.0,0.0,0.0,0.0,0.0,0.0,0.0,0.0,0.0,0.0,0.0,0.0,0.0,0.0,0.0,0.0,0.0,0.0,0.0,0.0,0.0,0.0,0.0,0.0,0.0,0.0,2.3346,2.2381,2.172,2.1461,2.144,2.1325,2.1137,2.1023,2.0796,0.0,2.0089,1.9789,1.951,1.9876,1.9515,1.8526,1.7211,1.6357,1.5865,1.5401,1.496,1.4558,1.4116,1.38,1.3539,1.3306,1.3172,1.3101,1.2978,1.2917,1.2905,1.2905,1.2905,1.2905,1.2905,1.2688,1.2369,1.1877,1.1326,1.0705,1.0064,0.9642,0.9387,0.9335,0.925,0.9159,0.9133,0.9153,0.9315,0.9823,1.056,1.1368,1.2225,1.3003,1.3782,1.4599,1.5037,1.5273,1.5273,1.5352,1.5396,1.5396,1.5396,1.5396,1.5396,1.5396,1.5396,1.5396,1.5396,1.5493,1.5687,1.5726,1.5842,1.6048,1.6345,1.6634,1.6948,1.752,1.7565,1.716,1.6789,1.6136,0.0,0.0,0.0,0.0,0.0,0.0,0.0,0.0,0.0,0.0,0.0,0.0,0.0,0.0,0.0,0.0,0.0,0.0,0.0,0.0,0.0,0.0,0.0,0.0,0.0,0.0,0.0,0.0,0.0,2.2006,2.195,2.119,2.0732,2.0651,2.0571,2.0437,2.0269,2.0201,1.9962,1.9557,1.9125,1.857,1.7937,1.8517,1.8175,1.7082,1.6305,1.5778,1.5423,1.4892,1.4454,1.4069,1.367,1.3406,1.3236,1.3075,1.299,1.299,1.2917,1.2856,1.2808,1.2808,1.2713,1.2615,1.2615,1.2382,1.2026,1.1628,1.1053,1.045,0.9942,0.955,0.929,0.9224,0.91,0.8995,0.8995,0.9048,0.9207,0.9588,1.0318,1.1096,1.1888,1.2949,1.3994,1.4868,1.5167,1.5332,1.5381,1.5396,1.5396,1.5396,1.5396,1.5396,1.5396,1.5396,1.5396,1.5396,1.5396,1.5449,1.5546,1.5561,1.5662,1.5899,1.6015,1.6163,1.6371,1.6684,1.6611,1.6181,1.5871,1.515,0.0,0.0,0.0,0.0,0.0,0.0,0.0,0.0,0.0,0.0,0.0,0.0,0.0,0.0,0.0,0.0,0.0,0.0,0.0,0.0,0.0,0.0,0.0,0.0,0.0,0.0,0.0,0.0,0.0,2.0723,2.0408,2.0084,1.9894,1.9873,1.972,1.9573,1.9432,1.941,1.9191,1.8805,1.8216,1.7385,1.6394,1.7063,1.6925,1.6128,1.5623,1.5232,1.4892,1.4327,1.3941,1.3656,1.3324,1.314,1.3051,1.2942,1.2905,1.2905,1.2869,1.2783,1.2652,1.2615,1.2421,1.2224,1.22,1.1952,1.1603,1.1305,1.0761,1.018,0.987,0.9545,0.9277,0.9277,0.9146,0.9021,0.9008,0.9087,0.9198,0.9335,1.0143,1.0973,1.1495,1.2782,1.399,1.4751,1.4998,1.5177,1.5371,1.5396,1.5396,1.5396,1.5396,1.5396,1.5396,1.5396,1.5396,1.5396,1.5396,1.5381,1.5376,1.5376,1.5464,1.5697,1.5643,1.5662,1.5744,1.5719,1.5504,1.5079,1.4917,1.4266,0.0,0.0,0.0,0.0,0.0,0.0,0.0,0.0,0.0,0.0,0.0,0.0,0.0,0.0,0.0,0.0,0.0,0.0,0.0,0.0,0.0,0.0,0.0,0.0,0.0,0.0,0.0,0.0,1.8959,1.872,1.8731,1.819,1.7856,1.7794,1.7763,1.7693,1.7558,1.7445,1.733,1.7203,1.6705,1.626,1.5892,1.5718,1.5628,1.5568,1.4937,1.4524,1.4292,1.3859,1.3527,1.3266,1.3162,1.3039,1.2917,1.2905,1.2905,1.2881,1.2771,1.2639,1.2492,1.2261,1.2076,1.194,1.1828,1.1665,1.1452,1.1061,1.0718,1.0368,0.9916,0.9681,0.9549,0.9549,0.9361,0.9133,0.9021,0.9008,0.9061,0.9198,1.0077,1.1039,1.1806,1.2545,1.3312,1.4185,1.4516,1.4858,1.5332,1.5396,1.5396,1.5396,1.5396,1.5396,1.5396,1.5396,1.5396,1.5396,1.5396,1.5347,1.522,1.522,1.5117,1.4863,1.5133,1.5216,1.5117,1.5065,1.4734,1.4176,1.3926,1.3374,0.0,0.0,0.0,0.0,0.0,0.0,0.0,0.0,0.0,0.0,0.0,0.0,0.0,0.0,0.0,0.0,0.0,0.0,0.0,0.0,0.0,0.0,0.0,0.0,0.0,0.0,0.0,0.0,1.7872,1.7623,1.7713,1.7403,1.7209,1.7178,1.7136,1.7084,1.7034,1.6971,1.6823,1.6563,1.6087,1.5747,1.5501,1.5017,1.4937,1.513,1.449,1.4129,1.394,1.35,1.3258,1.3128,1.2954,1.2844,1.2783,1.27,1.2676,1.2652,1.2517,1.2335,1.2113,1.1852,1.1528,1.12,1.1015,1.0829,1.0617,1.0349,1.0138,0.9953,0.9745,0.9582,0.9504,0.9575,0.94,0.9185,0.9126,0.9061,0.9087,0.9361,0.9922,1.0637,1.1567,1.2135,1.2847,1.4021,1.4355,1.471,1.5318,1.5396,1.5376,1.5298,1.5284,1.521,1.5015,1.5015,1.4971,1.4898,1.4898,1.4878,1.4813,1.4695,1.4502,1.4195,1.4493,1.4538,1.4324,1.4103,1.3811,1.3423,1.3135,1.2661,0.0,0.0,0.0,0.0,0.0,0.0,0.0,0.0,0.0,0.0,0.0,0.0,0.0,0.0,0.0,0.0,0.0,0.0,0.0,0.0,0.0,0.0,0.0,0.0,0.0,0.0,0.0,0.0,1.7128,1.6916,1.7021,1.6926,1.6863,1.6863,1.6823,1.6801,1.6801,1.6606,1.6392,1.6117,1.5536,1.5193,1.5051,1.449,1.435,1.4479,1.4002,1.3729,1.3583,1.3208,1.3036,1.2978,1.2747,1.2603,1.2529,1.2406,1.2332,1.2274,1.2138,1.1927,1.164,1.1318,1.0909,1.0475,1.0262,1.0066,0.9878,0.9736,0.9627,0.9536,0.9504,0.9426,0.9374,0.9471,0.9322,0.9133,0.9113,0.9021,0.9048,0.9387,0.9668,1.0127,1.102,1.1556,1.2294,1.3617,1.4026,1.4416,1.5119,1.5211,1.5186,1.5088,1.5,1.4838,1.4597,1.4538,1.4478,1.438,1.4374,1.4335,1.4246,1.4076,1.3806,1.342,1.3472,1.3472,1.342,1.304,1.2773,1.2612,1.229,1.1974,0.0,0.0,0.0,0.0,0.0,0.0,0.0,0.0,0.0,0.0,0.0,0.0,0.0,0.0,0.0,0.0,0.0,0.0,0.0,0.0,0.0,0.0,0.0,0.0,0.0,0.0,0.0,0.0,1.6545,1.6532,1.6543,1.6532,1.6532,1.6532,1.6522,1.6522,1.6522,1.5825,1.5531,1.5623,1.4765,1.4394,1.4431,1.4022,1.3704,1.3469,1.3314,1.3202,1.3111,1.2966,1.2844,1.271,1.2566,1.2369,1.2113,1.1977,1.1852,1.1728,1.159,1.1377,1.1074,1.0608,1.0262,0.9986,0.9718,0.9627,0.9588,0.9465,0.9413,0.9387,0.9263,0.9211,0.9211,0.9224,0.9106,0.8969,0.8844,0.8818,0.8857,0.8995,0.925,0.9603,1.0169,1.0768,1.152,1.2611,1.3223,1.3814,1.4546,1.4705,1.4721,1.473,1.4434,1.4234,1.4234,1.4115,1.4025,1.4025,1.4025,1.3881,1.3571,1.342,1.3047,1.2389,1.1888,1.1888,1.2374,1.1849,1.1592,1.1561,1.1303,1.1233,0.0,0.0,0.0,0.0,0.0,0.0,0.0,0.0,0.0,0.0,0.0,0.0,0.0,0.0,0.0,0.0,0.0,0.0,0.0,0.0,0.0,0.0,0.0,0.0,0.0,0.0,0.0,0.0,0.0,1.65,1.65,1.65,1.65,1.65,1.65,1.6314,1.5934,1.5452,1.4957,1.4447,1.4043,1.3751,1.3552,1.3464,1.3346,1.3198,1.3067,1.3041,1.3085,1.2856,1.2688,1.2541,1.2224,1.1952,1.169,1.1477,1.1301,1.1175,1.1036,1.0774,1.0467,1.0131,0.9777,0.9446,0.9277,0.9159,0.9074,0.9021,0.9021,0.9021,0.9061,0.9074,0.9074,0.9074,0.9035,0.8956,0.8831,0.8791,0.8844,0.8969,0.9224,0.9543,0.9991,1.0578,1.1281,1.2183,1.262,1.3144,1.3918,1.4045,1.4025,1.3936,1.3812,1.358,1.3155,1.3064,1.2957,1.2735,1.2651,1.2482,1.2228,1.1966,1.1578,1.104,1.0616,1.0726,1.1337,1.1007,1.0863,1.0863,1.0791,1.0854,0.0,0.0,0.0,0.0,0.0,0.0,0.0,0.0,0.0,0.0,0.0,0.0,0.0,0.0,0.0,0.0,0.0,0.0,0.0,0.0,0.0,0.0,0.0,0.0,0.0,0.0,0.0,0.0,0.0,0.0,1.65,1.65,1.6423,1.6235,1.6222,1.5899,1.5208,1.4728,1.4193,1.3601,1.3344,1.3138,1.2936,1.3086,1.3116,1.3036,1.2942,1.2929,1.2942,1.2713,1.2505,1.2261,1.1865,1.1469,1.1103,1.0824,1.0621,1.0446,1.0365,1.0159,0.9893,0.9666,0.9387,0.9113,0.8969,0.887,0.8791,0.8791,0.8791,0.8818,0.891,0.8929,0.8929,0.8929,0.8929,0.891,0.8818,0.8791,0.8818,0.8923,0.9106,0.9394,0.9797,1.0267,1.086,1.1653,1.1987,1.2422,1.3146,1.3193,1.3158,1.3151,1.3025,1.275,1.2297,1.222,1.2066,1.1779,1.1615,1.1398,1.1111,1.0703,1.0268,0.9777,0.9384,0.9384,0.9761,0.9875,0.9945,0.9993,1.0104,1.0333,0.0,0.0,0.0,0.0,0.0,0.0,0.0,0.0,0.0,0.0,0.0,0.0,0.0,0.0,0.0,0.0,0.0,0.0,0.0,0.0,0.0,0.0,0.0,0.0,0.0,0.0,0.0,0.0,1.6489,1.6489,1.6489,1.6488,1.6224,1.5728,1.568,1.5254,1.4371,1.3648,1.324,1.3137,1.27,1.2515,1.2587,1.2938,1.3014,1.2893,1.2893,1.282,1.2673,1.2541,1.2249,1.1852,1.1431,1.0913,1.0352,1.0076,0.9823,0.9588,0.9588,0.9497,0.9361,0.9237,0.91,0.8976,0.8844,0.8791,0.8791,0.8791,0.8791,0.8791,0.8791,0.8791,0.8791,0.8791,0.8791,0.8791,0.8791,0.8791,0.8791,0.8791,0.891,0.9126,0.9523,0.9814,1.0226,1.0951,1.1285,1.1666,1.2183,1.2151,1.2162,1.2435,1.2066,1.1771,1.1771,1.1654,1.1482,1.1272,1.1068,1.0746,1.0275,0.9735,0.9192,0.8656,0.8204,0.7857,0.7666,0.8414,0.8845,0.8985,0.921,0.9658,1.2983,0.0,0.0,0.0,0.0,0.0,1.3781,1.3861,0.0,0.0,0.0,0.0,0.0,0.0,0.0,0.0,0.0,0.0,0.0,0.0,0.0,0.0,0.0,0.0,0.0,0.0,0.0,0.0,1.634,1.6275,1.6275,1.5968,1.5743,1.5706,1.5232,1.4601,1.3824,1.3288,1.2661,1.1971,1.2079,1.2068,1.1966,1.2657,1.2881,1.2759,1.2759,1.2517,1.2126,1.2187,1.1977,1.1544,1.0901,1.037,0.9937,0.966,0.9459,0.9309,0.9309,0.9224,0.9113,0.9074,0.8956,0.8844,0.8804,0.8791,0.8791,0.8791,0.8791,0.8791,0.8791,0.8791,0.8791,0.8791,0.8791,0.8791,0.8791,0.8791,0.8791,0.8791,0.891,0.9061,0.927,0.9536,0.9814,1.0118,1.0511,1.0888,1.1173,1.1354,1.1503,1.1609,1.1522,1.1334,1.1099,1.0949,1.0728,1.0374,0.9993,0.9534,0.9016,0.8484,0.7956,0.7412,0.7183,0.6954,0.6766,0.7601,0.8149,0.8447,0.9123,0.9668,0.0,0.0,0.0,0.0,0.0,0.0,1.3001,1.3148,1.3323,0.0,0.0,0.0,0.0,0.0,0.0,0.0,0.0,0.0,0.0,0.0,0.0,0.0,0.0,0.0,0.0,1.6155,1.6121,1.6077,1.6046,1.6091,1.6188,1.5745,1.5463,1.5377,1.4715,1.397,1.3146,1.2756,1.2138,1.1303,1.1768,1.1877,1.1678,1.2457,1.2747,1.2615,1.2505,1.2175,1.1728,1.164,1.1381,1.0989,1.0382,0.9899,0.9523,0.9309,0.9146,0.9035,0.9035,0.8982,0.8923,0.8923,0.8857,0.8791,0.8791,0.8791,0.8791,0.8791,0.8791,0.8791,0.8791,0.8791,0.8791,0.8791,0.8791,0.8791,0.8791,0.8791,0.8791,0.8791,0.8857,0.8956,0.9093,0.925,0.9413,0.9601,0.9939,1.027,1.055,1.0726,1.0884,1.1064,1.1043,1.0933,1.0728,1.057,1.0285,0.9817,0.9354,0.8791,0.8102,0.7565,0.7097,0.67,0.656,0.6461,0.6404,0.6909,0.7412,0.7928,0.8571,0.9204,0.0,0.0,0.0,0.0,0.0,0.0,1.2256,1.256,1.2923,0.0,0.0,0.0,0.0,0.0,0.0,0.0,0.0,0.0,0.0,0.0,0.0,0.0,0.0,0.0,1.5703,1.5715,1.5669,1.5546,1.5647,1.5836,1.6113,1.5633,1.5201,1.486,1.4138,1.3335,1.2455,1.2156,1.1686,1.1065,1.1664,1.1854,1.1693,1.2382,1.2615,1.2443,1.2175,1.1803,1.1343,1.0951,1.0621,1.0326,0.9912,0.9523,0.9159,0.9021,0.891,0.8791,0.8791,0.8791,0.8791,0.8791,0.8791,0.8791,0.8791,0.8791,0.8791,0.8791,0.8791,0.8791,0.8791,0.8791,0.8791,0.8791,0.8791,0.8791,0.8791,0.8791,0.8791,0.8791,0.8791,0.8831,0.8956,0.8982,0.9068,0.9332,0.9567,0.9834,1.0236,1.0316,1.0445,1.0742,1.0665,1.0609,1.0609,1.0403,1.0047,0.9534,0.9038,0.8393,0.7559,0.7003,0.663,0.6432,0.6313,0.6313,0.6432,0.6453,0.6811,0.7505,0.7884,0.8576,0.0,0.0,0.0,0.0,0.0,0.0,1.2832,1.2864,1.2936,0.0,0.0,0.0,0.0,0.0,0.0,0.0,0.0,0.0,0.0,0.0,0.0,0.0,0.0,0.0,1.5221,1.5244,1.5232,1.5198,1.5221,1.5356,1.5625,1.4881,1.4467,1.4506,1.3385,1.2579,1.2186,1.1699,1.1436,1.1406,1.1638,1.1869,1.2096,1.2505,1.2505,1.2163,1.189,1.1343,1.0595,1.0298,1.0136,1.0033,0.964,0.9296,0.9021,0.8883,0.8818,0.8791,0.8791,0.8791,0.8791,0.8791,0.8791,0.8791,0.8791,0.8791,0.8791,0.8791,0.8791,0.8791,0.8791,0.8791,0.8791,0.8791,0.8791,0.8791,0.8791,0.8791,0.8791,0.8791,0.8791,0.8811,0.8831,0.8844,0.8924,0.9193,0.9504,0.9801,1.0098,1.0364,1.0573,1.0627,1.0624,1.0609,1.0609,1.0269,0.9897,0.9518,0.891,0.8284,0.7678,0.7138,0.6794,0.6642,0.6609,0.6609,0.6642,0.6745,0.704,0.7505,0.8117,0.8797,0.0,0.0,0.0,1.3226,0.0,0.0,0.0,1.2766,1.2833,1.3294,0.0,0.0,0.0,0.0,0.0,0.0,0.0,0.0,0.0,0.0,0.0,0.0,0.0,0.0,1.4547,1.4548,1.4617,1.4743,1.4834,1.5051,1.5379,1.4836,1.4422,1.4257,1.3269,1.2596,1.2306,1.18,1.1636,1.1798,1.1899,1.1999,1.2097,1.2242,1.2113,1.1769,1.1267,1.0689,1.0079,0.9808,0.9627,0.9478,0.9277,0.9074,0.8877,0.8745,0.8705,0.8692,0.8626,0.86,0.8613,0.8679,0.8705,0.8718,0.8778,0.8791,0.8791,0.8791,0.8791,0.8791,0.8791,0.8791,0.8791,0.8791,0.8791,0.8791,0.8791,0.8791,0.8791,0.8791,0.8791,0.8791,0.8791,0.8745,0.8791,0.906,0.9301,0.9589,0.9944,1.0265,1.0498,1.0593,1.0609,1.0609,1.0609,1.0222,0.9849,0.9518,0.8866,0.8258,0.7717,0.7286,0.7073,0.7097,0.7265,0.7347,0.7347,0.7587,0.7668,0.7614,0.8047,0.8694,0.0,0.0,0.0,0.0,0.0,1.2418,0.0,0.0,0.0,1.3207,0.0,0.0,0.0,0.0,0.0,0.0,0.0,0.0,0.0,0.0,0.0,0.0,0.0,0.0,0.0,1.3966,1.4094,1.4314,1.4546,1.4834,1.5176,1.4855,1.4472,1.4058,1.3245,1.2688,1.2431,1.1944,1.183,1.2117,1.2119,1.2091,1.2002,1.1871,1.1665,1.1339,1.0625,1.0092,0.9705,0.9439,0.9172,0.8929,0.8982,0.8903,0.8745,0.8619,0.8521,0.8441,0.8315,0.8262,0.8289,0.8428,0.8534,0.8626,0.8765,0.8791,0.8791,0.8791,0.8791,0.8791,0.8791,0.8791,0.8791,0.8791,0.8791,0.8791,0.8791,0.8791,0.8791,0.8791,0.8791,0.8791,0.8765,0.8646,0.8657,0.8958,0.9061,0.9278,0.9764,1.0054,1.0276,1.0434,1.0498,1.0545,1.0545,1.0238,0.9935,0.962,0.9021,0.849,0.8032,0.7717,0.7624,0.7782,0.8096,0.8242,0.8258,0.8538,0.8425,0.7923,0.8172,0.8753,0.0,0.0,0.0,0.0,1.3319,0.0,0.0,0.0,1.3501,1.3551,0.0,0.0,0.0,0.0,0.0,0.0,0.0,0.0,0.0,0.0,0.0,0.0,0.0,0.0,0.0,1.3868,1.401,1.4044,1.4406,1.4661,1.4765,1.4383,1.4067,1.3848,1.272,1.2145,1.2224,1.1593,1.1585,1.2193,1.1954,1.1926,1.2086,1.1714,1.133,1.0934,1.0303,0.9814,0.9426,0.9159,0.8883,0.8666,0.8909,0.8844,0.8606,0.8474,0.8229,0.7957,0.7824,0.7777,0.7803,0.7944,0.8263,0.8626,0.8765,0.8791,0.8791,0.8791,0.8791,0.8791,0.8791,0.8791,0.8791,0.8791,0.8791,0.8791,0.8791,0.8791,0.8791,0.8791,0.8791,0.8765,0.8646,0.8514,0.8553,0.8951,0.8861,0.8944,0.9479,0.9725,0.9862,0.9884,1.0165,1.0339,1.0339,1.0285,1.0174,0.9951,0.9588,0.931,0.9123,0.8904,0.8807,0.8823,0.9049,0.9145,0.9145,0.931,0.9139,0.8684,0.9123,0.9556,0.0,0.0,0.0,0.0,0.0,0.0,1.3224,0.0,1.3372,0.0,0.0,0.0,0.0,0.0,0.0,0.0,0.0,0.0,0.0,0.0,0.0,0.0,0.0,0.0,0.0,0.0,0.0,0.0,1.4651,1.4903,1.4926,1.4699,1.4306,1.3762,1.3022,1.2549,1.238,1.1978,1.1982,1.2371,1.2013,1.1825,1.1731,1.1129,1.0676,1.0349,0.9782,0.94,0.9146,0.8883,0.8659,0.8474,0.8401,0.8362,0.8342,0.8089,0.7803,0.753,0.7314,0.7233,0.73,0.767,0.8043,0.8401,0.852,0.856,0.8586,0.8666,0.8685,0.8705,0.8778,0.8791,0.8791,0.8791,0.8791,0.8791,0.8791,0.8791,0.8791,0.8791,0.8791,0.8712,0.8414,0.8216,0.8207,0.8489,0.8228,0.8223,0.8841,0.8995,0.9161,0.9472,0.9706,0.9881,1.0005,1.0005,0.9919,0.9722,0.9396,0.9236,0.9306,0.93,0.9354,0.9456,0.9632,0.9706,0.9706,0.9881,0.9865,0.9664,0.968,0.9856,1.3015,0.0,0.0,0.0,0.0,0.0,0.0,0.0,0.0,0.0,0.0,0.0,0.0,0.0,0.0,0.0,0.0,0.0,0.0,0.0,0.0,0.0,0.0,0.0,0.0,0.0,0.0,0.0,0.0,1.5176,1.5097,1.4926,1.4472,1.3702,1.3214,1.2829,1.2566,1.225,1.2146,1.2274,1.1915,1.1531,1.1116,1.051,1.0092,0.9814,0.9348,0.9074,0.8916,0.8659,0.8408,0.8182,0.7864,0.7723,0.7695,0.7542,0.7254,0.6912,0.668,0.663,0.6752,0.7335,0.7729,0.8002,0.8268,0.8302,0.8295,0.8501,0.8527,0.8527,0.8705,0.8745,0.8752,0.8791,0.8791,0.8791,0.8791,0.8791,0.8791,0.8791,0.8791,0.8672,0.8275,0.8009,0.786,0.7923,0.7572,0.7497,0.7992,0.8161,0.8377,0.877,0.9053,0.9284,0.9424,0.9526,0.952,0.9374,0.9193,0.9161,0.9354,0.954,0.9738,0.9932,1.0085,1.0126,1.0027,1.0168,1.0207,1.0135,1.0062,1.0149,0.0,0.0,0.0,1.2831,0.0,0.0,0.0,0.0,1.3206,0.0,0.0,0.0,0.0,0.0,0.0,0.0,0.0,0.0,0.0,0.0,0.0,0.0,0.0,0.0,0.0,0.0,0.0,0.0,0.0,0.0,1.5108,1.4788,1.4303,1.3613,1.2958,1.2646,1.2693,1.2113,1.178,1.1728,1.1452,1.0939,1.0236,0.995,0.9679,0.94,0.9126,0.8929,0.8791,0.852,0.8136,0.7696,0.7423,0.6966,0.6495,0.6806,0.6549,0.6028,0.5882,0.5914,0.615,0.6882,0.7214,0.7436,0.8029,0.8076,0.7984,0.8315,0.8308,0.8268,0.8534,0.86,0.8646,0.8765,0.8791,0.8791,0.8791,0.8791,0.8791,0.8791,0.8791,0.8672,0.8275,0.7929,0.7593,0.7283,0.6992,0.6857,0.6941,0.7288,0.7538,0.7554,0.8134,0.8538,0.8538,0.8834,0.9017,0.9017,0.9193,0.9348,0.9486,0.9802,1.0079,1.0276,1.0482,1.0414,1.0097,1.0097,0.9972,0.9726,1.0309,1.0577,0.0,0.0,1.2653,1.2975,0.0,0.0,0.0,0.0,0.0,0.0,0.0,0.0,0.0,0.0,0.0,0.0,0.0,0.0,0.0,0.0,0.0,0.0,0.0,0.0,0.0,0.0,0.0,0.0,1.5669,0.0,0.0,1.4834,1.4326,1.3751,1.3168,1.2727,1.2443,1.1963,1.1545,1.1175,1.0761,1.03,0.979,0.953,0.9303,0.9126,0.8949,0.8784,0.8633,0.8242,0.7811,0.7383,0.6804,0.6277,0.5905,0.6196,0.5987,0.5514,0.5381,0.5508,0.5823,0.6336,0.6742,0.7131,0.7601,0.7689,0.7702,0.7989,0.7975,0.7943,0.8255,0.8335,0.8388,0.8619,0.8672,0.8692,0.8778,0.8791,0.8791,0.8791,0.8791,0.8672,0.8275,0.7916,0.751,0.6954,0.6563,0.6356,0.6424,0.6556,0.672,0.6954,0.7375,0.77,0.7831,0.7944,0.8096,0.8323,0.8285,0.8474,0.9017,0.9354,0.9712,1.0095,1.0118,1.0113,1.0098,0.9927,0.9794,0.9707,1.008,1.016,1.1684,1.1981,0.0,1.2798,1.3336,0.0,1.3739,0.0,0.0,0.0,0.0,0.0,0.0,0.0,0.0,0.0,0.0,0.0,0.0,0.0,0.0,0.0,0.0,0.0,0.0,0.0,0.0,1.5657,1.575,0.0,0.0,0.0,1.4186,1.3609,1.314,1.2654,1.2163,1.1765,1.1242,1.0654,1.0241,0.9829,0.9374,0.9159,0.8988,0.8844,0.8718,0.8547,0.8315,0.7864,0.7404,0.6912,0.6249,0.5723,0.5385,0.5604,0.5422,0.5079,0.4987,0.5124,0.5422,0.5909,0.6322,0.6734,0.7206,0.7333,0.7333,0.7547,0.7488,0.7415,0.7729,0.7842,0.7956,0.8276,0.8441,0.8567,0.8705,0.8765,0.8791,0.8791,0.8791,0.8672,0.8275,0.7916,0.7497,0.6899,0.6488,0.6252,0.6269,0.6264,0.6346,0.6576,0.6783,0.7018,0.7272,0.7353,0.751,0.7803,0.7749,0.7961,0.8571,0.8968,0.9376,0.9781,0.9867,0.9855,0.9777,0.9605,0.9472,0.9393,0.9552,0.9552]},{"header":{"parameterUnit":"m.s-1","parameterCategory":1,"la1":30.6,"la2":29.2853,"lo1":-89.7004,"lo2":-87.6739,"dy":0.0162,"dx":0.0183,"nx":112,"ny":82,"refTime":"2024-02-15T06:00:00:Z","depth":0,"parameterNumber":3,"parameterNumberName":"V-component_of_WINDS"},"data":[0.0,0.0,0.0,0.0,0.0,0.0,0.0,0.0,0.0,0.0,0.0,0.0,0.0,0.0,0.0,0.0,0.0,0.0,0.0,0.0,0.0,0.0,0.0,0.0,0.0,0.0,0.0,0.0,0.0,0.0,0.0,0.0,0.0,0.0,0.0,0.0,0.0,0.0,0.0,0.0,0.0,0.0,0.0,0.0,0.0,0.0,0.0,0.0,0.0,0.0,0.0,0.0,0.0,0.0,0.0,0.0,0.0,0.0,0.0,0.0,0.0,0.0,0.0,0.0,0.0,0.0,0.0,0.0,0.0,0.0,0.0,0.0,0.0,0.0,0.0,0.0,0.0,0.0,0.0,0.0,0.0,0.0,0.0,0.0,0.0,0.0,0.0,0.0,0.0,0.0,0.0,0.4997,0.6948,0.8438,0.9041,0.8671,0.805,0.7246,0.0,0.0,0.0,0.0,0.0,0.0,0.0,0.0,0.0,0.0,0.0,0.0,0.0,0.0,0.0,0.0,0.0,0.0,0.0,0.0,0.0,0.0,0.0,0.0,0.0,0.0,0.0,0.0,0.0,0.0,0.0,0.0,0.0,0.0,0.0,0.0,0.0,0.0,0.0,0.0,0.0,0.0,0.0,0.0,0.0,0.0,0.0,0.0,0.0,0.0,0.0,0.0,0.0,0.0,0.0,0.0,0.0,0.0,0.0,0.0,0.0,0.0,0.0,0.0,0.0,0.0,0.0,0.0,0.0,0.0,0.0,0.0,0.0,0.0,0.0,0.0,0.0,0.0,0.0,0.0,0.0,0.0,0.0,0.0,0.0,0.0,0.0,0.0,0.0,0.0,0.0,0.0,0.0,0.0,0.0,0.0,0.0,0.0,0.0,0.0,0.0,0.0,0.0,0.0,0.4698,0.6623,0.7593,0.8139,0.819,0.832,0.7916,0.6775,0.0,0.0,0.0,0.0,0.0,0.0,0.0,0.0,0.0,0.0,0.0,0.0,0.0,0.0,0.0,0.0,0.0,0.0,0.0,0.0,0.0,0.0,0.0,0.0,0.0,0.0,0.0,0.0,0.0,0.0,0.0,0.0,0.0,0.0,0.0,0.0,0.0,0.0,0.0,0.0,0.0,0.0,0.0,0.0,0.0,0.0,0.0,0.0,0.0,0.0,0.0,0.0,0.0,0.0,0.0,0.0,0.0,0.0,0.0,0.0,0.0,0.0,0.0,0.0,0.0,0.0,0.0,0.0,0.0,0.0,0.0,0.0,0.0,0.0,0.0,0.0,0.0,0.0,0.0,0.0,0.0,0.0,0.0,0.0,0.0,0.0,0.0,0.0,0.0,0.0,0.0,0.0,0.0,0.0,0.0,0.0,0.0,0.0,0.0,0.0,0.0,0.0,0.0,0.4113,0.5263,0.7008,0.7639,0.798,0.8097,0.796,0.7514,0.6704,0.6326,0.0,0.0,0.0,0.0,0.0,0.0,0.0,0.0,0.0,0.0,0.0,0.0,0.0,0.0,0.0,0.0,0.0,0.0,0.0,0.0,0.0,0.0,0.0,0.0,0.0,0.0,0.0,0.0,0.0,0.0,0.0,0.0,0.0,0.0,0.0,0.0,0.0,0.0,0.0,0.0,0.0,0.0,0.0,0.0,0.0,0.0,0.0,0.0,0.0,0.0,0.0,0.0,0.0,0.0,0.0,0.0,0.0,0.0,0.0,0.0,0.0,0.0,0.0,0.0,0.0,0.0,0.0,0.0,0.0,0.0,0.0,0.0,0.0,0.0,0.0,0.0,0.0,0.0,0.0,0.0,0.0,0.0,0.0,0.0,0.0,0.0,0.0,0.0,0.0,0.0,0.0,0.0,0.0,0.0,0.0,0.0,0.0,0.0,0.0,0.0,0.0,0.0,0.4581,0.5541,0.6741,0.7238,0.755,0.7717,0.7426,0.7034,0.6566,0.6216,0.0,0.0,0.0,0.0,0.0,0.0,0.0,0.0,0.0,0.0,0.0,0.0,0.0,0.0,0.0,0.0,0.0,0.0,0.0,0.0,0.0,0.0,0.0,0.0,0.0,0.0,0.0,0.0,0.0,0.0,0.0,0.0,0.0,0.0,0.0,0.0,0.0,0.0,0.0,0.0,0.0,0.0,0.0,0.0,0.0,0.0,0.0,0.0,0.0,0.0,0.0,0.0,0.0,0.0,0.0,0.0,0.0,0.0,0.0,0.0,0.0,0.0,0.0,0.0,0.0,0.0,0.0,0.0,0.0,0.0,0.0,0.0,0.0,0.0,0.0,0.0,0.0,0.0,0.0,0.0,0.0,0.0,0.0,0.0,0.0,0.0,0.0,0.0,0.0,0.0,0.0,0.0,0.0,0.0,0.0,0.0,0.0,0.0,0.0,0.0,0.0,0.0,0.4509,0.524,0.5828,0.6313,0.6521,0.6354,0.6595,0.6554,0.608,0.6075,0.0,0.0,0.0,0.0,0.0,0.0,0.0,0.0,0.0,0.0,0.0,0.0,0.0,0.0,0.0,0.0,0.0,0.0,0.0,0.0,0.0,0.0,0.0,0.0,0.0,0.0,0.0,0.0,0.0,0.0,0.0,0.0,0.0,0.0,0.0,0.0,0.0,0.0,0.0,0.0,0.0,0.0,0.0,0.0,0.0,0.0,0.0,0.0,0.0,0.0,0.0,0.0,0.0,0.0,0.0,0.0,0.0,0.0,0.0,0.0,0.0,0.0,0.0,0.0,0.0,0.0,0.0,0.0,0.0,0.0,0.0,0.0,0.0,0.0,0.0,0.0,0.0,0.0,0.0,0.0,0.0,0.0,0.0,0.0,0.0,0.0,0.0,0.0,0.0,0.0,0.0,0.0,0.0,0.0,0.0,0.0,0.0,0.0,0.0,0.0,0.0,0.0,0.4331,0.4951,0.0,0.6155,0.6469,0.6218,0.6585,0.6593,0.6032,0.0,0.0,0.0,0.0,0.0,0.0,0.0,0.0,0.0,0.0,0.0,0.0,0.0,0.0,0.0,0.0,0.0,0.0,0.0,0.0,0.0,0.0,0.0,0.0,0.0,0.0,0.0,0.0,0.0,0.0,0.0,0.0,0.0,0.0,0.0,0.0,0.0,0.0,0.0,0.0,0.0,0.0,0.0,0.0,0.0,0.0,0.0,0.0,0.0,0.0,0.0,0.0,0.0,0.0,0.0,0.0,0.0,0.0,0.0,0.0,0.0,0.0,0.0,0.0,0.0,0.0,0.0,0.0,0.0,0.0,0.0,0.0,0.0,0.0,0.0,0.0,0.0,0.0,0.0,0.0,0.0,0.0,0.0,0.0,0.0,0.0,0.0,0.0,0.0,0.0,0.0,0.0,0.0,0.0,0.0,0.0,0.0,0.0,0.0,0.0,0.0,0.0,0.3603,0.4062,0.4561,0.0,0.576,0.6127,0.6043,0.643,0.6497,0.6091,0.0,0.0,0.0,0.0,0.0,0.0,0.0,0.0,0.0,0.0,0.0,0.0,0.0,0.0,0.0,0.0,0.0,0.0,0.0,0.0,0.0,0.0,0.0,0.0,0.0,0.0,0.0,0.0,0.0,0.0,0.0,0.0,0.0,0.0,0.0,0.0,0.0,0.0,0.0,0.0,0.0,0.0,0.0,0.0,0.0,0.0,0.0,0.0,0.0,0.0,0.0,0.0,0.0,0.0,0.0,0.0,0.0,0.0,0.0,0.0,0.0,0.0,0.0,0.0,0.0,0.0,0.0,0.0,0.0,0.0,0.0,0.0,0.0,0.0,0.0,0.0,0.0,0.0,0.0,0.0,0.0,0.0,0.0,0.0,0.0,0.0,0.0,0.0,0.0,0.0,0.0,0.0,0.0,0.0,0.0,0.0,0.0,0.0,0.0,0.0,0.0,0.0,0.3561,0.3719,0.4035,0.4636,0.5006,0.5332,0.5672,0.6004,0.6196,0.0,0.0,0.0,0.0,0.0,0.0,0.0,0.0,0.0,0.0,0.0,0.0,0.0,0.0,0.0,0.0,0.0,0.0,0.0,0.0,0.0,0.0,0.0,0.0,0.0,0.0,0.0,0.0,0.0,0.0,0.0,0.0,0.0,0.0,0.0,0.0,0.0,0.0,0.0,0.0,0.0,0.0,0.0,0.0,0.0,0.0,0.0,0.0,0.0,0.0,0.0,0.0,0.0,0.0,0.0,0.0,0.0,0.0,0.0,0.0,0.0,0.0,0.0,0.0,0.0,0.0,0.0,0.0,0.0,0.0,0.0,0.0,0.0,0.0,0.0,0.0,0.0,0.0,0.0,0.0,0.0,0.0,0.0,0.0,0.0,0.0,0.0,0.0,0.0,0.0,0.0,0.0,0.0,0.0,0.0,0.0,0.0,0.0,0.0,0.0,0.0,0.0,0.0,0.3818,0.383,0.4035,0.4636,0.5006,0.5332,0.5672,0.5663,0.5795,0.6173,0.0,0.0,0.0,0.0,0.0,0.0,0.0,0.0,0.0,0.0,0.0,0.0,0.0,0.0,0.0,0.0,0.0,0.0,0.0,0.0,0.0,0.0,0.0,0.0,0.0,0.0,0.0,0.0,0.0,0.0,0.0,0.0,0.0,0.0,0.0,0.0,0.0,0.0,0.0,0.0,0.0,0.0,0.0,0.0,0.0,0.0,0.0,0.0,0.0,0.0,0.0,0.0,0.0,0.0,0.0,0.0,0.0,0.0,0.0,0.0,0.0,0.0,0.0,0.0,0.0,0.0,0.0,0.0,0.0,0.0,0.0,0.0,0.0,0.0,0.0,0.0,0.0,0.0,0.0,0.0,0.0,0.0,0.0,0.0,0.0,0.0,0.0,0.0,0.0,0.0,0.0,0.0,0.0,0.0,0.0,0.0,0.0,0.0,0.0,0.0,0.0,0.0,0.3925,0.3863,0.4017,0.467,0.4986,0.5328,0.5737,0.5543,0.5556,0.5933,0.0,0.0,0.0,0.0,0.0,0.0,0.0,0.0,0.0,0.0,0.0,0.0,0.0,0.0,0.0,0.0,0.0,0.0,0.0,0.0,0.0,0.0,0.0,0.0,0.0,0.0,0.0,0.0,0.0,0.0,0.0,0.0,0.0,0.0,0.0,0.0,0.0,0.0,0.0,0.0,0.0,0.0,0.0,0.0,0.0,0.0,0.0,0.0,0.0,0.0,0.0,0.0,0.0,0.0,0.0,0.0,0.0,0.0,0.0,0.0,0.0,0.0,0.0,0.0,0.0,0.0,0.0,0.0,0.0,0.0,0.0,0.0,0.0,0.0,0.0,0.0,0.0,0.0,0.0,0.0,0.0,0.0,0.0,0.0,0.0,0.0,0.0,0.0,0.0,0.0,0.0,0.0,0.0,0.0,0.0,0.0,0.0,0.0,0.0,0.0,0.0,0.0,0.3912,0.3823,0.3978,0.4709,0.4981,0.5315,0.5835,0.5529,0.5391,0.5575,0.0,0.0,0.0,0.0,0.0,0.0,0.0,0.0,0.0,0.0,0.0,0.0,0.0,0.0,0.0,0.0,0.0,0.0,0.0,0.0,0.0,0.0,0.0,0.0,0.0,0.0,0.0,0.0,0.0,0.0,0.0,0.0,0.0,0.0,0.0,0.0,0.0,0.0,0.0,0.0,0.0,0.0,0.0,0.0,0.0,0.0,0.0,0.0,0.0,0.0,0.0,0.0,0.0,0.0,0.0,0.0,0.0,0.0,0.0,0.0,0.5669,0.0,0.0,0.0,0.0,0.0,0.0,0.0,0.0,0.0,0.0,0.0,0.0,0.0,0.0,0.0,0.0,0.0,0.0,0.0,0.0,0.0,0.0,0.0,0.0,0.0,0.0,0.0,0.0,0.0,0.0,0.0,0.0,0.0,0.0,0.0,0.0,0.0,0.0,0.0,0.0,0.0,0.3912,0.3823,0.3963,0.465,0.4952,0.5276,0.5704,0.5051,0.4874,0.548,0.4865,0.0,0.0,0.0,0.0,0.0,0.0,0.0,0.0,0.0,0.0,0.0,0.0,0.0,0.0,0.0,0.0,0.0,0.0,0.0,0.0,0.0,0.0,0.0,0.0,0.0,0.0,0.0,0.0,0.0,0.0,0.0,0.0,0.0,0.0,0.0,0.0,0.0,0.0,0.0,0.0,0.0,0.0,0.0,0.0,0.0,0.0,0.0,0.0,0.0,0.0,0.0,0.0,0.0,0.0,0.0,0.0,0.0,0.0,0.0,0.0,0.5765,0.0,0.0,0.0,0.0,0.0,0.0,0.0,0.0,0.0,0.0,0.0,0.0,0.0,0.0,0.0,0.0,0.0,0.0,0.0,0.0,0.0,0.0,0.0,0.0,0.0,0.0,0.0,0.0,0.0,0.0,0.0,0.0,0.0,0.0,0.0,0.0,0.0,0.0,0.0,0.0,0.3965,0.3869,0.3996,0.4631,0.4942,0.5262,0.5666,0.5137,0.5001,0.552,0.4846,0.0,0.0,0.0,0.0,0.0,0.0,0.0,0.0,0.0,0.0,0.0,0.0,0.0,0.0,0.0,0.0,0.0,0.0,0.0,0.0,0.0,0.0,0.0,0.0,0.0,0.0,0.0,0.0,0.0,0.0,0.0,0.0,0.0,0.0,0.0,0.0,0.0,0.0,0.0,0.0,0.0,0.0,0.0,0.0,0.0,0.0,0.0,0.0,0.0,0.0,0.0,0.0,0.0,0.6639,0.6774,0.6969,0.6953,0.6945,0.6906,0.6498,0.6328,0.6323,0.6121,0.0,0.0,0.0,0.0,0.0,0.0,0.0,0.0,0.0,0.0,0.0,0.0,0.0,0.0,0.0,0.0,0.0,0.0,0.0,0.0,0.0,0.0,0.0,0.0,0.662,0.6825,0.0,0.0,0.0,0.0,0.0,0.0,0.0,0.0,0.0,0.0,0.0,0.0,0.401,0.3939,0.4053,0.4636,0.4932,0.5243,0.5635,0.5359,0.5285,0.5563,0.5154,0.5212,0.0,0.0,0.0,0.0,0.0,0.0,0.0,0.0,0.0,0.0,0.0,0.0,0.0,0.0,0.0,0.0,0.0,0.0,0.0,0.0,0.0,0.0,0.0,0.0,0.0,0.0,0.0,0.0,0.0,0.0,0.0,0.0,0.5756,0.5724,0.0,0.0,0.0,0.0,0.0,0.0,0.0,0.0,0.0,0.0,0.0,0.0,0.0,0.5953,0.6573,0.6635,0.7147,0.811,0.8125,0.8383,0.8843,0.8783,0.8577,0.8221,0.7769,0.0,0.6903,0.6987,0.0,0.0,0.0,0.0,0.0,0.0,0.0,0.0,0.0,0.0,0.0,0.0,0.0,0.0,0.0,0.0,0.0,0.0,0.0,0.0,0.0,0.0,0.5918,0.6238,0.6696,0.7072,0.0,0.7129,0.7327,0.7971,0.7886,0.0,0.0,0.0,0.0,0.0,0.0,0.0,0.3986,0.3988,0.416,0.4646,0.4887,0.5156,0.5497,0.5224,0.5168,0.5489,0.5124,0.5257,0.6036,0.6072,0.0,0.0,0.0,0.0,0.0,0.0,0.0,0.0,0.0,0.0,0.0,0.0,0.0,0.0,0.0,0.0,0.0,0.0,0.0,0.0,0.0,0.0,0.0,0.0,0.0,0.0,0.0,0.0,0.0,0.5182,0.5351,0.5649,0.5653,0.5744,0.0,0.0,0.0,0.0,0.0,0.0,0.0,0.0,0.0,0.6353,0.6839,0.727,0.7638,0.7871,0.8233,0.8739,0.8739,0.8861,0.909,0.9055,0.8947,0.8777,0.8604,0.8424,0.8168,0.7327,0.7311,0.7841,0.0,0.0,0.0,0.0,0.8056,0.7934,0.7993,0.8127,0.0,0.8384,0.0,0.0,0.0,0.0,0.0,0.0,0.0,0.0,0.0,0.0,0.6334,0.6486,0.6937,0.7316,0.7321,0.7377,0.7562,0.0,0.805,0.7946,0.7726,0.0,0.0,0.0,0.0,0.4198,0.4223,0.4221,0.4359,0.4724,0.4936,0.5161,0.5415,0.5417,0.5548,0.593,0.5572,0.5704,0.6516,0.6226,0.6435,0.0,0.0,0.0,0.0,0.0,0.0,0.0,0.0,0.0,0.0,0.0,0.0,0.0,0.0,0.0,0.0,0.0,0.0,0.0,0.0,0.0,0.0,0.0,0.0,0.0,0.0,0.0,0.0,0.4939,0.5277,0.5725,0.5988,0.623,0.0,0.0,0.0,0.0,0.0,0.0,0.6352,0.6802,0.7142,0.7331,0.7968,0.8412,0.8632,0.8928,0.9159,0.9326,0.9326,0.9326,0.9326,0.9326,0.9268,0.9161,0.9212,0.9203,0.9082,0.7914,0.7717,0.8182,0.8375,0.8584,0.8795,0.8951,0.8988,0.8967,0.9022,0.9105,0.9189,0.9226,0.0,0.8742,0.845,0.0,0.0,0.0,0.0,0.5956,0.5957,0.6325,0.6711,0.6765,0.724,0.765,0.7531,0.7706,0.7903,0.0,0.8121,0.812,0.7869,0.0,0.0,0.0,0.0,0.4641,0.4453,0.4451,0.4573,0.4827,0.5,0.518,0.5381,0.5583,0.587,0.6273,0.6055,0.6201,0.6869,0.6555,0.6544,0.6945,0.0,0.0,0.0,0.0,0.0,0.0,0.0,0.0,0.0,0.0,0.0,0.0,0.0,0.0,0.0,0.0,0.0,0.0,0.0,0.0,0.0,0.0,0.0,0.0,0.0,0.0,0.0,0.0,0.0,0.6235,0.6555,0.0,0.0,0.0,0.0,0.6745,0.676,0.6929,0.7313,0.7772,0.8259,0.8771,0.8829,0.9084,0.9524,0.9554,0.9786,1.0224,1.0224,1.0224,1.0224,1.0224,0.999,0.9572,0.9572,0.9392,0.9111,0.9156,0.927,0.9392,0.9221,0.9312,0.9516,0.9345,0.9674,1.0241,1.0429,1.0737,1.109,1.1205,1.0857,1.0252,0.9536,0.8894,0.0,0.0,0.7319,0.6889,0.6704,0.6821,0.6982,0.6988,0.7587,0.8093,0.7831,0.8094,0.8365,0.0,0.8277,0.825,0.8422,0.0,0.7134,0.622,0.5609,0.5076,0.4563,0.4601,0.4762,0.4966,0.5059,0.518,0.5381,0.5583,0.587,0.6273,0.6394,0.6592,0.6882,0.6993,0.7055,0.7096,0.7055,0.0,0.0,0.0,0.0,0.0,0.0,0.0,0.0,0.0,0.0,0.0,0.0,0.0,0.0,0.0,0.0,0.0,0.0,0.0,0.0,0.0,0.0,0.0,0.0,0.0,0.0,0.0,0.0,0.721,0.783,0.0,0.8561,0.8445,0.8323,0.8222,0.8218,0.8276,0.8422,0.8835,0.9152,0.9343,0.9642,0.9874,1.0049,1.0049,1.0127,1.0303,1.0303,1.0303,1.0303,1.0303,1.0205,1.0049,1.0049,0.998,0.989,1.0107,0.9968,0.9631,0.9643,0.981,1.0058,1.0122,1.029,1.0501,1.0578,1.0746,1.0921,1.0797,1.0519,1.0117,0.9467,0.8943,0.8471,0.8004,0.7603,0.7285,0.7132,0.7271,0.7433,0.7343,0.793,0.8388,0.7905,0.8115,0.8299,0.7953,0.7814,0.7765,0.779,0.7523,0.7119,0.6569,0.6318,0.5966,0.5298,0.5285,0.5272,0.5083,0.5205,0.5359,0.5514,0.5669,0.5916,0.6278,0.6423,0.6617,0.6882,0.7406,0.7501,0.711,0.7793,0.7845,0.0,0.0,0.0,0.0,0.0,0.0,0.0,0.0,0.0,0.0,0.0,0.0,0.0,0.0,0.0,0.0,0.0,0.0,0.0,0.0,0.0,0.0,0.0,0.0,0.0,0.0,0.7569,0.8195,0.881,0.922,0.9355,0.9369,0.9268,0.9021,0.9132,0.9201,0.9201,0.9601,0.9835,0.9835,1.0146,1.0303,1.0303,1.0303,1.0283,1.0225,1.0225,1.0215,1.0196,1.0225,1.0215,1.0196,1.0225,1.0196,1.0156,1.0376,1.0238,0.992,1.003,1.0223,1.0469,1.0491,1.0617,1.0778,1.0871,1.093,1.093,1.0707,1.0405,1.0041,0.9556,0.9094,0.8658,0.8301,0.7863,0.7478,0.7393,0.7503,0.7632,0.7639,0.828,0.8743,0.8132,0.8323,0.8394,0.7704,0.7554,0.7519,0.7448,0.7355,0.7179,0.6824,0.6766,0.6563,0.5974,0.5964,0.5862,0.5477,0.5622,0.5718,0.5667,0.5828,0.605,0.6322,0.6678,0.6983,0.7222,0.7941,0.8145,0.7751,0.853,0.8715,0.8279,0.0,0.0,0.0,0.0,0.0,0.0,0.0,0.0,0.0,0.0,0.0,0.0,0.0,0.0,0.0,0.0,0.0,0.0,0.0,0.0,0.0,0.0,0.0,0.781,0.8054,0.8492,0.9145,0.9416,0.9492,0.9355,0.9339,0.9254,0.9051,0.9406,0.9621,0.9621,1.0049,1.0303,1.0303,1.0303,1.0303,1.0303,1.0303,1.0225,1.0098,1.0098,1.0059,1.0,1.0069,1.0059,1.0,1.0069,0.999,0.982,0.9959,1.0129,1.0313,1.0375,1.0542,1.0743,1.0411,1.0619,1.1112,1.1368,1.1368,1.1238,1.1103,1.0659,1.0133,0.986,0.9413,0.8976,0.8831,0.8163,0.7499,0.7511,0.7502,0.7575,0.785,0.8624,0.9136,0.853,0.8711,0.8689,0.7704,0.7552,0.7581,0.7503,0.7497,0.7372,0.698,0.692,0.0,0.6559,0.6591,0.6505,0.6173,0.6319,0.6276,0.5889,0.611,0.6315,0.6449,0.719,0.7717,0.7927,0.8647,0.9042,0.9073,0.9217,0.9471,0.9845,0.0,0.0,0.0,0.0,0.0,0.0,0.0,0.0,0.0,0.0,0.0,0.0,0.0,0.0,0.0,0.0,0.0,0.0,0.0,0.0,0.0,0.0,0.7984,0.7888,0.8683,0.9369,0.9605,1.0168,1.0444,1.0257,1.0239,1.0155,0.996,1.0049,1.0117,1.0117,1.0224,1.0303,1.0303,1.0303,1.0303,1.0303,1.0303,1.0225,1.0098,1.0098,1.0059,1.0,1.0069,1.0059,1.0,1.0019,1.0051,1.0102,1.0181,1.0286,1.0359,1.0188,1.0218,1.0337,1.0147,1.0268,1.0514,1.0552,1.0531,1.0467,1.0233,0.9976,0.9712,0.9452,0.9126,0.8831,0.8699,0.8094,0.7547,0.7732,0.7717,0.7746,0.8167,0.8682,0.8984,0.8616,0.8624,0.8503,0.7788,0.7666,0.7583,0.7331,0.7407,0.7467,0.7353,0.7453,0.0,0.712,0.7227,0.722,0.6932,0.7075,0.7191,0.7179,0.7386,0.7557,0.7689,0.8052,0.8367,0.8614,0.934,1.0048,1.0737,1.1017,1.1116,0.0,0.0,0.0,0.0,0.0,0.0,0.0,0.0,0.0,0.0,0.0,0.0,0.0,0.0,0.0,0.0,0.0,0.0,0.0,0.0,0.0,0.0,0.8897,0.9018,0.911,0.9478,0.9834,1.0097,1.0594,1.0824,1.0621,1.0602,1.0515,1.0322,1.0303,1.0303,1.0303,1.0303,1.0303,1.0303,1.0303,1.0303,1.0303,1.0303,1.0215,1.0059,1.0059,1.0,0.9881,0.9941,0.9873,0.0,0.9705,0.9703,0.9705,0.9807,0.9847,0.0,0.0,0.0,0.0,0.0,0.9947,1.0084,1.0051,0.9991,0.9919,0.9705,0.9504,0.9335,0.9237,0.9008,0.8791,0.8771,0.8238,0.7707,0.7923,0.7906,0.7933,0.8345,0.8753,0.8977,0.8737,0.8644,0.8424,0.782,0.7725,0.0,0.7412,0.7464,0.7547,0.7578,0.7727,0.7818,0.7729,0.7895,0.7921,0.7683,0.787,0.7981,0.7908,0.8093,0.0,0.0,0.0,0.9312,0.9804,1.0418,0.0,0.0,0.0,1.2203,1.2206,0.0,0.0,0.0,1.0844,1.0645,0.0,0.0,0.0,0.0,0.0,0.0,0.0,0.0,0.0,0.0,0.0,0.0,0.0,0.0,0.0,0.0,1.005,1.0438,1.0824,1.0381,1.0198,1.0674,1.089,1.0918,1.0682,1.0663,1.0585,1.0381,1.0371,1.0391,1.044,0.0,0.0,0.0,0.0,1.0371,1.0371,1.0322,1.0196,1.0,1.0,0.9891,0.9683,0.9734,0.9586,0.9259,0.9249,0.9156,0.9035,0.9111,0.9126,0.9141,0.9684,0.9814,0.9697,0.9575,0.9616,0.9727,0.9721,0.0,0.0,0.9374,0.9185,0.9021,0.9159,0.9048,0.8897,0.9035,0.8591,0.8097,0.8207,0.8209,0.8263,0.8572,0.8885,0.9067,0.891,0.8711,0.8402,0.7869,0.7802,0.7827,0.7756,0.7729,0.7746,0.78,0.7992,0.8217,0.8466,0.8645,0.8688,0.8539,0.0,0.0,0.8454,0.8605,0.8772,0.8915,0.9622,1.0355,1.1059,1.1611,1.2021,1.2263,1.2564,1.287,1.3198,1.3021,1.2908,1.2808,1.1936,1.1365,0.0,0.0,0.0,0.0,0.0,0.0,0.0,0.0,0.0,0.0,0.0,0.0,0.0,0.0,0.0,1.0457,1.0726,1.105,1.1398,1.1383,1.1367,1.1468,1.1615,1.1517,1.1054,1.0994,1.0944,1.0801,1.0781,1.0958,1.1321,1.1351,1.1351,1.1351,1.0987,1.0781,1.0781,1.0459,1.0196,1.0,0.0,0.0,0.9543,0.9556,0.9378,0.9056,0.894,0.8996,0.9143,0.8955,0.8929,0.903,0.9151,0.9172,0.9146,0.9126,0.9198,0.9303,0.9192,0.914,0.9093,0.8956,0.8956,0.9021,0.9159,0.9237,0.0,0.9452,0.9298,0.9098,0.9077,0.918,0.9333,0.9502,0.9356,0.9213,0.9337,0.8836,0.8309,0.8143,0.8115,0.8232,0.8582,0.8554,0.849,0.8498,0.9083,0.9576,0.973,0.969,0.9714,0.9899,0.9809,0.9767,0.9814,0.9954,1.0105,1.0301,1.0662,1.0907,1.1015,1.1987,1.2408,1.2139,1.2977,1.3335,1.3198,1.3163,1.3112,1.3025,1.2519,1.2088,0.0,0.0,0.0,0.0,0.0,0.0,0.0,0.0,0.0,0.0,0.0,1.0452,1.0787,0.0,1.1101,1.1696,1.177,1.1863,1.2204,1.2273,1.215,1.175,1.1821,1.1774,1.1429,1.1398,1.1357,1.1261,1.1314,1.1446,1.1694,1.1759,1.1801,1.1801,1.1507,1.1357,1.1357,1.0851,1.0505,1.0293,1.0025,0.9704,0.9346,0.9277,0.9017,0.8594,0.8454,0.8532,0.8755,0.8782,0.8875,0.8995,0.8995,0.9048,0.91,0.91,0.9271,0.9472,0.9342,0.9342,0.9375,0.9237,0.925,0.9342,0.9537,0.9693,0.9855,1.0164,1.013,0.9979,0.9874,0.9928,1.0029,1.0175,0.9791,0.9449,0.9657,0.8984,0.8329,0.8262,0.8497,0.8788,0.9052,0.9629,0.9915,0.9513,0.9855,1.0239,1.047,1.0586,1.0651,1.0645,1.0679,1.0631,1.0461,1.0632,1.0944,1.1362,1.1236,1.124,1.1446,1.2136,1.2481,1.2447,1.3147,1.3399,1.3198,1.3198,1.3305,1.3486,1.3262,1.2903,0.0,0.0,0.0,0.0,0.0,0.0,0.0,0.0,1.1465,1.1506,1.1526,1.171,1.2237,1.2041,1.2058,1.2818,1.2726,1.2639,1.2868,1.2905,1.2653,1.2004,1.2035,1.2018,1.1818,1.1797,1.1765,1.1723,1.1844,1.196,1.205,1.2171,1.2227,1.2227,1.2036,1.1921,1.1921,1.1324,1.092,1.0668,1.0205,0.9742,0.929,0.9135,0.8773,0.8272,0.8152,0.8208,0.8403,0.8712,0.8929,0.9087,0.9113,0.9224,0.9381,0.9316,0.9498,0.9792,0.9712,0.9751,0.9823,0.9718,0.9718,0.9803,1.0069,1.0313,1.0582,1.1027,1.1078,1.0962,1.0752,1.0701,1.0714,1.0732,1.0257,0.982,0.9915,0.9268,0.8638,0.8517,0.8977,0.9462,0.9689,1.0731,1.1287,1.0557,1.0699,1.0999,1.1312,1.156,1.1635,1.1468,1.1615,1.1567,1.1223,1.1402,1.1741,1.2223,1.1793,1.1652,1.1955,1.2276,1.2535,1.2761,1.3181,1.339,1.3366,1.3366,1.3622,1.4094,1.4004,1.3681,1.2822,1.1727,1.0668,1.043,1.0724,1.1105,0.0,0.0,1.2337,1.2282,1.292,1.3423,1.3211,1.3416,1.3488,1.3142,1.3106,1.306,1.292,1.2905,1.2876,1.278,1.277,1.2624,1.2186,1.2135,1.2135,1.2135,1.2265,1.2513,1.293,1.3028,1.3067,1.3067,1.2591,1.2335,1.2335,1.1787,1.1332,1.095,1.0772,1.0323,0.9627,0.9386,0.8998,0.8552,0.8476,0.852,0.8672,0.889,0.9126,0.9361,0.9491,0.9764,1.0043,0.9686,0.9653,0.9814,0.9917,0.9969,0.9981,0.9961,1.0118,1.0357,1.0625,1.1095,1.1606,1.1959,1.2249,1.2347,1.1867,1.1784,1.1723,1.1325,1.085,1.0411,1.0141,0.9853,0.9552,0.9243,0.9678,1.0338,1.1122,1.1681,1.1865,1.1429,1.208,1.2703,1.2913,1.2871,1.2878,1.3032,1.292,1.2853,1.2915,1.2993,1.299,1.282,1.269,1.2506,1.2268,1.268,1.2836,1.2623,1.3123,1.3598,1.4006,1.4006,1.4264,1.4777,1.4608,1.4283,1.3039,1.2123,0.0,0.0,1.1961,1.263,1.2746,1.3543,1.4196,1.4058,1.4245,1.4394,1.4219,1.403,1.3839,0.0,1.3451,1.3252,1.3039,1.3014,1.3,1.2905,1.2905,1.2825,1.2627,1.2607,1.2607,1.2607,1.2768,1.2944,1.3144,1.3324,1.3421,1.3421,1.3061,1.2866,1.2866,1.2183,1.1683,1.1398,1.0876,1.0284,0.964,0.9368,0.8943,0.8433,0.8513,0.8632,0.879,0.9181,0.9556,0.9888,1.001,1.0382,1.0786,1.0254,1.0318,1.0689,1.074,1.0859,1.0998,1.1074,1.1183,1.1334,1.1642,1.2018,1.2418,1.2796,1.306,1.3061,1.2373,1.2276,1.2194,1.1575,1.1091,1.0742,1.0605,1.028,1.0001,0.9896,1.0525,1.1265,1.1854,1.2663,1.3207,1.3184,1.3288,1.345,1.3697,1.3845,1.3921,1.3896,1.3527,1.3446,1.3801,1.3471,1.3258,1.3303,1.2836,1.2566,1.2596,1.2699,1.3008,1.3527,1.3707,1.4064,1.4563,1.4563,1.4843,1.5364,1.5196,1.505,1.3115,0.0,0.0,1.2482,1.3326,1.4185,1.4241,1.503,1.5716,1.5469,1.5253,1.5087,1.5087,1.4463,1.3994,1.4099,1.3775,1.3454,1.3258,1.3244,1.3198,1.3101,1.3089,1.3077,1.3041,1.2954,1.2905,1.2905,1.3067,1.3168,1.3168,1.3372,1.3491,1.3491,1.3276,1.3168,1.3168,1.2525,1.2049,1.1752,1.1042,1.0372,0.9704,0.9402,0.9034,0.8662,0.8809,0.897,0.9161,0.959,1.0035,1.0467,1.0633,1.1065,1.1531,1.1129,1.1192,1.1469,1.1515,1.1669,1.1877,1.1993,1.2116,1.2267,1.2621,1.2936,1.327,1.3649,1.3788,1.3636,1.2829,1.2637,1.2454,1.1681,1.1273,1.1032,1.0954,1.0776,1.0651,1.0678,1.1462,1.2253,1.2723,1.3602,1.435,1.4627,1.4426,1.4261,1.4366,1.4643,1.4774,1.4674,1.4304,1.429,1.4863,1.4219,1.3885,1.4111,1.337,1.3008,1.3205,1.3117,1.3484,1.4379,1.4348,1.4579,1.5123,1.5123,1.5399,1.5919,1.5755,1.5679,0.0,0.0,1.3922,1.3863,1.4743,1.5643,1.5642,1.6072,1.6382,1.6047,1.5752,1.5628,1.5749,1.4847,1.416,1.4354,1.4046,1.3739,1.3609,1.3575,1.3575,1.3575,1.3585,1.3527,0.0,1.3091,1.2905,1.2905,1.3027,1.3099,1.3099,1.3166,1.3208,1.3208,1.314,1.3099,1.3099,1.2813,1.2412,1.1897,1.1468,1.0817,0.9969,0.9573,0.9462,0.9559,0.9566,0.9723,0.9971,1.012,1.0531,1.1099,1.1364,1.1803,1.2274,1.2406,1.22,1.1902,1.2026,1.2163,1.2286,1.2363,1.265,1.303,1.3438,1.3849,1.4234,1.4571,1.4513,1.4189,1.3374,1.2984,1.2579,1.1714,1.1493,1.1388,1.1069,1.1391,1.1727,1.1669,1.2474,1.3344,1.3935,1.4511,1.4997,1.5329,1.547,1.5433,1.5105,1.5247,1.5418,1.5551,1.5551,1.5787,1.6375,1.5694,1.5301,1.5433,1.4694,1.4256,1.4249,1.4247,1.4456,1.4878,1.4881,1.5135,1.5678,1.5678,1.5957,1.6475,1.6272,1.6033,0.0,0.0,1.541,1.5203,1.5803,1.6367,1.6149,1.6546,1.6766,1.6069,1.5759,1.543,1.4835,1.4241,1.3922,1.416,1.4005,1.3934,1.412,1.4128,1.4059,1.3884,1.3798,0.0,0.0,0.0,0.0,1.3118,1.3226,1.3262,1.3168,1.3276,1.329,1.3206,1.3128,1.3061,1.2976,1.2615,1.2163,1.1628,1.096,1.0475,1.0187,0.9921,0.9875,0.9997,1.0087,1.0262,1.0501,1.0901,1.128,1.1665,1.1927,1.2298,1.2713,1.2803,1.2927,1.3011,1.289,1.2975,1.3202,1.3394,1.361,1.3884,1.4329,1.4617,1.4835,1.504,1.4857,1.4426,1.3718,1.3455,1.3151,1.2191,1.2126,1.2183,1.1816,1.2049,1.2401,1.2647,1.3293,1.3965,1.4533,1.5037,1.564,1.6472,1.6413,1.624,1.6172,1.6579,1.6884,1.6978,1.6986,1.6996,1.7032,1.6744,1.6436,1.6121,1.5716,1.5372,1.5114,1.497,1.5111,1.5549,1.5479,1.568,1.6222,1.6222,1.6323,1.65,1.6286,1.6069,0.0,1.6317,1.643,1.6354,1.6681,1.693,1.6609,1.6655,1.6607,1.6018,1.5424,1.4849,1.4392,1.3925,1.3759,1.4267,1.4241,1.4303,1.4733,1.48,1.4709,1.449,1.435,0.0,0.0,0.0,0.0,1.3218,1.3278,1.3276,1.3166,1.325,1.3226,1.3106,1.3053,1.2954,1.2832,1.248,1.1893,1.1103,1.0488,1.0187,1.02,1.0283,1.0424,1.0595,1.0786,1.0964,1.1162,1.1544,1.1877,1.2138,1.2406,1.2749,1.3104,1.329,1.3625,1.3942,1.3552,1.3622,1.3928,1.4139,1.4385,1.4663,1.5017,1.521,1.5311,1.5357,1.5051,1.4562,1.3928,1.374,1.351,1.2771,1.2852,1.3011,1.2698,1.2941,1.3268,1.3484,1.3981,1.4556,1.5067,1.5743,1.6432,1.7102,1.7364,1.7412,1.7195,1.7437,1.765,1.7705,1.7705,1.7721,1.776,1.7479,1.7198,1.6944,1.6534,1.6204,1.5938,1.5713,1.5784,1.6173,1.6046,1.616,1.65,1.65,1.65,1.65,1.634,1.6155,1.7001,1.7127,1.7071,1.7283,1.7389,1.7361,1.7057,1.6479,1.5974,1.5873,1.4805,1.4007,0.0,0.0,1.3717,1.465,1.47,1.4847,1.5431,1.5526,1.5493,0.0,0.0,0.0,0.0,0.0,0.0,1.3296,0.0,1.319,1.3111,1.3109,1.3039,1.2905,1.2905,1.2832,1.2688,1.2394,1.1631,1.0416,1.0154,1.0025,1.0064,1.0654,1.1087,1.1352,1.1606,1.1803,1.194,1.2076,1.2274,1.2554,1.282,1.3128,1.3479,1.3872,1.4317,1.464,1.407,1.414,1.4488,1.4604,1.496,1.5344,1.5479,1.5603,1.567,1.5524,1.5097,1.4573,1.4061,1.3839,1.3674,1.3431,1.3636,1.3847,1.3723,1.4058,1.4366,1.4252,1.4671,1.5199,1.5654,1.6678,1.7403,1.733,1.8375,1.889,1.813,1.7894,1.7795,1.7795,1.7795,1.8031,1.8609,1.8017,1.7705,1.7951,1.7235,1.6797,1.6761,1.6497,1.6472,1.6718,1.6565,1.65,1.65,1.65,1.65,1.65,1.6425,1.6329,1.7608,1.8072,1.8461,1.7894,1.7752,1.7607,1.6925,1.6339,1.5774,1.5257,1.4494,1.38,0.0,0.0,0.0,1.4557,1.4869,0.0,1.5653,1.5901,0.0,0.0,0.0,1.5803,1.552,1.5166,0.0,0.0,1.365,1.3396,1.3192,1.3168,1.3082,1.2917,1.2905,1.2796,1.2554,1.179,1.1141,1.0616,1.045,1.0475,1.0693,1.1137,1.1481,1.1765,1.2026,1.2163,1.2212,1.2446,1.2652,1.2822,1.3045,1.336,1.3751,1.4151,1.4593,1.4994,1.5051,1.513,1.5221,1.5323,1.5491,1.5703,1.5835,1.5757,1.5591,1.54,1.4926,1.4444,1.4311,1.4324,1.4373,1.4346,1.468,1.4983,1.4952,1.5262,1.5649,1.5979,1.6671,1.7309,1.7631,1.8462,1.9053,1.8936,1.9528,1.966,1.8721,1.8934,1.919,1.919,1.919,1.9221,1.9349,1.9173,1.8986,1.8817,1.8463,1.8087,1.7686,1.732,1.7032,1.6844,1.6618,1.65,1.65,1.65,1.65,1.65,1.6425,1.6371,1.8623,1.8821,1.8844,1.8259,1.7921,1.748,1.6486,1.5858,1.5289,1.4673,1.4037,0.0,0.0,0.0,0.0,0.0,0.0,0.0,1.6188,1.631,1.6362,0.0,1.634,0.0,1.5908,1.5442,1.4961,0.0,1.4018,1.3559,1.3176,1.3164,1.3079,1.2905,1.2905,1.2747,1.2419,1.1706,1.1175,1.0782,1.0769,1.0807,1.0922,1.1502,1.1877,1.2088,0.0,1.2566,1.2578,1.2796,1.2932,1.3067,1.3348,1.3716,1.4116,1.4617,1.5051,1.5446,1.578,1.5912,1.5923,1.5812,1.5913,1.6055,1.6012,1.5845,1.5613,1.53,1.488,1.4524,1.4524,1.4673,1.4903,1.5268,1.5687,1.6025,1.6086,1.6435,1.6836,1.7152,1.774,1.8223,1.8408,1.9139,1.9641,1.9473,1.9898,1.9978,1.9327,1.9519,1.9708,1.9708,1.9708,1.9681,1.9641,1.9641,1.9532,1.9256,1.8998,1.8611,1.8115,1.7639,1.724,1.6907,1.6639,1.65,1.65,1.65,1.65,1.65,1.6457,1.6436,1.9652,1.9405,1.8895,1.8478,1.7976,1.7259,1.5988,1.5286,1.4752,1.4207,0.0,0.0,1.3193,0.0,1.4305,1.4692,0.0,1.5752,1.6626,1.663,1.6646,1.6896,1.661,1.6309,1.6093,1.5558,1.5155,1.5011,1.4392,1.3768,1.3206,1.3127,1.3049,1.2905,1.293,1.2746,1.2332,1.1952,1.1506,1.1036,1.115,1.115,1.1087,1.1828,1.2224,1.2372,1.2747,0.0,1.2942,1.3051,1.3174,1.3314,1.3704,1.4127,1.4558,1.513,1.5557,1.5903,1.6262,1.6436,1.6457,1.6152,1.6219,1.636,1.611,1.5913,1.5703,1.5255,1.4926,1.4742,1.4777,1.4994,1.5378,1.6133,1.6616,1.6969,1.7165,1.7623,1.8014,1.8186,1.8476,1.8726,1.8795,1.9374,1.9782,1.958,1.9859,2.0021,1.9842,1.9753,1.9708,1.9708,1.9708,1.9708,1.9708,1.9708,1.9617,1.9413,1.9101,1.8721,1.8228,1.7723,1.7282,1.695,1.6673,1.6522,1.6522,1.6511,1.6511,1.6522,1.6522,1.6543,1.9597,1.9939,2.0143,1.8615,1.8164,1.7662,1.6057,1.5286,0.0,0.0,0.0,1.3772,1.3216,1.3939,0.0,1.4057,0.0,0.0,0.0,0.0,1.6831,0.0,0.0,0.0,0.0,0.0,0.0,0.0,0.0,1.4336,1.3637,1.3286,1.3049,1.2905,1.3113,1.2985,1.2468,1.2175,1.1927,1.1728,1.1744,1.1815,1.1902,1.2271,1.2505,1.2639,1.282,0.0,1.3073,1.3097,1.3342,1.3727,1.4012,1.4478,1.5028,1.5412,1.5802,1.6167,1.634,1.6436,1.6489,1.6423,1.6446,1.6446,1.6231,1.5991,1.5726,1.538,1.5074,1.4926,1.522,1.5478,1.5876,1.6665,1.7214,1.769,1.8209,1.8907,1.9506,1.9749,2.0077,2.0316,2.039,2.0525,2.0538,2.0339,2.0195,2.0072,1.9973,1.9806,1.9708,1.9708,1.9708,1.9708,1.9708,1.9708,1.9617,1.9413,1.9185,1.8822,1.8309,1.7868,1.7485,1.7147,1.6823,1.6665,1.6665,1.6543,1.6554,1.6665,1.6665,1.6748,2.0681,2.0662,2.0443,1.897,1.8405,1.7689,1.5728,0.0,0.0,0.0,0.0,1.3982,1.3584,0.0,0.0,0.0,0.0,0.0,0.0,0.0,0.0,0.0,0.0,0.0,0.0,0.0,0.0,0.0,0.0,1.4539,1.3933,1.372,1.3586,1.3535,1.3653,1.3584,1.3279,1.2906,1.2616,1.2417,1.2277,1.22,1.2212,1.248,1.2639,1.271,1.2844,0.0,1.3109,1.321,1.3549,1.4046,1.435,1.4823,1.5401,1.5702,1.6022,1.6318,1.6414,1.6468,1.65,1.65,1.65,1.6479,1.634,1.6166,1.5947,1.5637,1.5524,1.5535,1.5757,1.6075,1.6516,1.7242,1.8001,1.8717,1.9227,1.9776,2.0234,2.0462,2.0736,2.09,2.086,2.0794,2.067,2.0485,2.022,2.0017,1.9911,1.978,1.9708,1.9708,1.9708,1.9708,1.9708,1.9708,1.9617,1.9413,1.9204,1.8893,1.8421,1.8052,1.771,1.7352,1.7094,1.6928,1.6867,1.6759,1.6759,1.6867,1.6867,1.6981,2.1534,2.1229,2.0606,1.9359,1.853,1.751,1.5446,1.4844,0.0,0.0,0.0,1.4237,1.4082,0.0,0.0,0.0,0.0,0.0,0.0,0.0,0.0,0.0,0.0,0.0,0.0,0.0,0.0,0.0,0.0,0.0,1.4133,1.4202,1.4202,1.4091,1.4202,1.4184,1.4016,1.3565,1.324,1.3012,1.2732,1.2529,1.2443,1.2652,1.2747,1.2747,1.2856,0.0,0.0,1.337,1.3777,1.435,1.4662,1.5142,1.5713,1.5944,1.6197,1.6425,1.6479,1.65,1.65,1.65,1.65,1.6489,1.6414,1.6329,1.6188,1.5947,1.5979,1.6132,1.6317,1.6659,1.7141,1.7914,1.8845,1.9669,2.0028,2.0395,2.0721,2.0884,2.1031,2.1103,2.0966,2.0778,2.0594,2.0417,2.0148,1.9919,1.9806,1.9744,1.9708,1.9708,1.9708,1.9708,1.9708,1.9708,1.9626,1.945,1.9274,1.8998,1.8639,1.8309,1.7978,1.769,1.7424,1.724,1.7105,1.7013,1.7013,1.7105,1.7136,1.7303,2.1128,2.1284,2.122,1.9585,1.8371,1.7142,1.5548,0.0,0.0,0.0,1.4522,1.4773,1.4572,1.4966,0.0,0.0,0.0,0.0,0.0,0.0,0.0,0.0,0.0,0.0,0.0,0.0,0.0,0.0,0.0,0.0,1.4139,1.4498,1.4541,1.41,1.4508,1.4531,1.41,1.3695,1.3468,1.3442,1.3051,1.2856,1.2844,1.2869,1.2881,1.2881,1.2893,0.0,0.0,1.3515,1.4011,1.4674,1.496,1.5423,1.599,1.6133,1.6318,1.6489,1.65,1.65,1.65,1.65,1.65,1.6489,1.6414,1.6382,1.6351,1.6199,1.6264,1.6457,1.6837,1.7173,1.7703,1.8807,1.9612,2.0182,2.0405,2.0853,2.123,2.1246,2.1262,2.123,2.1103,2.0769,2.0468,2.0339,2.0028,1.9806,1.9797,1.9744,1.9708,1.9708,1.9708,1.9708,1.9708,1.9708,1.9663,1.9584,1.9455,1.9274,1.9045,1.8726,1.8432,1.8226,1.7848,1.7588,1.7444,1.7261,1.7272,1.7455,1.7578,1.7814,2.1322,2.1392,2.11,2.0054,1.8727,1.7286,1.5727,0.0,0.0,1.4687,1.4857,1.5016,1.5167,1.5385,1.5397,0.0,0.0,0.0,0.0,0.0,0.0,0.0,0.0,0.0,0.0,0.0,0.0,0.0,0.0,0.0,1.4894,1.5068,1.5088,1.4888,1.5054,1.5064,1.4874,1.4482,1.4141,1.3864,1.3457,1.3125,1.2905,1.2905,1.2942,1.3014,1.3014,0.0,0.0,1.3751,1.4233,1.4857,1.5198,1.5658,1.6144,1.6275,1.6392,1.65,1.65,1.65,1.65,1.65,1.65,1.65,1.6468,1.6457,1.6468,1.6493,1.6631,1.6863,1.7307,1.802,1.8836,1.9621,2.0225,2.0697,2.0975,2.1347,2.1595,2.1541,2.1441,2.1277,2.1023,2.0653,2.033,2.0148,1.9895,1.9744,1.9744,1.9726,1.9708,1.9708,1.9708,1.9708,1.9708,1.9708,1.9663,1.9602,1.9547,1.9422,1.9237,1.9092,1.8888,1.8611,1.8354,1.8157,1.7978,1.7865,1.7865,1.7978,1.8038,1.8224,2.0771,2.0875,2.0553,1.9767,1.852,1.7115,0.0,0.0,1.4497,1.4902,1.5005,1.5157,1.5552,1.5738,1.5788,0.0,0.0,0.0,0.0,0.0,0.0,0.0,0.0,0.0,0.0,0.0,0.0,0.0,0.0,0.0,1.5875,1.5875,1.5728,1.5405,1.5396,1.5396,1.5396,1.5,1.4629,1.4299,1.3883,1.3561,1.3339,1.3199,1.3227,1.3388,1.3246,0.0,0.0,1.401,1.4454,1.5006,1.5401,1.5825,1.6222,1.6351,1.6436,1.65,1.65,1.65,1.6511,1.6556,1.6554,1.6565,1.6629,1.6607,1.6599,1.6718,1.7044,1.7458,1.7938,1.8812,1.9696,2.0191,2.0689,2.1127,2.1417,2.1715,2.1895,2.1783,2.1617,2.1378,2.1047,2.067,2.0347,2.0155,1.9981,1.9878,1.9878,1.9878,1.986,1.9824,1.9824,1.9797,1.9717,1.9708,1.9681,1.9623,1.9638,1.9569,1.9417,1.9404,1.9265,1.8988,1.8831,1.8669,1.8471,1.8411,1.8411,1.8471,1.851,1.8664,1.9112,1.951,1.9621,1.8417,1.7406,1.6434,0.0,0.0,1.4217,1.462,1.4909,1.5222,1.5623,1.6082,1.6349,1.621,0.0,0.0,0.0,0.0,0.0,0.0,0.0,0.0,0.0,0.0,0.0,0.0,0.0,0.0,1.7008,1.6977,1.6493,1.5439,1.5396,1.5396,1.5396,1.5,1.4799,1.4789,1.4322,1.4207,1.4367,1.3895,1.3839,0.0,0.0,0.0,0.0,1.4291,1.4674,1.5142,1.5536,1.5904,1.6222,1.6351,1.6436,1.65,1.65,1.65,1.6522,1.6654,1.6697,1.674,1.6928,1.6867,1.6729,1.6867,1.7522,1.8307,1.8774,1.9433,2.0104,2.0496,2.1007,2.1448,2.1648,2.1956,2.2147,2.1935,2.1797,2.1596,2.1246,2.0924,2.0626,2.0431,2.033,2.0287,2.0287,2.0287,2.0244,2.01,2.0107,1.9986,1.9711,1.9708,1.9708,1.9708,1.9708,1.9708,1.9699,1.9623,1.9529,1.9395,1.9195,1.9035,1.8888,1.8831,1.8831,1.8898,1.9035,1.9157,1.8058,1.8294,1.8315,1.7983,1.7192,1.6313,1.5662,0.0,1.4604,1.491,1.5214,1.5549,1.5912,1.6395,1.6727,1.6684,1.6643,0.0,0.0,0.0,0.0,0.0,0.0,0.0,0.0,0.0,0.0,0.0,0.0,0.0,1.7564,1.7331,1.6811,1.5909,1.5889,1.5728,1.5396,1.5269,1.5111,1.4925,1.4787,1.4705,1.4672,1.466,1.4847,0.0,0.0,0.0,0.0,1.4726,1.4846,1.5267,1.5626,1.5948,1.6222,1.6392,1.6545,1.6643,1.6643,1.6727,1.6842,1.6886,1.7034,1.7188,1.7251,1.7094,1.7013,1.7506,1.8143,1.8803,1.9367,1.9965,2.0521,2.1031,2.1425,2.1745,2.1985,2.2161,2.2209,2.2015,2.1862,2.1663,2.1333,2.1031,2.0786,2.0634,2.0509,2.0434,2.0434,2.0434,2.04,2.0308,2.0263,2.0107,1.9797,1.9771,1.9753,1.9708,1.9708,1.9708,1.9708,1.9681,1.9623,1.9538,1.9474,1.9376,1.9246,1.9213,1.9213,1.9246,1.9293,1.933,0.0,1.645,1.6514,1.6336,1.61,0.0,0.0,0.0,0.0,1.4864,1.5283,1.5685,1.5834,1.6442,1.6897,1.6897,1.6793,0.0,0.0,0.0,0.0,0.0,0.0,0.0,0.0,0.0,0.0,0.0,0.0,0.0,1.8496,1.8163,1.7583,1.6687,1.6292,1.5865,1.5405,1.5396,1.5341,1.5266,1.5326,1.5414,1.5548,1.5547,1.5805,0.0,0.0,0.0,0.0,1.5653,1.5602,1.5751,1.6057,1.6227,1.6329,1.6513,1.6673,1.6825,1.6865,1.7002,1.7167,1.7272,1.7526,1.7818,1.7818,1.7649,1.7581,1.8173,1.8765,1.9336,1.9906,2.0447,2.0942,2.1402,2.1699,2.1945,2.2154,2.2247,2.2268,2.2097,2.1964,2.1796,2.1525,2.1332,2.1159,2.1023,2.0934,2.0877,2.0877,2.0877,2.0836,2.0754,2.0679,2.0478,2.0098,1.9895,1.9771,1.9708,1.9708,1.9708,1.9708,1.9708,1.9681,1.9632,1.9632,1.9596,1.9514,1.9514,1.9514,1.9514,1.9514,1.9496,0.0,1.4289,1.46,1.405,1.4517,1.4966,0.0,0.0,0.0,0.0,1.5154,1.5673,1.5524,1.6291,1.6918,1.6918,0.0,0.0,0.0,0.0,0.0,0.0,0.0,0.0,0.0,0.0,0.0,0.0,0.0,0.0,1.9753,1.9347,1.8693,1.7723,1.6744,1.5973,1.5459,1.5449,1.5565,1.5769,1.5912,1.6289,1.6867,1.6575,1.6771,0.0,0.0,0.0,0.0,1.6884,1.675,1.6503,1.6782,1.676,1.6595,1.6737,1.6903,1.7076,1.7199,1.7341,1.7516,1.7797,1.8187,1.8553,1.8582,1.8426,1.8366,1.8831,1.9336,1.9871,2.0405,2.0893,2.1316,2.164,2.1869,2.2051,2.2183,2.2264,2.2275,2.2204,2.2106,2.1962,2.1825,2.1753,2.167,2.1539,2.1524,2.1524,2.1524,2.1524,2.1462,2.1332,2.1262,2.1031,2.0578,2.0115,1.9797,1.9717,1.9717,1.9708,1.9708,1.9708,1.9708,1.9708,1.9708,1.9708,1.9708,1.9708,1.9708,1.9708,1.9699,1.965,1.3462,0.0,1.5066,1.5029,1.5175,1.5278,0.0,0.0,0.0,0.0,0.0,1.5803,1.5608,1.6428,1.7126,0.0,0.0,0.0,0.0,0.0,0.0,0.0,0.0,0.0,0.0,0.0,0.0,0.0,0.0,2.1289,2.0768,2.0031,1.9273,1.8472,1.7814,1.7025,1.6108,1.5996,1.6085,1.6396,1.6631,1.7067,1.7661,1.7773,1.8051,0.0,0.0,0.0,1.7675,1.7333,1.7182,1.7195,1.7578,1.7523,1.7316,1.765,1.7665,1.7547,1.7629,1.7908,1.8295,1.8678,1.887,1.9011,1.9328,1.9171,1.8979,1.9393,1.9823,2.0296,2.0878,2.1308,2.1648,2.1868,2.2039,2.2183,2.2261,2.2289,2.2275,2.2204,2.2176,2.2085,2.1906,2.1862,2.1825,2.1744,2.1729,2.1729,2.1729,2.1729,2.1685,2.1534,2.1426,2.119,2.0844,2.0478,2.0118,1.9797,1.978,1.9753,1.9708,1.9708,1.9708,1.9708,1.9708,1.9708,1.9708,1.9708,1.9708,1.9708,1.9641,1.9551,1.3703,1.4163,1.4448,1.4595,1.4837,1.4993,0.0,0.0,0.0,0.0,0.0,0.0,1.5946,0.0,0.0,0.0,0.0,0.0,0.0,0.0,0.0,0.0,0.0,0.0,0.0,0.0,0.0,0.0,0.0,2.1823,2.1361,2.0581,1.9873,1.9227,1.8646,1.7877,1.6854,1.6874,1.6948,1.7116,1.742,1.7793,1.8236,1.8439,1.8706,0.0,0.0,0.0,1.8439,1.8253,1.8114,1.8081,1.8422,1.844,1.8319,1.8631,1.879,1.882,1.8679,1.873,1.8907,1.9157,1.9325,1.9479,1.9782,1.9845,1.9839,2.005,2.0396,2.0813,2.1308,2.1631,2.1877,2.2046,2.2173,2.2264,2.2289,2.2296,2.2289,2.2247,2.2257,2.2218,2.2106,2.2075,2.2077,2.2034,2.2027,2.2027,2.2027,2.2027,2.1983,2.1882,2.176,2.1546,2.1197,2.0982,2.0614,2.0054,1.9975,1.9878,1.9753,1.9753,1.9735,1.9708,1.9708,1.9708,1.9708,1.9708,1.9708,1.9708,1.9638,1.951,1.4324,1.4255,1.3973,1.4106,1.45,1.4831,0.0,0.0,0.0,0.0,0.0,0.0,0.0,0.0,0.0,0.0,0.0,0.0,0.0,0.0,0.0,0.0,0.0,0.0,0.0,0.0,0.0,0.0,0.0,2.2269,2.1784,2.1119,2.0528,2.0063,1.9442,1.877,1.802,1.8008,1.7983,1.8006,1.8281,1.8562,1.8853,1.8888,1.9037,1.9223,0.0,0.0,1.9013,1.9196,1.9137,1.8983,1.9318,1.9433,1.9434,1.9676,2.0006,2.0249,1.9876,1.9566,1.9367,1.9477,1.9666,1.9927,2.0154,2.0454,2.0713,2.0779,2.1007,2.1324,2.1648,2.1877,2.2051,2.219,2.2254,2.2296,2.2296,2.2296,2.2296,2.2296,2.2296,2.2296,2.2296,2.2296,2.2296,2.2296,2.2296,2.2296,2.2296,2.2296,2.2268,2.2214,2.2106,2.1947,2.1756,2.1673,2.1392,2.0848,2.0414,2.0065,1.9848,1.9806,1.9771,1.9708,1.9708,1.9708,1.9708,1.9708,1.9744,1.9848,1.9769,1.9616,1.4885,1.5586,1.5991,1.6113,1.6104,1.6123,0.0,0.0,0.0,0.0,0.0,0.0,0.0,0.0,0.0,0.0,0.0,0.0,0.0,0.0,0.0,0.0,0.0,0.0,0.0,0.0,0.0,0.0,0.0,2.2742,2.2528,2.1842,2.1361,2.1167,2.0514,2.0238,2.0379,1.9337,1.9004,1.9384,1.9391,1.9592,1.9935,1.9617,1.9434,1.9368,0.0,1.9237,1.9027,1.9395,1.958,1.9711,2.0317,2.0454,2.0357,2.0848,2.0924,2.0754,2.047,2.001,1.9602,1.9895,2.0098,2.0306,2.073,2.1015,2.1246,2.154,2.1531,2.1524,2.1803,2.202,2.219,2.2268,2.2289,2.2296,2.2296,2.2296,2.2296,2.2296,2.2296,2.2296,2.2296,2.2296,2.2296,2.2296,2.2296,2.2296,2.2296,2.2296,2.2268,2.2214,2.2176,2.2331,2.2736,2.2717,2.2792,2.3075,2.1478,2.0359,1.9973,1.9866,1.9771,1.9708,1.9708,1.9708,1.9708,1.9708,1.9998,2.0539,2.0353,2.0195,1.5059,1.594,1.6549,1.6888,1.6824,0.0,0.0,0.0,0.0,0.0,0.0,0.0,0.0,0.0,0.0,0.0,0.0,0.0,0.0,0.0,0.0,0.0,0.0,0.0,0.0,0.0,0.0,0.0,0.0,0.0,2.2815,2.2304,2.1963,2.1847,2.1435,2.1282,2.1435,2.0977,2.0651,2.0452,2.0534,2.0499,2.0354,2.0161,1.9863,1.9512,0.0,1.9434,1.9356,1.9681,1.9978,2.0296,2.0883,2.1233,2.1495,2.2134,2.1898,2.1265,2.1227,2.0627,1.9904,2.017,2.0393,2.0645,2.1047,2.1324,2.1564,2.1788,2.1809,2.1816,2.2012,2.2168,2.2254,2.2289,2.2296,2.2296,2.2296,2.2296,2.2296,2.2296,2.2296,2.2296,2.2296,2.2296,2.2296,2.2296,2.2296,2.2296,2.2296,2.2296,2.2289,2.2264,2.2608,2.2935,2.3143,2.3497,2.3652,2.35,2.2346,2.1584,2.136,2.078,2.0421,2.0394,2.0339,2.0287,2.0302,2.0616,2.0941,2.1236,2.1074,2.0941,1.4962,1.5985,1.6775,1.7167,0.0,0.0,0.0,0.0,0.0,0.0,0.0,0.0,0.0,0.0,0.0,0.0,0.0,0.0,0.0,0.0,0.0,0.0,0.0,0.0,0.0,0.0,0.0,0.0,0.0,0.0,2.2954,2.2665,2.2466,2.2371,2.2026,2.1838,2.1868,2.1876,2.1744,2.1476,2.153,2.1262,2.073,2.0592,2.0217,1.9643,1.9643,1.9581,1.9508,1.9813,2.0076,2.0389,2.1104,2.1834,2.2561,2.2988,2.2523,2.1718,2.1675,2.1017,2.0213,2.0444,2.0671,2.0917,2.1309,2.1572,2.1783,2.1959,2.203,2.2097,2.2176,2.2247,2.2296,2.2296,2.2296,2.2296,2.2296,2.2296,2.2296,2.2296,2.2296,2.2296,2.2296,2.2296,2.2296,2.2296,2.2296,2.2296,2.2296,2.2455,2.2557,2.2557,2.3224,2.3716,2.3841,2.4492,2.4679,2.4107,2.3275,2.2748,2.2611,2.1812,2.135,2.1282,2.1154,2.1069,2.105,2.1489,2.1779,2.1929,2.1808,2.1712,1.4514,1.5978,1.7217,1.7139,0.0,0.0,0.0,0.0,0.0,0.0,0.0,0.0,0.0,0.0,0.0,0.0,0.0,0.0,0.0,0.0,0.0,0.0,0.0,0.0,0.0,0.0,0.0,0.0,0.0,0.0,2.3093,2.2942,2.2863,2.2848,2.2039,2.1681,2.1802,2.1195,2.1467,2.2586,2.2219,2.1834,2.1418,2.0917,2.0364,1.9785,1.9785,1.9535,1.9168,1.9559,1.9631,1.961,2.0834,2.2175,2.3348,2.2837,2.2395,2.1982,2.1434,2.0859,2.0436,2.0754,2.0926,2.1087,2.1608,2.1818,2.1935,2.2202,2.2265,2.2268,2.2204,2.2247,2.2296,2.2296,2.2296,2.2296,2.2296,2.2296,2.2296,2.2296,2.2296,2.2296,2.2296,2.2296,2.2296,2.2296,2.2296,2.2296,2.2296,2.2895,2.3325,2.3325,2.3975,2.4703,2.5381,2.605,2.6335,2.611,2.4422,2.3266,2.2894,2.2622,2.2372,2.2122,2.1991,2.186,2.1737,2.1714,2.2019,2.2618,2.2489,2.2426,1.5504,1.6645,1.7447,1.7765,0.0,0.0,0.0,0.0,0.0,0.0,0.0,0.0,0.0,0.0,0.0,0.0,0.0,0.0,0.0,0.0,0.0,0.0,0.0,0.0,0.0,0.0,0.0,0.0,0.0,0.0,2.3108,2.2737,2.252,2.252,2.188,2.1553,2.161,2.1354,2.148,2.1948,2.1666,2.1352,2.0993,2.0792,2.0429,1.9901,1.9623,1.9579,1.9723,1.965,1.9789,2.0117,2.1054,2.1835,2.2444,2.2374,2.2114,2.1761,2.1628,2.1296,2.0982,2.1166,2.1339,2.1554,2.1838,2.2003,2.213,2.23,2.2366,2.2352,2.2275,2.231,2.2366,2.2366,2.2419,2.2487,2.2487,2.2521,2.2542,2.2494,2.2487,2.246,2.2387,2.2366,2.2352,2.2303,2.2296,2.2472,2.2936,2.3224,2.3586,2.4051,2.4737,2.5473,2.6218,2.6522,2.6615,2.6486,2.5551,2.4874,2.4586,2.3911,2.344,2.3267,2.3034,2.2819,2.2616,2.2878,2.3085,2.3261,2.3219,2.3172,1.5972,1.6931,1.7644,0.0,0.0,0.0,0.0,0.0,0.0,0.0,0.0,0.0,0.0,0.0,0.0,0.0,0.0,0.0,0.0,0.0,0.0,0.0,0.0,0.0,0.0,0.0,0.0,0.0,0.0,0.0,0.0,2.2508,2.2219,2.2058,2.1532,2.1257,2.1257,2.1055,2.0981,2.102,2.0885,2.0785,2.0705,2.0744,2.0535,2.0105,1.9717,1.974,2.0005,1.9704,1.9904,2.0485,2.1104,2.1612,2.1987,2.2005,2.1922,2.1783,2.1704,2.1569,2.1441,2.1532,2.1684,2.1855,2.2025,2.2135,2.2254,2.2384,2.246,2.2494,2.2467,2.246,2.2474,2.2521,2.2609,2.2665,2.2692,2.2731,2.2751,2.2705,2.2875,2.2907,2.2556,2.2654,2.2674,2.2386,2.2317,2.2574,2.3308,2.3603,2.4111,2.5083,2.5642,2.615,2.6666,2.67,2.6666,2.6598,2.6302,2.5999,2.5735,2.5042,2.4571,2.4347,2.4084,2.3809,2.3539,2.375,2.3797,2.3664,2.3664,2.3664,1.5612,1.6689,0.0,0.0,0.0,0.0,0.0,0.0,0.0,0.0,0.0,0.0,0.0,0.0,0.0,0.0,0.0,0.0,0.0,0.0,0.0,0.0,0.0,0.0,0.0,0.0,0.0,0.0,0.0,0.0,0.0,2.2282,2.2046,2.1507,2.0968,2.0679,2.0679,2.01,1.9875,2.0003,2.0016,2.0255,2.0692,2.0825,2.0705,2.0396,2.0179,2.0015,1.989,1.9607,1.9897,2.0533,2.0865,2.1565,2.2316,2.1793,2.185,2.2124,2.1591,2.1541,2.1739,2.1862,2.1906,2.1935,2.2147,2.2247,2.2331,2.2467,2.2592,2.2718,2.279,2.2712,2.2639,2.2771,2.281,2.2829,2.2893,2.2913,2.2913,2.2913,2.3441,2.3658,2.2856,2.3223,2.3335,2.2548,2.2369,2.2591,2.3332,2.4068,2.5083,2.6547,2.67,2.67,2.67,2.67,2.6666,2.6606,2.6589,2.6425,2.601,2.5936,2.5705,2.5314,2.5042,2.4775,2.4498,2.4161,2.394,2.3807,2.3792,2.3792,1.6824,0.0,0.0,0.0,0.0,0.0,0.0,0.0,0.0,0.0,0.0,0.0,0.0,0.0,0.0,0.0,0.0,0.0,0.0,0.0,0.0,0.0,0.0,0.0,0.0,0.0,0.0,0.0,0.0,0.0,0.0,2.1581,2.1106,2.0943,2.0376,2.0114,2.0217,2.0028,2.0067,2.0271,2.0384,2.0449,2.0489,2.0528,2.0421,2.0178,1.9877,1.9694,1.962,1.9691,1.9917,2.0248,2.0584,2.0983,2.1346,2.1423,2.1624,2.1851,2.1765,2.1879,2.2068,2.2094,2.2144,2.2194,2.2254,2.2317,2.2405,2.2585,2.2738,2.2906,2.3162,2.3229,2.3205,2.3057,2.3157,2.3307,2.3324,2.3353,2.3554,2.407,2.425,2.4358,2.4436,2.4566,2.448,2.403,2.3937,2.4171,2.4855,2.5592,2.6209,2.6649,2.67,2.67,2.67,2.67,2.6683,2.6666,2.6666,2.653,2.6225,2.6151,2.5979,2.574,2.5416,2.5072,2.471,2.4374,2.4119,2.3935,2.3413,2.3248,1.7421,0.0,0.0,0.0,0.0,0.0,0.0,0.0,0.0,0.0,0.0,0.0,0.0,0.0,0.0,0.0,0.0,0.0,0.0,0.0,0.0,0.0,0.0,0.0,0.0,0.0,0.0,0.0,0.0,0.0,0.0,2.1097,2.067,2.0431,2.0129,2.0016,2.0156,2.0156,2.0347,2.0723,2.0561,2.0551,2.0708,2.0527,2.0403,2.0313,1.9962,1.9739,1.9633,1.9927,2.0146,2.0326,2.0697,2.0942,2.1151,2.1456,2.1669,2.1833,2.1967,2.2116,2.2233,2.2233,2.2278,2.2296,2.2296,2.2377,2.2521,2.2692,2.2902,2.3162,2.3418,2.3571,2.3603,2.34,2.3469,2.3592,2.362,2.3658,2.3808,2.4227,2.4676,2.4935,2.4826,2.5234,2.536,2.473,2.4845,2.5139,2.5541,2.6234,2.67,2.67,2.67,2.67,2.67,2.67,2.67,2.67,2.67,2.6624,2.6426,2.6346,2.6203,2.5945,2.5724,2.5416,2.5033,2.4705,2.4292,2.383,2.3396,2.3093,0.0,0.0,0.0,0.0,0.0,0.0,0.0,0.0,0.0,0.0,0.0,0.0,0.0,0.0,0.0,0.0,0.0,0.0,0.0,0.0,0.0,0.0,0.0,0.0,0.0,0.0,0.0,0.0,0.0,0.0,0.0,2.07,2.0474,1.9927,2.0029,2.0154,2.0304,2.0317,2.0577,2.1092,2.0551,2.0607,2.1153,2.0676,2.0534,2.0627,2.0239,1.9979,1.9868,2.0267,2.0537,2.0697,2.1079,2.1332,2.1479,2.1745,2.1913,2.2044,2.2159,2.2247,2.2296,2.2296,2.2296,2.2296,2.2296,2.2432,2.2612,2.2771,2.3095,2.3424,2.3589,2.3768,2.3876,2.3746,2.3724,2.374,2.3811,2.3826,2.3833,2.3822,2.4855,2.5458,2.4585,2.5541,2.6078,2.5063,2.5356,2.5702,2.5702,2.6285,2.67,2.67,2.67,2.67,2.67,2.67,2.67,2.67,2.67,2.6666,2.6598,2.6537,2.6355,2.6054,2.5979,2.5761,2.5435,2.5095,2.4493,2.3649,2.3586,2.3218,0.0,0.0,0.0,0.0,0.0,0.0,0.0,0.0,0.0,0.0,0.0,0.0,0.0,0.0,0.0,0.0,0.0,0.0,0.0,0.0,0.0,0.0,0.0,0.0,0.0,0.0,0.0,0.0,0.0,0.0,2.0655,1.9801,1.928,1.9218,1.9242,1.937,1.9603,1.9668,1.9908,0.0,2.0376,2.0559,2.0877,2.0447,2.0253,2.0217,1.9975,1.9953,2.0148,2.0554,2.0901,2.1183,2.148,2.1661,2.1825,2.2036,2.214,2.2159,2.2254,2.2289,2.2296,2.2296,2.2296,2.2296,2.2296,2.2398,2.2576,2.2816,2.3095,2.3389,2.3672,2.3826,2.3907,2.3927,2.3981,2.4016,2.4026,2.4039,2.4186,2.47,2.5455,2.6066,2.6216,2.6884,2.7195,2.661,2.6477,2.6454,2.6454,2.659,2.67,2.67,2.67,2.67,2.67,2.67,2.67,2.67,2.67,2.6666,2.6598,2.6597,2.6528,2.6381,2.6221,2.6016,2.5789,2.5403,2.4825,2.4058,2.3483,2.2964,0.0,0.0,0.0,0.0,0.0,0.0,0.0,0.0,0.0,0.0,0.0,0.0,0.0,0.0,0.0,0.0,0.0,0.0,0.0,0.0,0.0,0.0,0.0,0.0,0.0,0.0,0.0,0.0,0.0,2.0476,1.996,1.9459,1.9207,1.9237,1.9351,1.9521,1.9723,1.9765,2.0006,2.0429,2.022,2.0177,2.0274,2.0252,2.0141,1.9957,2.0046,2.0241,2.0513,2.0926,2.1254,2.151,2.1744,2.193,2.2056,2.2197,2.2247,2.2247,2.2289,2.2324,2.2352,2.2352,2.2384,2.2439,2.2439,2.2569,2.2738,2.2944,2.3205,2.3504,2.3745,2.3863,2.3966,2.3991,2.4059,2.4099,2.4099,2.4079,2.4144,2.4457,2.5027,2.5482,2.564,2.6367,2.6955,2.6997,2.6875,2.6758,2.6708,2.67,2.67,2.67,2.67,2.67,2.67,2.67,2.67,2.67,2.67,2.6691,2.6657,2.6649,2.6589,2.6494,2.6424,2.6311,2.6136,2.5937,2.5426,2.468,2.4323,2.3696,0.0,0.0,0.0,0.0,0.0,0.0,0.0,0.0,0.0,0.0,0.0,0.0,0.0,0.0,0.0,0.0,0.0,0.0,0.0,0.0,0.0,0.0,0.0,0.0,0.0,0.0,0.0,0.0,0.0,2.0012,1.9324,1.9353,1.938,1.9402,1.9613,1.9787,1.9925,1.9947,2.0157,2.0545,2.0077,1.9824,1.9821,2.0178,2.0193,1.9938,2.0361,2.0679,2.0926,2.1316,2.157,2.1775,2.1957,2.2113,2.2211,2.2275,2.2296,2.2296,2.2317,2.2366,2.2419,2.2439,2.2525,2.2632,2.2646,2.2777,2.2957,2.3083,2.3342,2.3623,2.3754,2.3886,2.3971,2.3971,2.4021,2.4089,2.4094,2.4064,2.4001,2.3927,2.4338,2.4682,2.4616,2.5359,2.614,2.6749,2.6746,2.669,2.6691,2.67,2.67,2.67,2.67,2.67,2.67,2.67,2.67,2.67,2.67,2.6708,2.6733,2.6733,2.6683,2.6614,2.6623,2.6589,2.6496,2.6487,2.6093,2.5346,2.5419,2.4803,0.0,0.0,0.0,0.0,0.0,0.0,0.0,0.0,0.0,0.0,0.0,0.0,0.0,0.0,0.0,0.0,0.0,0.0,0.0,0.0,0.0,0.0,0.0,0.0,0.0,0.0,0.0,0.0,2.0376,1.9878,1.9652,1.9169,1.892,1.8978,1.9007,1.9099,1.9224,1.9353,1.9481,1.9594,1.9842,2.0057,2.0226,2.0461,2.0505,2.0427,2.0893,2.1182,2.134,2.1624,2.1833,2.1969,2.2123,2.2218,2.2289,2.2296,2.2296,2.231,2.2373,2.2426,2.2508,2.2612,2.2712,2.2784,2.2842,2.2925,2.3033,2.3223,2.3383,2.3562,2.3756,2.381,2.3821,2.3821,2.3917,2.4026,2.4089,2.4094,2.4074,2.4001,2.4366,2.4867,2.5355,2.5368,2.5504,2.6057,2.5986,2.6062,2.6623,2.67,2.67,2.67,2.67,2.67,2.67,2.67,2.67,2.67,2.67,2.675,2.6867,2.6867,2.6925,2.7022,2.6849,2.6825,2.6925,2.6865,2.6513,2.5906,2.6019,2.5692,0.0,0.0,0.0,0.0,0.0,0.0,0.0,0.0,0.0,0.0,0.0,0.0,0.0,0.0,0.0,0.0,0.0,0.0,0.0,0.0,0.0,0.0,0.0,0.0,0.0,0.0,0.0,0.0,1.9914,1.9508,1.9373,1.918,1.9092,1.912,1.9157,1.9204,1.9274,1.933,1.9459,1.963,2.0021,2.0315,2.0478,2.0836,2.0893,2.0754,2.1182,2.1448,2.1595,2.1895,2.2065,2.212,2.2268,2.2331,2.2366,2.2391,2.2405,2.2419,2.2494,2.2572,2.2692,2.2829,2.2995,2.3156,2.3223,2.3289,2.3365,2.3485,2.3598,2.3698,2.3784,2.3829,2.386,2.3811,2.3902,2.4006,2.4049,2.4074,2.4064,2.3917,2.4028,2.4318,2.4841,2.4743,2.491,2.5857,2.5897,2.6034,2.6632,2.67,2.6733,2.68,2.6809,2.685,2.6915,2.6915,2.694,2.698,2.698,2.7014,2.7071,2.7136,2.7239,2.7378,2.7222,2.7198,2.7334,2.7382,2.729,2.707,2.7232,2.696,0.0,0.0,0.0,0.0,0.0,0.0,0.0,0.0,0.0,0.0,0.0,0.0,0.0,0.0,0.0,0.0,0.0,0.0,0.0,0.0,0.0,0.0,0.0,0.0,0.0,0.0,0.0,0.0,1.966,1.9352,1.926,1.9343,1.9398,1.9398,1.9459,1.9477,1.9477,1.9336,1.9492,1.9947,2.0132,2.0416,2.0787,2.1206,2.13,2.1166,2.1484,2.1706,2.1844,2.2118,2.2242,2.2254,2.2387,2.2446,2.2487,2.2555,2.2596,2.2605,2.2679,2.279,2.2938,2.3077,2.3295,2.3493,2.3566,2.3607,2.3666,2.3724,2.379,2.3827,2.386,2.3891,2.3912,2.3853,2.3932,2.4026,2.4054,2.4089,2.4079,2.3907,2.3816,2.3858,2.4147,2.4025,2.4227,2.5276,2.5565,2.5841,2.6386,2.6648,2.6842,2.6942,2.6991,2.708,2.7166,2.7198,2.723,2.726,2.7285,2.7283,2.733,2.744,2.7577,2.7745,2.7698,2.7698,2.7745,2.7926,2.8027,2.8079,2.8264,2.8038,0.0,0.0,0.0,0.0,0.0,0.0,0.0,0.0,0.0,0.0,0.0,0.0,0.0,0.0,0.0,0.0,0.0,0.0,0.0,0.0,0.0,0.0,0.0,0.0,0.0,0.0,0.0,0.0,1.9696,1.9681,1.9672,1.9681,1.9681,1.9681,1.969,1.969,1.969,1.9176,1.9416,2.0361,1.9931,2.0273,2.127,2.1541,2.1745,2.1846,2.194,2.2053,2.2176,2.2261,2.2331,2.2408,2.2467,2.2576,2.2692,2.2764,2.2829,2.2893,2.2963,2.307,2.3217,2.3412,2.3566,2.3705,2.3753,2.379,2.3806,2.3876,2.3896,2.3907,2.3976,2.3996,2.3996,2.3991,2.4036,2.4108,2.4175,2.4185,2.417,2.4099,2.3981,2.3842,2.367,2.3425,2.3391,2.3843,2.4513,2.5147,2.5678,2.6529,2.7077,2.7094,2.7254,2.738,2.738,2.7442,2.7488,2.7488,2.7488,2.7539,2.7672,2.7745,2.7901,2.8156,2.835,2.835,2.8163,2.843,2.8557,2.857,2.8694,2.87,0.0,0.0,0.0,0.0,0.0,0.0,0.0,0.0,0.0,0.0,0.0,0.0,0.0,0.0,0.0,0.0,0.0,0.0,0.0,0.0,0.0,0.0,0.0,0.0,0.0,0.0,0.0,0.0,0.0,1.9708,1.9708,1.9708,1.9708,1.9708,1.9708,1.9507,1.9137,1.9103,1.9123,1.9194,1.9756,2.0315,2.0868,2.1573,2.1967,2.2101,2.2156,2.2194,2.2214,2.2324,2.2398,2.248,2.2632,2.2777,2.2913,2.302,2.3107,2.3168,2.3235,2.3336,2.3475,2.358,2.375,2.3904,2.3971,2.4016,2.4069,2.4089,2.4089,2.4089,2.4074,2.4069,2.4069,2.4069,2.4084,2.4113,2.418,2.4194,2.4175,2.4108,2.3991,2.3845,2.3682,2.3447,2.3421,2.3911,2.4147,2.4688,2.5869,2.631,2.6763,2.7424,2.7552,2.7689,2.7893,2.7936,2.7986,2.8066,2.8125,2.8158,2.8206,2.8318,2.8478,2.8712,2.8872,2.8831,2.8597,2.8767,2.8863,2.8863,2.8911,2.8887,0.0,0.0,0.0,0.0,0.0,0.0,0.0,0.0,0.0,0.0,0.0,0.0,0.0,0.0,0.0,0.0,0.0,0.0,0.0,0.0,0.0,0.0,0.0,0.0,0.0,0.0,0.0,0.0,0.0,0.0,1.9708,1.9708,1.9594,1.9369,1.9354,1.9116,1.8572,1.8557,1.8602,1.8678,1.9529,2.0206,2.0728,2.1645,2.2128,2.2242,2.2275,2.2282,2.2275,2.2384,2.2501,2.2612,2.2823,2.3003,2.3181,2.3313,2.3406,2.3463,2.3521,2.361,2.3702,2.3774,2.3907,2.4054,2.4108,2.4166,2.4194,2.4194,2.4194,2.4185,2.4151,2.4123,2.4123,2.4123,2.4123,2.4151,2.4185,2.4194,2.4185,2.4146,2.4036,2.3925,2.3763,2.3542,2.349,2.3761,2.3944,2.4512,2.5766,2.6246,2.683,2.7766,2.7933,2.8059,2.8282,2.8315,2.8382,2.8481,2.8569,2.8614,2.8664,2.8819,2.8997,2.9167,2.9316,2.9316,2.9172,2.9195,2.9192,2.9176,2.9138,2.9078,0.0,0.0,0.0,0.0,0.0,0.0,0.0,0.0,0.0,0.0,0.0,0.0,0.0,0.0,0.0,0.0,0.0,0.0,0.0,0.0,0.0,0.0,0.0,0.0,0.0,0.0,0.0,0.0,1.9717,1.9717,1.9717,1.9693,1.9378,1.8724,1.8687,1.8484,1.8067,1.7567,1.7853,1.8936,1.9256,1.9932,2.0896,2.1801,2.2233,2.2303,2.2303,2.2345,2.2429,2.248,2.2619,2.2829,2.3021,2.3271,2.3526,2.3667,2.3752,2.3806,2.3806,2.3842,2.3917,2.3986,2.4059,2.4127,2.4175,2.4194,2.4194,2.4194,2.4194,2.4194,2.4194,2.4194,2.4194,2.4194,2.4194,2.4194,2.4194,2.4194,2.4194,2.4194,2.4151,2.4049,2.3832,2.3692,2.3518,2.3253,2.3895,2.4665,2.5328,2.6357,2.7317,2.8136,2.8382,2.8505,2.8505,2.8574,2.8644,2.8706,2.8785,2.8886,2.9016,2.9201,2.9377,2.9519,2.9708,2.9842,2.9912,2.971,2.9564,2.9502,2.9433,2.9289,1.5698,0.0,0.0,0.0,0.0,0.0,1.9796,2.0311,0.0,0.0,0.0,0.0,0.0,0.0,0.0,0.0,0.0,0.0,0.0,0.0,0.0,0.0,0.0,0.0,0.0,0.0,0.0,0.0,1.9866,1.9919,1.9919,1.9413,1.8992,1.8717,1.8273,1.7831,1.7379,1.7475,1.7526,1.7581,1.9006,1.9887,2.0289,2.165,2.231,2.238,2.238,2.2494,2.2685,2.2652,2.2764,2.2965,2.3277,2.3497,2.3662,2.3798,2.3899,2.3937,2.3937,2.3991,2.4054,2.4069,2.4113,2.4175,2.419,2.4194,2.4194,2.4194,2.4194,2.4194,2.4194,2.4194,2.4194,2.4194,2.4194,2.4194,2.4194,2.4194,2.4194,2.4194,2.4151,2.4074,2.3952,2.3827,2.3692,2.3585,2.4245,2.504,2.5811,2.6668,2.7559,2.8466,2.8607,2.8682,2.8773,2.8852,2.8934,2.9043,2.9176,2.9288,2.9431,2.9589,2.9756,2.9936,2.9992,3.0046,3.0129,2.9929,2.9764,2.964,2.9439,2.9265,0.0,0.0,0.0,0.0,0.0,0.0,1.9618,2.0246,2.0738,0.0,0.0,0.0,0.0,0.0,0.0,0.0,0.0,0.0,0.0,0.0,0.0,0.0,0.0,0.0,0.0,2.0017,2.0019,2.0054,2.0104,2.0093,1.999,1.9293,1.8716,1.8305,1.7712,1.7212,1.677,1.7044,1.7156,1.7158,1.8948,1.9865,2.005,2.163,2.2387,2.2439,2.2501,2.2659,2.2893,2.2938,2.3046,2.3235,2.3491,2.3678,2.3832,2.3937,2.4021,2.4084,2.4084,2.4103,2.4146,2.4146,2.417,2.4194,2.4194,2.4194,2.4194,2.4194,2.4194,2.4194,2.4194,2.4194,2.4194,2.4194,2.4194,2.4194,2.4194,2.4194,2.4194,2.4194,2.417,2.4113,2.4041,2.3981,2.3896,2.38,2.4485,2.53,2.6071,2.6927,2.7809,2.8682,2.8816,2.8858,2.8934,2.8992,2.9095,2.9235,2.9387,2.956,2.9716,2.9857,2.9992,3.0143,3.0134,3.0155,3.0208,3.0076,2.9936,2.9783,2.9584,2.9414,0.0,0.0,0.0,0.0,0.0,0.0,1.9495,2.0272,2.1012,0.0,0.0,0.0,0.0,0.0,0.0,0.0,0.0,0.0,0.0,0.0,0.0,0.0,0.0,0.0,2.0373,2.0364,2.0375,2.0444,2.0392,2.027,2.0076,1.9283,1.8502,1.7769,1.7151,1.6671,1.6342,1.6541,1.6924,1.7452,1.9057,1.9924,2.0177,2.1718,2.2439,2.2535,2.2659,2.2855,2.3065,2.3253,2.3406,2.3538,2.3673,2.3832,2.4016,2.4089,2.4151,2.4194,2.4194,2.4194,2.4194,2.4194,2.4194,2.4194,2.4194,2.4194,2.4194,2.4194,2.4194,2.4194,2.4194,2.4194,2.4194,2.4194,2.4194,2.4194,2.4194,2.4194,2.4194,2.4194,2.4194,2.418,2.4113,2.4103,2.4092,2.4075,2.4801,2.5619,2.6364,2.7274,2.8123,2.8825,2.8958,2.8999,2.8999,2.9074,2.9178,2.9288,2.9506,2.9696,2.9899,3.0034,3.0139,3.0181,3.0187,3.0187,3.0181,3.0197,3.0098,2.9893,2.9815,2.9603,0.0,0.0,0.0,0.0,0.0,0.0,2.024,2.0612,2.0981,0.0,0.0,0.0,0.0,0.0,0.0,0.0,0.0,0.0,0.0,0.0,0.0,0.0,0.0,0.0,2.0712,2.0695,2.0703,2.0728,2.0712,2.0611,2.0409,1.9132,1.829,1.8034,1.6979,1.6468,1.6543,1.6844,1.7422,1.8276,1.9416,2.0301,2.1004,2.1963,2.2501,2.2665,2.281,2.3065,2.3418,2.3507,2.3556,2.36,2.3785,2.3942,2.4089,2.4161,2.4185,2.4194,2.4194,2.4194,2.4194,2.4194,2.4194,2.4194,2.4194,2.4194,2.4194,2.4194,2.4194,2.4194,2.4194,2.4194,2.4194,2.4194,2.4194,2.4194,2.4194,2.4194,2.4194,2.4194,2.4194,2.4208,2.418,2.4175,2.4395,2.5004,2.5805,2.6612,2.7418,2.8236,2.8804,2.8951,2.8994,2.8999,2.8999,2.91,2.9209,2.9293,2.9545,2.9747,2.9889,3.0022,3.0102,3.0116,3.0123,3.0123,3.0116,3.0113,3.0046,2.9893,2.9773,2.9579,0.0,0.0,0.0,1.9632,0.0,0.0,0.0,2.0833,2.1044,2.1747,0.0,0.0,0.0,0.0,0.0,0.0,0.0,0.0,0.0,0.0,0.0,0.0,0.0,0.0,2.1166,2.1142,2.1119,2.1055,2.099,2.0859,2.0619,1.9488,1.8648,1.8207,1.7391,1.7042,1.7252,1.7555,1.8177,1.9113,2.0124,2.0835,2.1274,2.22,2.2692,2.285,2.3102,2.3354,2.3602,2.3716,2.379,2.3871,2.3971,2.4069,2.4142,2.419,2.4205,2.4209,2.4233,2.4243,2.4238,2.4214,2.4205,2.42,2.4199,2.4194,2.4194,2.4194,2.4194,2.4194,2.4194,2.4194,2.4194,2.4194,2.4194,2.4194,2.4194,2.4194,2.4194,2.4194,2.4194,2.4194,2.4194,2.419,2.4485,2.5322,2.6128,2.6938,2.7744,2.8542,2.904,2.9005,2.8999,2.8999,2.8999,2.9117,2.9225,2.9293,2.9517,2.9714,2.9839,2.9987,3.0038,2.9992,2.9972,2.9952,2.9952,2.9872,2.9851,2.9845,2.9771,2.9589,0.0,0.0,0.0,0.0,0.0,2.0314,0.0,0.0,0.0,2.1845,0.0,0.0,0.0,0.0,0.0,0.0,0.0,0.0,0.0,0.0,0.0,0.0,0.0,0.0,0.0,2.1531,2.1471,2.1372,2.1215,2.1014,2.0793,1.9962,1.9249,1.8656,1.8043,1.7891,1.8236,1.8326,1.8909,1.9993,2.0833,2.1344,2.1596,2.2444,2.2925,2.3088,2.3383,2.3596,2.3758,2.3886,2.4011,2.4123,2.4103,2.4133,2.419,2.4215,2.4229,2.4257,2.4321,2.4339,2.433,2.4261,2.4224,2.4192,2.4204,2.4194,2.4194,2.4194,2.4194,2.4194,2.4194,2.4194,2.4194,2.4194,2.4194,2.4194,2.4194,2.4194,2.4194,2.4194,2.4194,2.4194,2.4204,2.4205,2.4574,2.5607,2.6316,2.7088,2.8057,2.8741,2.9119,2.9062,2.904,2.9022,2.9022,2.9112,2.9216,2.928,2.945,2.9608,2.9715,2.9839,2.9883,2.9822,2.9758,2.9718,2.9714,2.9594,2.9626,2.9764,2.9717,2.9551,0.0,0.0,0.0,0.0,2.1708,0.0,0.0,0.0,2.1711,2.1818,0.0,0.0,0.0,0.0,0.0,0.0,0.0,0.0,0.0,0.0,0.0,0.0,0.0,0.0,0.0,2.1664,2.1573,2.1574,2.1333,2.1159,2.1063,2.0281,1.9858,1.9893,1.8748,1.8568,1.9492,1.8941,1.9448,2.1039,2.1265,2.1794,2.2552,2.2835,2.3071,2.3283,2.3484,2.3692,2.3891,2.4016,2.4119,2.4177,2.411,2.4134,2.4219,2.4266,2.433,2.4399,2.4442,2.4478,2.4469,2.4404,2.4298,2.4192,2.4204,2.4194,2.4194,2.4194,2.4194,2.4194,2.4194,2.4194,2.4194,2.4194,2.4194,2.4194,2.4194,2.4194,2.4194,2.4194,2.4194,2.4204,2.4205,2.4252,2.4838,2.6415,2.6775,2.7426,2.8957,2.9225,2.9262,2.9275,2.9158,2.9096,2.9096,2.9095,2.9134,2.9211,2.9291,2.936,2.9439,2.9526,2.9555,2.9551,2.9482,2.9453,2.9453,2.936,2.9434,2.9612,2.9439,2.9301,0.0,0.0,0.0,0.0,0.0,0.0,2.2063,0.0,2.1928,0.0,0.0,0.0,0.0,0.0,0.0,0.0,0.0,0.0,0.0,0.0,0.0,0.0,0.0,0.0,0.0,0.0,0.0,0.0,2.1119,2.0966,2.0925,2.0631,2.0383,2.0165,1.9791,1.9864,2.0451,2.0259,2.0754,2.1949,2.2125,2.2447,2.287,2.3169,2.3359,2.3485,2.3726,2.3902,2.4021,2.4119,2.4201,2.4266,2.4271,2.4284,2.4312,2.4397,2.4469,2.4534,2.4641,2.4664,2.4645,2.4512,2.4392,2.4312,2.4271,2.4257,2.4247,2.4219,2.4191,2.4205,2.4199,2.4194,2.4194,2.4194,2.4194,2.4194,2.4194,2.4194,2.4194,2.4194,2.4194,2.4223,2.4307,2.4334,2.4934,2.667,2.7017,2.7651,2.926,2.9478,2.9448,2.937,2.9273,2.9214,2.9213,2.9213,2.9222,2.9267,2.9353,2.9404,2.9402,2.9384,2.9387,2.9375,2.9318,2.9273,2.9273,2.9214,2.9219,2.9307,2.9302,2.9243,2.2458,0.0,0.0,0.0,0.0,0.0,0.0,0.0,0.0,0.0,0.0,0.0,0.0,0.0,0.0,0.0,0.0,0.0,0.0,0.0,0.0,0.0,0.0,0.0,0.0,0.0,0.0,0.0,0.0,2.0745,2.0802,2.0925,2.0886,2.0653,2.0668,2.0909,2.1386,2.1299,2.1717,2.2605,2.2797,2.2971,2.3175,2.3435,2.3596,2.3692,2.3922,2.4069,2.4128,2.4201,2.4289,2.4366,2.4429,2.4495,2.4545,2.4572,2.4638,2.4716,2.482,2.4853,2.4821,2.4614,2.4513,2.4446,2.4358,2.4325,2.4307,2.4257,2.4247,2.4247,2.4205,2.419,2.4209,2.4194,2.4194,2.4194,2.4194,2.4194,2.4194,2.4194,2.4194,2.4237,2.4376,2.4423,2.5025,2.6803,2.7188,2.7856,2.9503,2.968,2.964,2.9546,2.944,2.9389,2.9385,2.9373,2.9354,2.934,2.9438,2.9448,2.9387,2.9307,2.9262,2.9259,2.9186,2.9047,2.8813,2.8763,2.8625,2.8423,2.8966,2.9163,0.0,0.0,0.0,2.3725,0.0,0.0,0.0,0.0,2.2006,0.0,0.0,0.0,0.0,0.0,0.0,0.0,0.0,0.0,0.0,0.0,0.0,0.0,0.0,0.0,0.0,0.0,0.0,0.0,0.0,0.0,2.0794,2.1047,2.1356,2.1733,2.1197,2.1362,2.235,2.1713,2.1895,2.2893,2.3033,2.3259,2.3577,2.3657,2.3769,2.3902,2.4049,2.4123,2.4194,2.4271,2.4361,2.4503,2.4567,2.47,2.4889,2.4806,2.4875,2.4986,2.4981,2.4993,2.4956,2.4765,2.465,2.4563,2.4437,2.4401,2.4391,2.4321,2.4344,2.4358,2.4224,2.4201,2.4205,2.4204,2.4194,2.4194,2.4194,2.4194,2.4194,2.4194,2.4194,2.4237,2.4376,2.4449,2.5128,2.7004,2.7343,2.8021,2.9768,2.9926,2.9884,2.988,2.9707,2.9594,2.9594,2.9527,2.9492,2.9492,2.9438,2.9368,2.9304,2.9241,2.9167,2.9119,2.9045,2.8613,2.7835,2.7835,2.7444,2.6722,2.8277,2.9011,0.0,0.0,2.3953,2.4468,0.0,0.0,0.0,0.0,0.0,0.0,0.0,0.0,0.0,0.0,0.0,0.0,0.0,0.0,0.0,0.0,0.0,0.0,0.0,0.0,0.0,0.0,0.0,0.0,2.0375,0.0,0.0,2.1038,2.1364,2.1715,2.1754,2.2016,2.2535,2.244,2.2658,2.3168,2.3342,2.3549,2.3745,2.385,2.3961,2.4049,2.4136,2.4176,2.421,2.4325,2.4447,2.4579,2.4746,2.4885,2.5016,2.4965,2.4996,2.5065,2.5114,2.5106,2.5035,2.489,2.4783,2.4715,2.4574,2.4526,2.4522,2.4451,2.4455,2.4445,2.4362,2.4335,2.4317,2.4215,2.4196,2.4209,2.4199,2.4194,2.4194,2.4194,2.4194,2.4237,2.4376,2.4454,2.5153,2.707,2.7469,2.8159,2.9904,3.0115,3.0079,3.0046,2.9925,2.9843,2.9809,2.9779,2.9758,2.9696,2.9686,2.9612,2.9492,2.9387,2.9291,2.9162,2.8574,2.8119,2.7792,2.7273,2.6864,2.6625,2.7695,2.7915,2.4462,2.4666,0.0,2.546,2.5448,0.0,2.4787,0.0,0.0,0.0,0.0,0.0,0.0,0.0,0.0,0.0,0.0,0.0,0.0,0.0,0.0,0.0,0.0,0.0,0.0,0.0,0.0,1.9839,2.0114,0.0,0.0,0.0,2.1433,2.1805,2.2113,2.2395,2.2665,2.2874,2.3114,2.3412,2.3553,2.3728,2.3912,2.4016,2.408,2.4134,2.42,2.4261,2.4321,2.4429,2.4552,2.4716,2.4891,2.5038,2.5133,2.5085,2.5105,2.5176,2.5215,2.5187,2.5105,2.4974,2.4893,2.4805,2.4672,2.4655,2.4655,2.459,2.4588,2.459,2.4513,2.4498,2.4441,2.4293,2.4257,2.4233,2.4205,2.4204,2.4194,2.4194,2.4194,2.4237,2.4376,2.4454,2.5157,2.7104,2.7487,2.8202,2.9976,3.0197,3.018,3.013,2.9824,2.9589,2.9508,2.9769,2.9911,2.9836,2.983,2.9774,2.9645,2.9507,2.9236,2.8815,2.8207,2.759,2.6953,2.6434,2.6025,2.5763,2.6287,2.6245]}]]